GFSCGP_prec_cthk_003.txt.gz
RH
15 16 19 20 19 19 20 21 23 20 22 23 26 24 21 21 23 24 23 22 23 27 30 30 32 34 37 41 45 48 51 53 54 57 58 57 56 54 52 49 50 51 49 48
16 18 18 19 19 20 21 22 21 22 23 26 28 25 24 23 25 27 27 28 28 29 31 32 34 37 42 47 51 53 55 57 60 61 61 57 54 53 53 54 53 51 51 49
18 18 19 21 23 24 23 21 23 25 25 28 28 27 28 26 27 28 29 31 32 33 34 36 39 44 49 53 56 60 60 60 60 61 60 58 57 57 58 57 55 53 52 49
22 23 25 26 26 26 25 24 26 26 29 30 31 29 30 30 29 31 33 35 36 37 39 42 46 52 54 57 60 63 64 63 62 63 64 63 61 57 57 55 53 50 50 47
25 28 30 30 30 30 30 29 28 29 31 33 34 31 32 33 33 34 36 38 40 42 45 49 54 56 57 59 61 62 65 68 69 69 69 66 65 63 59 55 50 48 42 36
30 30 30 32 31 31 31 30 32 34 36 38 37 35 35 36 38 38 39 41 44 48 52 55 58 60 61 63 66 69 71 72 72 70 67 66 64 63 60 57 51 45 41 38
32 33 34 34 32 34 33 31 35 41 43 40 37 37 37 41 41 43 47 51 53 56 58 60 63 64 66 68 71 73 74 71 67 68 70 69 66 60 54 49 46 44 42 41
43 39 39 39 38 39 40 39 44 42 46 45 41 43 42 44 47 51 54 54 57 60 64 65 67 69 72 72 72 71 69 68 71 74 70 69 66 63 55 55 52 48 42 41
47 43 42 42 42 42 42 47 45 51 60 57 44 46 48 47 49 53 55 58 63 65 65 66 68 68 69 71 73 74 76 80 73 70 64 57 56 55 57 58 50 47 42 40
43 46 41 41 42 42 42 44 46 51 58 57 46 47 47 52 54 54 55 57 58 59 60 60 63 66 69 72 76 78 76 75 71 67 63 63 64 63 61 53 50 45 42 44
36 38 37 38 43 46 48 50 53 52 58 65 71 46 48 50 51 52 54 55 55 56 59 62 64 66 67 70 69 68 70 71 68 66 69 71 69 61 57 48 42 46 47 52
35 38 36 36 42 47 48 50 50 53 52 59 66 51 46 50 50 55 54 55 58 60 62 62 61 60 62 67 68 68 70 70 69 69 70 66 62 62 52 47 46 52 58 58
39 43 42 37 46 47 49 49 51 55 61 65 75 57 49 53 52 56 56 61 63 63 63 63 64 66 70 72 74 73 71 70 72 70 66 62 63 58 57 55 58 60 64 70
39 43 40 39 36 41 47 50 54 61 70 67 62 60 52 53 56 57 59 65 66 65 64 67 68 67 69 70 70 70 71 71 67 62 52 54 60 63 65 62 66 68 76 78
41 45 44 45 46 47 48 51 55 62 64 74 62 62 55 57 58 59 61 64 63 65 68 68 71 71 71 72 67 65 62 64 62 63 66 65 63 68 65 67 69 75 81 82
45 48 50 54 54 54 54 52 60 65 66 67 67 64 57 58 60 66 67 66 67 70 73 74 75 77 75 69 64 63 69 65 63 68 64 63 63 61 59 63 68 75 78 77
53 58 63 58 61 58 53 53 62 63 62 63 64 57 59 62 68 68 67 68 71 73 76 85 82 73 67 76 75 71 63 58 58 58 60 57 54 51 57 62 64 63 59 56
62 65 71 73 70 71 49 59 60 62 59 60 60 62 66 69 72 73 73 74 80 81 86 87 72 76 79 71 63 54 51 56 60 57 56 55 58 60 61 62 59 54 51 46
60 70 76 80 80 70 57 57 59 63 59 61 67 67 69 71 75 77 77 81 86 89 85 80 78 77 67 61 56 48 51 57 55 58 61 62 62 63 64 58 50 42 33 31
67 72 78 86 90 83 63 63 64 68 70 73 74 76 80 80 83 81 88 88 92 81 74 74 74 74 60 56 46 47 49 53 59 64 63 68 71 68 62 47 37 33 34 35
72 79 80 85 88 74 65 66 70 83 85 84 86 86 82 83 87 87 87 87 84 79 72 68 64 59 55 49 47 45 45 48 58 65 72 81 77 66 42 38 38 36 37 45
66 77 80 86 86 82 68 74 81 82 87 89 88 87 88 89 87 87 83 77 71 60 49 49 53 56 55 52 46 39 38 43 53 66 78 80 64 40 37 40 40 41 54 58
73 74 82 84 78 75 77 79 83 88 93 90 89 88 84 83 73 66 62 59 51 47 46 47 50 47 49 51 44 39 43 50 63 73 82 63 43 38 39 43 44 54 63 64
72 80 88 88 80 79 81 89 92 90 88 91 92 82 71 61 57 50 50 51 51 43 39 40 42 44 48 48 46 47 51 57 70 82 69 44 43 39 43 49 54 63 68 70
78 89 88 85 77 81 84 92 93 90 89 83 72 62 55 52 50 48 48 46 43 38 39 39 39 42 45 47 50 60 62 71 82 77 47 43 41 42 48 52 60 66 75 83
90 89 93 87 87 88 90 90 91 87 79 67 64 56 52 44 42 45 42 39 37 35 35 33 36 44 48 53 59 58 65 80 81 50 41 41 40 45 50 54 61 76 84 84

GFSCGP_prec_cthk_006.txt.gz
RH
16 16 18 17 16 16 17 18 19 18 20 22 23 21 21 22 23 24 25 23 26 31 33 37 38 35 37 41 48 55 53 52 57 60 61 64 62 61 61 61 58 56 54 52
14 17 16 18 18 18 18 19 19 21 22 25 24 25 23 24 25 27 29 28 29 31 34 36 37 39 42 46 51 56 56 59 63 66 66 66 67 65 64 64 64 63 62 60
17 18 19 20 21 22 20 21 24 24 24 25 25 28 26 26 28 29 30 31 34 35 36 39 42 43 46 51 57 60 64 66 66 67 68 68 68 68 67 66 63 63 60 54
21 23 25 24 25 25 23 24 26 24 25 27 26 32 30 29 30 32 34 36 37 39 41 44 48 52 54 58 62 65 66 66 65 66 66 67 67 67 65 65 66 64 56 51
24 26 27 28 29 29 31 29 28 26 26 28 29 29 36 33 34 35 36 38 40 42 46 51 55 59 63 64 63 63 63 64 64 65 67 69 69 67 70 71 65 57 51 43
26 27 28 29 28 29 30 29 30 32 34 39 35 31 37 35 36 38 40 42 45 48 50 55 58 60 59 62 64 64 66 68 69 71 71 72 73 77 72 65 58 50 47 51
28 30 32 31 30 32 31 30 36 44 44 43 35 33 39 37 39 42 44 47 51 54 57 57 60 64 65 66 65 67 73 75 77 81 81 82 78 70 62 53 50 50 52 49
33 37 36 37 37 37 36 36 41 44 43 40 35 36 42 39 42 44 46 51 56 59 59 64 65 65 65 65 67 68 73 80 82 78 71 67 63 58 56 56 55 53 51 48
37 38 38 38 37 37 38 40 39 44 53 48 36 39 40 42 46 48 52 55 57 59 59 57 58 60 61 63 68 70 66 65 63 63 63 59 58 56 56 53 54 56 53 48
34 39 35 34 35 36 36 38 43 40 55 41 31 36 43 48 52 52 55 57 58 57 58 60 63 66 67 67 63 62 63 66 64 64 63 61 59 60 59 58 53 50 51 54
30 31 30 32 37 38 41 43 41 40 45 47 48 35 43 51 50 50 52 55 57 59 62 64 62 62 62 62 65 66 67 67 69 66 66 65 63 57 49 49 50 54 59 58
34 36 33 34 39 42 43 45 44 46 50 55 58 47 45 49 52 55 58 58 58 61 65 66 67 66 68 70 71 73 73 70 68 70 66 61 52 54 50 58 63 69 64 65
34 36 31 33 40 42 46 46 46 49 53 58 68 51 52 56 57 59 58 58 61 64 65 66 68 70 74 77 79 82 78 73 67 63 61 56 59 61 58 58 62 68 64 63
33 35 34 31 32 37 41 43 49 52 62 60 57 54 55 58 59 58 60 63 67 68 68 71 74 75 73 76 74 73 73 73 75 70 58 50 53 51 51 56 59 60 68 73
36 37 40 39 37 39 47 49 50 51 59 69 62 60 62 61 59 59 62 67 68 70 71 70 70 72 75 73 70 72 75 72 69 59 53 45 44 48 52 53 55 59 62 63
39 45 46 45 44 43 47 48 54 57 62 65 67 67 62 62 64 68 69 71 73 75 73 71 72 72 69 71 74 72 71 66 55 50 40 42 47 50 54 58 60 59 61 64
48 52 55 58 52 52 59 51 53 57 63 65 67 64 64 68 71 72 71 73 75 76 74 67 63 68 74 78 77 68 59 46 37 42 42 46 52 55 56 60 63 64 62 53
58 59 66 70 67 66 52 51 53 56 59 61 61 64 67 70 73 74 74 76 77 78 74 69 70 74 73 72 66 56 49 43 44 45 46 53 55 56 61 65 67 64 49 37
54 63 71 76 69 53 51 52 57 59 57 61 66 69 72 73 72 79 80 76 78 76 74 74 68 62 60 65 55 54 48 45 46 48 51 57 58 63 68 73 64 42 37 34
56 62 70 78 84 77 59 56 58 60 67 73 74 78 82 80 84 85 87 89 79 74 66 57 51 48 56 62 56 54 55 55 48 48 51 52 60 69 77 60 39 38 36 43
61 67 72 77 84 72 65 65 67 81 83 81 86 87 88 88 88 88 83 75 63 59 55 51 53 53 53 53 54 58 57 50 48 51 55 60 69 78 58 41 38 41 47 50
57 70 78 80 84 88 72 75 86 79 78 85 87 87 86 85 84 79 64 57 56 55 52 46 41 39 40 43 50 50 51 51 53 60 62 67 79 66 44 40 42 49 54 57
61 63 68 75 70 76 79 84 80 83 85 89 90 89 84 79 67 57 54 53 47 44 42 41 41 39 36 46 53 55 50 54 61 66 69 79 78 50 44 46 50 52 58 64
64 69 74 78 72 79 84 83 83 85 88 86 88 83 71 61 54 49 45 45 43 38 34 34 33 35 38 42 53 70 62 64 74 73 80 88 58 44 42 47 53 58 62 68
71 76 76 78 78 81 82 86 85 87 91 89 78 67 59 49 44 44 42 37 37 37 36 35 38 39 38 43 51 58 66 79 78 79 90 64 43 44 46 51 55 60 66 68
77 76 86 88 86 88 87 85 92 93 83 73 64 59 49 47 46 41 38 39 38 35 36 38 39 43 46 52 58 68 77 81 83 89 68 43 41 46 53 57 59 63 65 68

GFSCGP_prec_cthk_009.txt.gz
RH
18 28 32 23 20 21 16 18 21 22 20 18 22 22 22 21 23 24 25 26 27 29 45 47 40 39 43 47 54 63 63 55 58 63 66 69 69 71 72 70 67 66 64 60
17 25 17 17 19 18 19 20 21 20 19 19 25 26 24 24 26 27 28 29 32 34 38 40 39 40 45 52 55 57 58 61 63 66 72 70 69 71 72 72 70 69 66 67
25 20 17 19 22 20 21 22 24 24 22 21 24 32 27 26 27 28 30 32 35 36 38 41 41 43 46 51 56 60 65 67 68 71 70 71 71 71 72 72 71 71 72 67
20 19 21 21 23 22 27 24 24 22 23 35 26 39 43 35 30 32 34 35 37 39 43 44 48 52 56 60 63 66 69 69 68 69 70 71 74 74 76 77 76 74 75 65
26 25 27 28 26 25 31 26 27 26 25 28 28 24 51 42 38 36 39 40 43 45 48 50 54 58 61 63 65 68 67 66 67 66 70 74 76 79 88 86 76 73 68 59
24 24 26 26 25 24 26 28 27 29 33 37 41 30 48 52 44 38 42 45 48 49 51 53 58 61 64 65 64 66 67 68 68 73 76 78 78 75 71 64 63 61 55 47
28 29 29 28 33 32 30 34 45 50 47 52 42 28 46 40 39 41 46 47 50 53 56 60 64 68 65 66 64 64 68 71 72 72 68 62 61 63 64 63 58 49 46 47
35 43 33 31 33 35 34 35 44 44 46 44 38 34 52 41 38 41 44 48 53 57 59 62 61 62 63 61 63 64 67 68 68 64 63 64 63 65 62 58 55 55 53 50
34 37 32 30 31 31 37 38 31 40 46 43 34 41 48 48 49 46 48 51 56 58 58 59 61 65 60 61 63 61 62 61 62 65 66 68 70 68 65 64 62 52 49 50
29 39 28 29 29 33 36 33 45 43 53 40 35 33 48 58 53 56 53 56 57 59 63 64 63 62 61 63 63 63 65 68 74 76 74 72 73 72 65 60 56 54 53 49
25 30 33 31 35 38 43 47 42 38 43 49 45 40 48 49 50 50 54 58 61 60 63 64 64 64 67 64 66 68 70 71 71 75 76 71 65 63 63 61 61 55 52 47
29 32 32 30 31 32 36 41 41 46 48 51 54 46 50 50 53 57 60 61 61 60 64 65 66 69 70 70 69 68 67 71 72 73 68 65 66 60 63 60 48 46 45 48
29 35 34 34 42 43 40 44 45 47 49 48 66 54 60 64 70 63 62 64 64 68 68 69 71 71 70 68 65 67 68 68 67 65 65 67 64 53 46 39 38 43 48 51
28 31 32 34 33 33 38 40 43 49 56 57 57 59 58 64 65 62 62 65 68 66 66 69 69 69 67 67 67 64 67 68 65 65 58 54 42 39 41 43 48 50 51 54
29 34 36 34 33 34 39 42 43 45 49 58 57 60 63 64 62 62 67 67 67 66 69 67 67 65 62 62 63 70 76 67 67 58 52 49 43 42 45 49 49 51 54 61
32 41 41 38 35 37 40 41 41 46 51 55 58 60 62 62 64 65 67 66 69 69 70 71 67 68 66 62 66 71 68 61 62 57 55 50 48 47 52 51 50 54 59 61
38 41 44 48 41 44 55 44 44 50 54 59 62 60 61 66 70 70 73 72 72 71 72 71 69 65 62 59 59 60 66 66 65 62 61 61 55 56 56 55 55 62 68 68
44 46 54 58 55 66 51 47 47 49 54 54 57 60 66 70 73 74 75 77 72 70 68 65 62 56 53 49 53 57 73 60 68 68 67 68 61 59 57 59 62 71 67 57
43 52 59 63 55 47 48 49 52 53 53 57 64 71 71 72 73 76 79 72 67 64 61 54 53 46 44 48 54 61 61 63 69 73 74 64 60 63 64 64 72 70 59 57
45 52 57 66 72 69 58 58 57 58 66 74 76 74 74 73 75 73 71 67 61 57 52 50 52 51 51 48 47 45 53 68 66 86 61 58 63 68 71 75 77 64 58 57
54 58 62 65 75 63 58 60 62 73 80 82 80 78 79 80 79 73 67 64 57 50 50 53 53 46 43 38 38 42 51 65 73 85 79 73 83 79 77 85 71 58 56 58
49 60 65 69 78 79 65 67 78 77 81 83 81 83 83 81 77 70 61 54 49 45 46 47 44 43 36 38 42 42 46 61 71 86 81 81 94 82 90 79 62 60 58 58
43 47 58 68 66 68 73 77 82 83 85 87 86 90 89 78 73 65 57 48 45 45 41 41 40 38 40 43 44 50 50 60 69 77 83 91 88 92 86 59 55 59 57 60
38 46 60 69 66 70 73 81 85 86 85 81 83 84 77 75 65 57 49 47 43 40 39 37 39 42 51 54 54 58 55 59 67 72 83 88 94 84 49 57 60 59 57 61
43 50 63 69 72 73 77 84 86 85 82 81 79 72 68 59 54 51 47 43 42 40 38 41 47 52 54 57 55 62 64 71 76 81 91 89 79 50 48 53 58 56 61 60
43 56 71 80 79 78 86 89 92 91 87 80 70 65 58 52 49 47 43 43 41 38 40 43 47 51 52 54 60 62 73 80 87 88 84 67 44 43 48 55 56 58 60 59

GFSCGP_prec_cthk_012.txt.gz
RH
20 31 38 27 24 26 28 24 23 31 22 19 17 22 27 24 26 25 25 29 34 40 42 50 54 56 53 54 55 54 64 74 73 64 64 67 68 76 75 74 71 69 68 66
19 29 29 26 16 19 26 24 24 23 20 17 27 26 27 26 28 28 28 29 33 37 41 44 49 50 54 50 51 54 58 60 64 69 69 71 74 72 71 72 72 74 69 76
29 26 15 15 21 20 25 21 30 27 24 20 25 37 32 33 31 32 31 33 34 37 41 45 48 52 51 51 54 57 62 67 70 72 72 73 69 68 67 72 81 77 77 84
23 22 19 22 23 20 29 26 24 21 23 33 32 38 47 45 45 43 36 34 37 39 40 43 47 49 50 55 60 64 65 65 69 70 69 68 66 69 75 77 74 66 61 58
31 25 28 28 28 23 29 27 23 23 26 26 32 34 46 47 49 50 46 42 40 45 49 52 53 55 57 60 63 65 68 67 64 64 64 67 70 69 67 62 58 57 56 57
25 22 24 24 23 21 23 26 26 27 30 41 34 42 59 54 56 59 54 48 45 48 50 52 56 59 61 66 68 70 63 62 63 64 64 63 62 59 58 59 60 61 62 59
28 26 26 25 33 33 29 36 48 64 57 56 50 42 49 49 56 58 55 51 46 49 53 58 62 65 66 62 60 59 58 61 61 63 61 61 61 62 65 65 66 64 61 60
44 50 33 30 32 33 34 35 52 53 63 55 43 35 52 46 49 52 44 48 52 55 54 56 56 57 59 61 59 59 58 58 60 62 62 63 65 66 68 65 65 62 56 51
38 40 29 26 26 29 36 38 27 39 47 44 28 54 58 55 56 53 53 51 56 60 64 66 67 65 62 61 59 57 57 59 61 61 63 63 62 62 64 60 55 53 55 47
29 38 25 25 34 37 31 29 41 53 58 47 39 44 66 63 67 71 59 57 57 56 62 68 66 63 61 61 60 62 61 62 62 63 62 62 63 62 58 56 50 46 39 35
25 33 31 33 32 32 39 43 40 38 46 52 51 41 48 52 57 55 54 56 59 59 58 61 64 65 62 63 63 64 61 63 63 59 61 61 62 59 57 50 40 36 31 26
24 29 35 30 29 28 30 36 38 50 45 53 54 42 48 50 53 63 64 64 66 64 62 63 63 61 63 65 67 64 62 62 62 63 64 63 62 56 51 43 39 34 33 34
25 32 39 37 43 38 33 37 38 44 50 51 61 52 56 63 71 73 67 67 68 63 61 59 60 61 61 62 60 59 61 62 61 59 56 54 51 48 48 41 41 40 41 44
27 27 28 35 33 31 31 31 35 41 57 55 57 55 54 64 73 70 69 65 61 58 59 62 62 61 59 57 54 54 56 57 60 60 58 54 49 44 42 45 42 46 49 49
25 29 30 29 29 30 30 32 35 38 44 52 50 54 60 64 64 63 60 59 59 60 63 66 61 60 55 52 52 51 52 55 63 62 79 70 65 61 49 51 49 51 50 50
28 37 34 33 30 31 30 34 35 38 43 46 52 53 61 62 60 62 61 62 65 65 66 63 59 55 54 52 54 50 52 59 61 58 78 71 63 86 81 77 55 58 56 59
34 37 40 43 36 37 53 43 39 43 49 51 58 57 61 64 65 69 64 64 68 70 65 60 58 60 55 50 43 46 50 52 46 45 59 62 78 93 78 81 65 65 62 70
37 39 45 50 46 51 38 37 41 46 49 53 58 66 71 72 71 69 70 72 74 67 60 58 59 51 49 44 48 43 40 36 39 52 65 50 82 77 86 84 76 62 72 84
38 42 50 56 48 36 38 43 46 50 51 55 63 69 73 74 71 72 74 75 66 62 61 56 47 45 45 49 48 41 36 36 42 46 53 49 91 84 88 92 82 63 85 75
40 46 50 58 59 52 42 50 51 53 60 69 70 74 74 71 73 73 71 63 64 60 54 45 44 47 48 44 41 36 37 39 42 49 50 57 85 96 94 92 68 82 83 59
48 50 54 57 57 50 42 49 53 63 73 72 78 76 76 77 77 73 70 67 58 55 46 44 42 42 39 39 36 39 40 41 47 50 53 69 75 98 92 72 78 83 58 59
45 54 56 56 62 59 49 56 63 67 74 78 79 80 78 76 77 70 68 61 53 48 42 39 38 36 36 34 42 47 46 42 46 50 54 59 63 67 70 81 79 57 55 54
45 43 50 50 49 48 57 63 67 71 77 82 86 79 75 75 70 65 57 53 49 43 40 37 38 35 35 45 51 53 48 47 50 54 63 67 73 81 83 69 47 52 54 55
36 35 46 49 41 46 57 67 75 78 85 85 83 78 79 72 69 60 55 49 44 40 36 37 33 36 39 41 47 48 46 51 55 68 74 80 81 81 53 44 50 52 52 56
37 39 39 44 45 56 66 72 79 84 85 89 88 80 76 72 63 55 44 42 40 39 39 34 38 39 38 41 45 45 50 54 65 75 76 73 74 50 42 43 46 53 53 58
37 38 45 50 56 64 73 83 87 87 90 87 79 76 74 67 50 41 40 38 37 36 34 33 35 38 39 41 44 49 55 62 72 74 71 61 46 42 46 45 48 52 53 58

GFSCGP_prec_cthk_015.txt.gz
RH
33 34 34 31 31 35 35 30 33 31 25 24 21 29 31 31 31 31 27 29 33 37 40 44 48 48 56 73 65 63 64 63 65 66 63 69 71 73 70 73 71 67 66 66
32 32 37 37 29 25 33 31 31 24 22 21 21 28 30 29 31 33 32 34 37 38 41 46 49 57 62 65 69 71 62 60 60 64 67 72 75 74 71 69 65 67 70 70
28 29 21 22 26 21 27 30 32 25 22 19 24 33 32 32 35 40 39 44 39 37 40 43 46 50 56 57 58 60 59 60 62 67 71 72 70 64 60 62 68 72 73 68
27 29 26 21 22 22 26 26 25 22 21 26 30 43 38 37 42 43 47 45 44 44 43 43 50 49 49 50 52 54 57 61 65 68 65 61 58 61 64 66 66 64 60 59
27 25 25 26 26 23 26 25 22 22 25 28 31 43 53 50 49 47 51 50 52 51 47 43 42 43 47 51 54 57 61 64 64 58 53 54 55 56 56 55 57 60 61 63
28 25 23 23 22 23 24 27 29 33 32 43 42 47 58 56 58 55 56 58 61 56 49 46 45 46 49 53 58 59 57 56 58 58 56 55 54 53 54 56 56 56 58 56
29 29 24 28 31 32 29 38 52 58 64 62 48 52 67 63 56 56 58 60 58 56 54 54 52 55 55 54 56 57 56 56 55 55 55 58 58 58 59 58 56 57 53 49
41 50 30 27 32 32 32 34 52 57 70 62 44 56 60 57 59 65 67 65 64 62 61 58 56 60 64 66 64 61 59 59 56 57 56 55 58 58 61 62 62 56 51 45
44 42 29 20 22 31 36 31 29 44 45 51 49 57 62 64 66 66 69 71 73 69 62 61 60 62 63 62 64 63 60 60 59 60 62 64 69 68 65 63 56 50 50 41
37 34 26 31 35 32 30 28 41 46 50 45 46 62 67 64 64 67 67 70 70 62 64 69 69 67 65 64 62 60 61 62 65 63 62 62 64 62 56 53 50 42 37 34
33 33 32 33 29 29 34 37 35 35 47 56 59 52 52 59 63 63 58 60 61 63 65 66 66 62 59 59 57 57 59 59 55 53 54 53 47 44 44 46 42 41 38 29
28 33 39 33 30 27 27 31 35 50 47 61 64 51 44 53 60 64 71 70 66 67 68 65 60 58 58 56 55 54 50 48 46 43 40 42 53 54 57 54 57 67 51 54
27 28 45 40 38 31 28 32 33 44 48 49 60 53 51 57 64 67 72 70 69 66 64 59 61 60 58 57 53 48 46 43 42 46 49 49 60 58 71 76 76 66 73 68
28 25 30 41 30 28 27 28 29 41 56 52 55 50 47 60 60 64 65 65 66 66 64 64 64 61 57 54 50 47 44 43 45 46 47 48 56 51 57 73 73 80 92 79
25 34 30 28 25 27 28 29 30 33 38 49 47 52 56 60 66 69 69 68 68 71 68 64 60 58 53 52 49 43 41 41 37 39 39 43 46 61 75 75 71 95 89 82
25 38 30 30 31 30 30 32 32 34 38 40 46 51 58 60 61 62 65 70 72 72 67 60 56 54 54 51 47 46 41 38 38 38 38 36 48 62 62 70 76 91 87 88
33 36 38 43 35 39 45 34 32 35 40 43 50 53 56 60 63 67 72 74 74 69 61 56 54 54 49 46 45 42 41 41 38 36 32 35 44 50 54 63 86 92 92 80
33 38 42 45 39 40 37 31 31 37 41 44 55 60 61 63 68 71 72 73 70 65 58 56 52 49 45 43 41 40 40 37 33 26 26 29 35 41 48 65 98 96 88 86
36 38 44 50 48 34 35 32 35 39 45 50 57 61 66 71 74 73 71 69 65 60 57 53 49 44 41 37 35 36 34 31 28 30 33 38 41 45 53 76 95 88 86 78
41 42 43 51 51 50 40 38 38 41 52 54 58 65 70 71 78 75 71 65 63 57 53 46 42 38 37 35 35 33 31 31 33 38 45 48 46 54 56 59 78 81 76 66
49 49 49 51 52 43 33 37 37 49 50 58 60 66 70 73 74 75 69 63 59 53 48 44 41 39 37 34 32 32 34 37 39 44 47 50 57 64 72 77 82 73 62 49
43 50 51 51 55 54 34 38 43 43 51 61 66 70 73 76 75 71 67 64 58 52 49 42 39 37 34 32 32 33 35 38 42 45 46 54 65 74 81 84 74 50 43 49
43 39 46 43 42 35 39 43 44 46 55 66 73 76 76 76 77 75 69 62 56 52 44 40 39 36 33 32 33 34 36 37 42 44 49 61 71 74 79 67 46 43 45 49
36 38 44 45 42 44 48 46 47 54 62 71 78 78 82 83 76 70 64 57 53 44 45 40 36 33 30 30 33 35 38 41 45 50 56 66 69 67 56 48 47 42 42 48
33 36 38 41 42 45 48 50 56 62 70 83 84 82 77 76 71 67 58 52 46 44 39 34 29 27 29 29 30 36 38 43 51 56 61 65 62 48 40 43 46 43 44 50
37 40 46 47 47 45 52 58 65 75 84 86 85 79 78 72 67 55 52 44 42 39 34 28 26 26 28 29 32 35 40 49 58 61 63 64 54 45 44 46 47 46 47 53

GFSCGP_prec_cthk_018.txt.gz
RH
23 30 31 34 35 36 36 34 32 34 33 31 34 35 30 30 33 36 38 38 37 38 43 50 56 60 61 71 77 76 81 76 70 72 68 69 75 79 80 78 77 72 73 72
33 33 34 34 32 36 40 37 37 32 30 28 30 32 37 37 39 39 38 39 38 49 50 52 58 67 81 79 75 68 65 69 70 67 74 78 79 79 80 78 74 71 69 71
33 30 31 34 35 36 39 40 37 36 33 27 29 34 36 39 40 41 45 49 51 57 56 60 62 64 63 61 62 60 60 61 67 71 75 77 77 77 73 68 67 68 64 61
28 30 28 27 25 26 29 35 37 34 30 25 29 46 42 45 44 44 45 47 52 59 57 58 57 55 52 50 50 52 56 60 62 63 65 67 62 57 55 56 54 54 54 53
28 30 31 30 27 24 25 25 25 24 25 27 34 44 49 49 48 48 55 58 60 58 59 58 55 51 48 48 49 49 52 55 54 54 51 50 51 52 50 52 52 53 55 56
32 30 26 26 25 25 24 25 31 32 32 40 40 47 53 51 51 58 61 64 60 59 57 51 49 49 48 49 50 49 51 53 55 55 54 53 51 51 53 55 62 64 70 59
30 26 25 26 29 28 28 35 49 54 56 56 47 55 57 56 60 63 65 61 61 60 55 57 57 56 51 51 54 57 59 61 62 57 53 54 57 60 62 64 61 76 74 56
40 40 28 27 32 31 29 33 51 55 62 61 49 60 61 60 62 69 61 59 64 65 68 65 63 65 61 60 60 61 60 60 58 57 58 58 60 62 61 57 55 52 47 42
43 39 26 24 28 33 33 32 32 43 47 52 51 51 53 55 61 64 68 79 75 70 66 62 67 71 72 70 64 63 61 59 57 56 57 57 55 50 46 41 38 38 38 44
40 33 27 30 29 26 24 26 36 40 42 46 48 55 62 61 66 65 60 63 63 63 65 72 74 76 73 68 62 61 62 60 57 55 52 47 41 37 36 42 43 46 50 55
35 29 33 31 29 28 29 31 32 35 43 50 59 51 45 53 55 56 60 60 62 66 74 79 81 79 76 68 63 60 59 56 52 48 44 38 39 40 41 46 49 51 53 67
33 33 40 31 28 26 26 29 33 43 38 52 53 49 47 49 50 55 60 63 68 72 77 78 74 72 66 62 60 56 53 49 46 41 41 43 44 41 45 47 44 50 68 71
30 32 43 39 37 30 27 29 34 37 42 42 50 45 46 50 54 58 62 66 70 74 75 74 72 65 59 57 55 52 49 46 40 36 39 36 37 40 43 43 46 63 81 80
30 31 30 37 30 27 26 27 30 34 47 43 47 40 43 50 52 55 58 63 67 70 71 69 65 63 60 57 53 51 47 40 36 34 33 36 40 42 47 47 48 57 68 80
28 30 27 27 28 27 27 27 28 31 34 41 38 42 44 50 54 56 60 64 67 69 68 68 67 64 59 54 51 45 38 38 38 37 40 41 42 31 31 36 38 44 62 64
28 33 27 26 31 33 27 29 30 30 30 34 37 48 50 53 57 61 63 67 70 72 72 70 64 59 54 51 43 38 37 38 38 38 37 33 26 26 31 32 35 48 58 82
28 35 33 35 37 36 37 31 29 30 32 34 39 44 51 56 60 64 68 71 73 72 69 64 58 56 51 43 38 36 36 36 36 34 30 25 27 31 33 34 44 51 75 84
34 40 41 39 35 35 31 27 28 31 35 37 43 48 53 58 63 67 71 71 72 69 66 63 58 51 44 40 38 36 37 36 32 29 25 29 31 35 35 44 50 55 74 81
35 39 47 41 45 30 29 30 31 33 35 41 46 51 56 60 65 68 71 70 72 71 64 58 54 47 43 41 41 39 36 31 28 29 33 34 36 37 42 53 61 70 72 76
41 40 39 51 39 35 27 31 32 33 40 39 42 51 55 61 71 71 71 71 72 67 63 58 51 46 45 45 41 38 31 31 34 36 35 36 37 42 54 62 72 77 75 63
49 49 47 52 49 39 29 33 35 43 35 40 44 52 58 64 69 72 71 70 69 67 64 55 48 49 48 42 38 34 33 34 35 35 38 39 42 47 61 69 75 79 61 50
43 48 52 53 53 44 29 36 39 34 36 42 48 54 60 68 71 71 71 71 72 67 56 53 50 46 42 38 37 35 34 33 31 33 40 42 47 54 65 72 72 56 50 50
40 34 41 39 38 30 32 33 36 37 41 46 52 59 65 71 75 76 74 73 65 58 53 50 45 40 37 37 36 34 32 29 30 35 44 49 53 59 65 62 54 49 48 47
35 36 41 41 35 36 39 40 43 48 52 56 62 66 72 80 80 75 72 66 60 54 48 42 37 36 35 35 32 31 29 30 35 43 50 53 54 60 58 52 46 46 46 45
37 40 41 44 42 46 46 48 53 57 59 63 69 76 81 77 76 74 66 61 51 47 41 38 36 34 33 31 29 26 27 33 42 53 59 58 58 58 49 53 54 53 46 46
40 41 45 43 42 44 45 50 53 57 64 70 76 76 76 79 76 68 59 51 45 40 39 36 36 34 32 29 26 27 32 37 48 57 63 66 65 59 49 50 53 55 49 47

GFSCGP_prec_cthk_021.txt.gz
RH
31 31 30 30 23 26 24 25 29 29 28 27 30 31 32 29 29 36 39 38 41 42 42 49 50 53 62 73 84 88 89 78 75 75 75 74 74 79 81 80 81 78 79 75
27 28 26 26 31 32 33 32 29 28 32 31 33 36 37 37 37 39 40 44 49 53 58 61 61 70 78 82 77 67 68 74 76 73 70 76 81 79 77 77 77 75 70 65
29 26 29 38 40 39 38 33 35 36 37 37 34 38 40 44 46 47 50 53 60 62 63 63 70 69 68 67 63 62 59 60 64 67 68 68 68 69 69 67 63 58 56 56
32 29 31 34 32 34 37 38 36 38 38 44 36 48 42 46 51 56 55 54 61 63 67 67 64 61 59 58 55 54 57 59 61 60 64 65 66 64 64 63 61 60 63 62
33 34 33 30 27 26 30 30 30 33 39 40 38 44 43 49 54 56 58 60 62 67 63 61 59 58 57 55 56 54 55 55 57 61 60 61 62 64 62 61 60 57 61 61
31 30 29 28 27 26 27 31 35 38 36 43 40 44 49 49 51 57 61 66 66 71 67 61 59 59 58 60 59 57 58 59 61 63 64 63 59 58 58 58 58 58 54 49
31 29 28 27 27 27 27 33 45 49 50 50 41 47 47 47 51 58 64 64 69 68 66 64 70 71 70 66 65 66 65 63 60 57 56 57 56 58 56 53 50 46 42 38
37 34 28 29 31 30 30 35 50 49 57 51 46 54 51 51 55 58 58 57 60 63 73 76 72 69 64 67 66 67 63 56 53 54 55 55 53 49 46 42 36 32 35 39
38 35 24 29 31 31 30 32 34 45 52 55 51 46 50 50 53 55 56 57 63 78 70 62 60 63 69 71 68 64 59 55 55 54 52 48 44 42 38 34 33 33 37 39
42 38 28 29 30 28 26 28 35 40 41 43 45 47 50 48 51 54 58 63 63 61 58 60 65 72 71 72 72 69 62 59 57 52 46 44 43 38 37 36 38 43 44 48
42 35 31 33 31 29 29 28 32 36 42 47 52 46 38 44 46 50 53 51 52 56 62 67 71 74 73 73 72 67 62 62 54 47 42 39 36 37 38 38 41 47 50 54
40 40 42 32 28 25 25 26 28 37 35 49 49 39 34 41 44 46 49 52 55 59 64 68 72 76 77 76 70 69 66 56 50 44 38 36 35 33 31 37 45 50 44 41
37 38 44 38 33 29 28 28 32 32 37 38 46 39 34 39 42 46 49 52 55 60 63 67 71 72 69 69 70 69 61 52 44 41 39 35 33 34 36 34 31 28 29 32
34 35 32 36 30 29 25 26 30 32 44 39 38 31 36 42 45 47 50 53 57 61 65 65 65 66 68 72 69 58 51 45 42 40 38 36 35 33 30 30 29 27 31 37
30 33 31 30 29 25 25 26 28 31 31 35 30 33 33 41 45 48 51 56 60 62 64 65 66 71 75 66 61 55 47 42 41 40 37 35 31 29 30 30 29 27 37 48
33 36 29 31 31 31 27 26 28 28 27 32 31 35 34 39 45 50 54 59 62 64 66 66 70 71 70 65 56 50 47 44 41 38 34 32 31 33 33 32 27 31 41 46
29 34 32 29 36 33 29 27 29 27 27 29 36 33 38 44 50 55 58 61 65 67 70 70 69 69 64 58 53 52 48 44 40 37 35 35 38 38 34 29 29 36 47 59
34 38 36 36 35 32 23 26 27 27 27 31 33 35 37 43 50 55 59 63 67 70 68 67 66 64 60 56 55 50 46 43 39 35 37 40 38 32 32 31 36 45 56 65
34 38 44 41 42 30 25 28 29 30 28 32 33 37 39 46 53 55 61 65 68 69 68 66 66 63 59 55 51 48 44 37 36 36 38 36 33 32 34 38 45 55 62 70
42 38 38 52 38 33 22 27 28 30 37 31 35 36 41 48 58 57 60 64 67 66 66 66 67 59 55 53 50 44 39 38 37 36 35 34 32 35 37 43 52 62 70 74
52 51 47 55 47 37 25 30 31 40 30 32 34 36 42 51 55 56 63 71 71 71 70 71 61 56 55 49 42 38 37 36 35 35 34 34 38 39 41 48 56 64 62 56
50 53 53 54 55 40 26 34 35 31 29 34 37 40 47 57 60 65 67 71 74 73 72 64 59 55 48 40 37 36 35 35 36 34 36 39 43 44 46 51 57 58 56 54
48 40 44 42 38 28 29 29 31 34 36 40 43 49 57 62 65 70 76 76 75 73 69 63 54 46 40 38 36 36 35 36 35 36 40 44 49 49 52 56 56 53 52 55
41 40 42 39 31 33 35 37 38 41 44 46 51 59 64 67 76 84 81 76 76 71 63 52 45 40 39 38 38 37 36 34 33 36 44 50 54 56 58 59 55 50 52 55
40 43 42 44 40 41 41 42 44 46 48 54 60 62 65 74 81 77 77 77 72 62 52 44 42 42 40 39 39 38 34 32 35 37 46 54 59 63 64 63 58 54 55 56
42 45 48 45 41 43 42 44 48 52 55 57 61 67 76 79 78 80 79 72 60 53 47 45 44 42 41 40 37 34 32 33 36 39 50 58 63 69 72 68 61 58 56 57

GFSCGP_prec_cthk_024.txt.gz
RH
40 40 39 36 32 28 25 27 28 27 24 28 34 37 37 33 38 38 40 42 45 47 51 54 56 61 63 67 79 95 90 90 87 82 79 75 75 79 84 79 70 71 68 67
41 40 37 36 33 30 30 30 33 30 30 30 37 38 38 34 37 38 40 43 45 49 58 59 59 64 74 85 89 78 75 73 69 64 67 71 73 66 63 61 60 59 58 55
34 36 33 33 34 34 33 31 33 34 38 38 39 43 42 39 38 39 42 45 49 53 60 64 69 72 73 71 67 64 61 57 60 61 56 56 56 57 58 59 59 57 54 52
31 36 34 35 35 35 40 39 36 35 39 44 39 49 46 46 45 46 49 54 55 57 61 64 64 64 65 61 55 54 55 59 59 57 57 59 60 61 61 58 58 58 59 59
29 29 31 35 34 31 32 33 32 34 37 38 40 46 42 47 49 50 54 55 57 58 58 59 65 64 61 58 60 65 66 64 62 62 62 62 63 63 61 62 62 61 56 50
29 34 32 30 31 27 27 30 33 37 38 44 37 38 40 44 44 49 54 57 56 55 58 69 71 65 64 67 75 70 71 71 70 69 64 64 62 60 59 58 54 50 46 37
32 34 32 30 29 27 28 33 46 49 52 50 39 42 36 39 44 51 55 57 59 60 59 61 65 72 80 76 74 72 72 70 69 66 62 60 58 55 51 46 42 36 32 31
38 34 28 28 28 30 30 34 47 46 57 50 43 47 43 43 46 52 56 58 58 58 61 67 79 78 66 67 69 69 70 69 66 63 57 55 49 46 44 41 38 36 37 36
39 34 28 30 30 33 32 35 38 50 52 56 50 43 43 44 45 48 49 52 55 57 62 65 63 59 61 65 68 69 69 67 64 57 56 51 48 46 41 39 38 37 37 37
35 35 28 29 33 32 34 33 35 41 38 37 42 42 44 40 41 44 47 49 54 58 56 57 59 60 61 63 65 67 68 66 60 61 56 50 46 42 41 38 39 36 37 39
35 39 35 31 32 33 32 30 32 35 41 44 48 41 32 36 39 42 46 49 53 55 56 57 56 59 61 65 68 72 68 65 69 61 52 49 47 43 42 40 36 33 31 29
41 46 47 33 33 29 27 27 28 35 31 46 45 35 28 33 38 41 46 49 52 54 54 56 61 63 66 68 72 65 70 74 63 57 54 51 48 44 40 36 31 30 29 28
41 44 50 38 32 29 28 31 31 31 35 37 45 33 28 30 35 40 43 46 51 54 57 61 63 65 66 66 66 72 72 65 59 59 55 50 44 39 35 30 29 28 27 26
37 41 38 37 29 30 29 30 31 30 40 36 36 26 27 31 34 38 43 48 51 55 58 61 64 66 67 66 70 70 63 62 60 56 52 48 40 35 33 31 31 30 28 29
33 37 37 35 34 28 25 25 28 28 28 32 26 29 26 30 34 37 42 48 53 57 60 62 64 65 65 72 69 61 58 59 57 55 51 43 39 35 34 32 31 30 30 33
35 36 33 36 36 33 28 25 26 27 27 30 29 28 25 28 33 38 42 48 53 58 61 62 65 67 76 69 63 62 63 60 56 52 43 38 37 35 34 32 31 33 34 37
33 35 33 32 36 32 29 23 26 26 25 25 29 24 29 30 33 35 40 46 53 60 62 64 69 73 71 68 66 64 61 58 53 43 38 38 38 36 33 33 34 36 37 41
33 33 35 37 34 32 20 22 24 26 26 26 26 27 30 31 34 36 41 47 55 61 63 65 72 67 66 65 64 61 59 54 44 39 39 39 36 34 33 35 34 39 43 50
35 35 43 40 40 27 20 23 27 30 28 28 28 31 31 34 36 37 42 50 58 62 66 69 70 69 68 65 62 60 54 43 39 39 38 37 35 33 34 35 36 41 49 58
43 40 39 49 37 33 23 24 27 28 36 26 28 32 34 36 43 36 45 55 62 66 66 71 71 70 70 65 61 52 42 41 41 40 39 37 35 34 35 39 41 45 52 56
55 55 48 57 47 37 26 29 30 37 31 27 28 30 35 39 37 41 49 56 62 67 70 72 72 73 70 64 53 44 43 43 41 39 37 36 36 36 38 41 45 49 53 53
49 55 56 57 56 44 30 35 37 32 28 28 32 35 38 41 45 49 54 61 66 75 73 75 77 76 66 54 46 44 44 42 40 38 35 34 35 39 43 47 51 55 58 54
46 42 45 43 40 31 32 32 32 32 34 36 38 40 45 50 54 59 64 63 81 81 81 79 79 66 53 47 46 46 43 41 40 35 31 31 34 43 48 52 56 60 60 56
41 40 41 39 33 34 34 34 36 39 41 44 47 51 52 58 68 69 69 80 86 79 79 79 66 54 49 50 48 45 43 41 35 30 29 32 36 46 54 58 60 63 60 59
40 41 41 43 39 40 39 40 42 42 44 47 50 55 64 70 72 78 83 83 82 85 76 64 55 56 55 51 47 45 41 34 29 29 31 35 44 52 58 62 68 71 65 62
39 42 47 46 40 41 40 42 44 47 50 55 59 62 66 72 81 87 91 87 82 76 61 63 62 56 52 48 45 41 36 29 29 30 36 41 50 58 63 68 74 76 66 60

GFSCGP_prec_cthk_027.txt.gz
RH
45 39 40 35 33 29 28 26 32 31 29 32 34 36 36 37 42 42 41 43 45 47 48 51 55 57 57 62 72 80 87 93 76 77 70 69 74 70 71 65 62 58 59 61
42 41 38 38 36 33 33 31 33 34 34 33 35 39 42 37 37 42 42 44 46 48 53 54 54 57 62 71 80 84 77 67 59 61 63 63 59 57 55 55 58 59 58 56
41 40 39 38 38 37 37 33 36 37 37 35 37 38 40 40 36 38 40 41 44 48 52 54 58 64 69 69 67 63 63 58 56 63 63 60 59 60 58 61 61 60 60 59
37 42 40 40 39 39 42 37 30 34 35 37 36 31 39 43 42 42 43 46 50 55 56 54 57 60 61 62 61 60 57 57 64 66 64 66 67 66 64 64 62 60 59 55
38 35 38 40 39 38 38 35 40 39 34 35 34 34 36 44 44 44 45 48 53 59 55 56 55 57 63 63 59 62 66 67 70 72 72 66 68 68 65 63 62 58 52 45
42 37 32 34 37 36 36 37 35 38 37 35 34 34 32 41 38 44 48 50 55 58 56 57 58 58 59 63 67 76 76 72 71 71 68 68 65 64 63 58 51 45 38 36
36 34 35 33 33 36 33 31 38 39 42 38 36 37 28 30 37 44 48 51 54 55 58 59 59 63 68 66 66 65 63 66 68 68 69 65 61 58 52 45 41 41 41 40
33 35 33 34 32 30 30 30 37 38 44 41 40 40 33 37 38 46 50 52 53 52 54 56 60 63 63 58 59 63 64 65 66 66 63 57 55 52 51 51 49 45 41 40
37 34 31 31 31 30 33 32 35 43 49 45 37 36 34 37 39 44 45 46 48 50 52 56 58 57 56 57 59 61 64 64 65 65 58 59 60 57 55 52 47 44 40 36
35 37 32 31 33 34 32 32 36 38 38 34 31 34 28 32 33 37 40 42 45 48 53 55 55 57 57 59 62 63 64 65 66 61 61 63 61 59 55 50 47 40 32 28
32 36 37 32 31 33 35 34 32 32 35 31 33 22 25 26 29 31 35 39 43 47 52 53 57 57 60 63 64 67 67 66 63 65 72 59 59 55 53 47 37 31 30 30
36 41 46 37 32 32 30 29 27 31 29 38 35 25 21 24 27 32 35 39 42 47 51 54 57 60 62 65 68 69 72 67 72 73 62 56 55 54 48 37 34 35 33 29
36 42 50 41 33 31 29 28 28 29 32 33 42 22 22 25 27 31 36 39 42 46 51 55 61 64 65 67 70 71 71 73 70 62 55 56 54 47 39 38 39 35 31 29
35 40 42 39 33 31 30 31 31 29 34 30 29 22 20 24 26 30 35 39 44 48 52 57 62 65 68 70 71 74 71 69 62 58 56 56 48 43 42 43 38 32 29 31
34 38 40 39 37 31 27 28 31 28 26 28 22 23 20 20 24 28 35 40 43 47 51 56 61 66 69 70 72 70 70 65 61 58 58 50 46 45 45 41 34 30 32 33
36 36 36 38 38 35 31 27 26 27 27 26 26 24 21 22 25 28 32 37 41 45 51 56 60 65 67 72 68 67 64 63 60 59 53 48 45 47 43 35 32 33 34 33
36 37 35 34 35 33 32 25 24 24 24 23 27 21 25 26 28 28 32 36 39 45 51 57 61 65 69 68 63 65 68 66 62 56 49 46 47 42 37 34 34 33 33 35
34 34 34 36 33 32 20 22 23 24 23 23 23 25 28 29 29 28 31 32 38 45 52 59 62 67 68 64 67 72 69 63 58 49 46 45 43 39 37 35 33 33 34 37
35 35 39 38 34 25 18 21 25 28 23 23 25 28 32 34 33 30 31 34 40 49 57 61 62 68 65 67 73 72 65 59 49 45 45 45 41 39 36 33 33 35 36 41
43 40 40 44 37 36 25 24 28 29 33 25 27 31 35 35 38 31 32 38 47 56 61 63 65 67 70 75 75 70 59 50 48 48 48 45 41 36 35 34 35 35 39 44
53 53 47 50 47 37 29 31 33 36 32 28 29 31 35 36 34 35 40 46 53 57 61 66 68 78 79 81 75 58 50 50 51 50 46 41 35 33 34 34 36 40 45 49
44 52 54 53 51 45 30 34 36 32 30 30 32 34 37 38 41 47 51 57 61 65 69 71 81 84 84 75 59 50 54 54 51 47 41 37 32 30 32 34 41 46 50 56
42 40 43 40 37 31 32 33 33 34 35 36 39 43 47 50 54 58 62 70 74 73 83 78 84 76 69 58 57 62 56 52 47 42 38 33 31 34 35 38 46 51 54 59
40 40 40 39 34 35 36 37 38 39 42 44 47 49 51 54 60 66 71 74 76 80 93 81 76 76 65 69 62 58 53 49 41 37 33 33 36 35 36 43 51 56 60 64
40 41 42 42 39 40 39 40 42 44 46 47 50 54 58 64 69 74 75 81 84 88 85 81 73 73 70 62 59 54 48 42 37 35 35 37 38 36 39 48 55 61 68 71
41 43 48 48 42 44 45 48 51 53 57 61 62 63 65 68 72 74 83 88 93 88 84 79 74 67 63 61 52 46 40 37 36 36 38 40 38 40 46 52 59 68 74 75

GFSCGP_prec_cthk_030.txt.gz
RH
49 44 42 37 38 34 32 32 35 31 26 25 25 23 38 45 44 46 44 46 46 47 50 49 49 54 62 66 69 77 80 89 82 74 68 65 64 64 66 62 56 54 55 57
43 45 40 39 36 33 30 29 33 40 39 34 33 31 40 39 43 43 43 41 43 47 50 50 53 59 62 68 76 80 81 75 72 69 60 60 59 63 64 63 63 63 65 64
49 43 44 41 37 36 37 38 36 39 37 36 34 36 36 36 36 36 39 40 41 45 46 50 54 58 66 72 77 73 73 72 66 60 64 66 68 68 69 67 69 67 66 65
44 44 42 40 39 38 38 36 35 37 38 39 37 37 35 35 37 36 37 38 41 43 50 54 60 63 65 62 67 75 67 62 62 66 70 70 68 70 70 70 71 70 68 64
40 42 41 40 41 37 40 39 37 32 32 33 33 33 42 38 37 40 40 40 45 49 55 62 60 58 59 56 56 61 62 64 65 65 66 65 69 72 72 70 72 69 65 54
43 39 36 35 40 39 39 39 36 39 35 37 33 29 29 34 31 36 42 41 45 50 58 59 54 58 57 56 58 58 59 58 59 61 65 69 71 71 66 67 64 59 54 53
45 43 41 36 34 38 39 37 37 37 35 31 30 27 21 26 28 33 38 42 48 52 54 54 55 54 55 58 61 60 59 61 64 66 66 65 66 64 62 61 57 54 55 56
42 41 37 36 38 35 32 34 35 28 32 32 32 30 31 29 31 36 43 45 48 49 50 52 54 57 59 60 60 58 59 63 65 62 58 64 60 63 66 58 56 52 53 51
36 35 33 34 34 32 32 29 31 34 39 39 29 28 28 29 32 36 41 43 47 47 49 52 55 59 59 59 57 58 62 63 62 58 65 61 66 68 59 53 48 51 48 44
33 35 32 32 31 31 29 29 31 34 39 29 22 23 23 26 28 32 36 39 42 44 48 53 58 59 57 56 57 61 63 61 59 62 67 72 67 62 55 52 51 47 43 39
30 31 35 32 31 31 32 30 31 30 30 25 22 17 18 20 23 28 32 37 41 44 46 50 55 56 56 58 61 64 63 62 67 72 74 66 66 59 56 51 47 44 40 39
29 34 37 36 33 28 29 32 28 26 27 31 29 18 16 18 20 25 30 34 40 45 46 51 53 54 55 59 64 64 63 68 71 71 64 68 59 58 52 47 45 43 44 40
29 34 39 38 37 31 31 29 25 25 26 27 38 18 17 18 19 21 26 33 38 41 45 50 53 54 57 62 66 64 66 74 79 64 68 62 58 53 46 48 47 48 43 38
30 32 35 37 38 33 32 28 25 23 28 24 23 16 18 18 18 20 22 28 33 39 44 49 52 55 59 62 65 61 70 77 70 63 61 59 56 48 50 50 50 45 41 40
34 32 33 36 39 35 30 26 26 25 24 25 16 18 15 18 18 21 22 27 32 38 42 47 51 54 59 63 62 66 74 78 63 61 60 58 50 51 51 53 48 45 42 40
36 34 36 39 39 36 32 27 25 26 24 23 20 18 18 20 21 21 23 27 33 37 41 44 48 52 59 61 63 72 75 63 60 61 61 50 51 52 54 52 47 44 41 45
39 37 35 33 34 33 39 28 24 23 23 23 24 20 21 22 24 25 27 28 31 34 37 41 46 54 60 62 68 71 64 63 65 65 56 54 52 56 54 49 47 44 43 42
39 36 37 38 36 49 20 20 21 22 21 21 22 22 24 26 28 30 29 31 30 33 38 43 50 58 64 65 67 69 66 65 69 64 58 55 61 57 52 48 45 45 39 39
34 33 41 47 32 23 17 19 21 26 23 25 24 24 27 30 33 33 30 31 33 37 43 50 57 61 63 64 75 65 72 77 69 60 59 63 59 55 50 47 46 41 34 42
40 37 37 43 53 57 26 26 28 29 30 25 25 28 31 34 36 33 33 33 37 43 51 55 60 62 65 70 64 84 81 75 62 61 64 60 56 52 47 44 36 34 37 45
50 51 53 47 52 36 30 29 30 33 31 28 28 28 31 34 35 38 39 44 50 54 57 61 66 67 66 75 89 84 72 61 63 64 60 58 53 47 41 39 37 39 45 46
41 48 54 48 56 52 28 31 35 32 30 30 32 37 38 41 44 48 51 53 56 58 65 73 70 72 89 88 84 73 65 72 65 60 57 50 45 44 45 41 42 46 46 48
39 37 39 37 36 31 32 33 34 35 36 37 40 43 46 48 49 52 55 61 65 70 70 75 84 87 86 81 70 70 75 64 60 52 48 46 47 48 46 44 46 48 46 51
35 36 37 36 33 35 36 37 38 40 41 42 43 44 48 52 58 61 64 68 70 73 76 87 93 87 85 77 79 69 65 60 53 48 47 49 49 48 43 43 47 48 51 57
38 40 40 39 37 38 39 42 44 46 50 53 56 60 64 66 67 66 66 69 76 83 91 90 89 83 82 76 72 67 61 53 50 49 47 49 46 43 40 48 48 49 56 63
45 44 45 45 44 45 47 52 55 59 62 65 66 66 68 68 70 74 81 85 91 93 92 89 90 86 80 73 65 60 55 51 48 46 47 45 44 43 45 48 47 51 60 64

GFSCGP_prec_cthk_033.txt.gz
RH
44 48 48 42 43 49 41 37 29 32 27 32 32 26 24 28 38 48 55 53 53 51 52 54 54 57 65 67 70 74 74 75 81 78 73 70 72 72 66 62 58 57 57 58
47 51 51 46 44 38 36 33 40 33 28 26 26 31 26 39 39 43 44 46 48 53 53 58 59 63 65 67 69 71 76 79 78 72 71 70 63 62 64 59 58 60 61 63
55 59 48 40 40 37 36 37 38 36 34 29 38 38 27 30 38 39 37 42 46 49 52 54 58 61 64 67 72 76 82 75 79 75 65 64 67 63 60 62 65 67 66 66
52 49 44 46 43 40 43 34 36 37 34 33 30 38 43 37 29 37 41 44 44 48 52 55 59 58 64 68 71 71 68 68 66 62 63 62 63 68 68 68 68 67 66 68
57 49 43 46 49 39 52 36 37 39 35 49 42 32 47 57 43 35 37 40 45 49 49 51 55 61 68 64 66 69 66 63 58 56 60 61 65 68 68 69 69 69 71 67
57 45 45 52 37 39 34 35 39 37 39 42 32 42 34 47 45 43 38 41 44 48 48 52 56 60 58 61 64 66 57 58 59 57 58 62 65 65 67 71 66 66 67 60
44 45 38 36 33 32 38 42 46 50 45 41 38 34 31 34 35 39 37 39 45 44 45 47 50 49 54 59 62 61 57 57 59 58 60 62 61 59 63 66 66 71 60 58
49 47 38 36 39 46 36 43 49 45 38 33 40 28 33 29 23 30 38 41 45 44 45 45 47 50 52 57 58 56 57 58 59 60 62 60 59 63 68 70 67 57 60 60
46 51 41 35 36 33 42 35 37 41 39 33 20 32 30 23 25 30 37 40 45 45 45 46 48 51 53 56 58 59 57 58 60 61 61 61 61 71 83 65 58 61 56 50
48 49 41 33 33 30 31 40 33 31 42 36 29 27 34 29 21 26 35 36 41 44 44 45 47 51 54 57 59 58 57 58 60 60 61 63 70 77 68 56 58 54 48 47
42 36 48 34 31 41 39 30 27 34 39 36 27 29 23 16 19 22 28 36 36 40 42 45 46 49 52 55 57 57 57 59 62 63 64 70 82 77 63 58 56 49 47 47
37 39 48 42 36 31 32 36 36 34 35 29 34 21 19 15 18 22 24 29 33 35 38 42 45 49 52 55 56 56 57 61 65 68 65 75 81 65 55 56 51 51 51 51
32 27 42 44 32 28 26 25 28 30 30 27 36 25 23 18 16 19 22 26 31 34 36 40 44 47 52 54 57 57 60 63 64 71 67 68 73 65 56 53 54 55 57 56
27 26 39 42 48 43 36 28 28 28 29 24 24 24 24 22 21 20 22 24 30 33 37 42 46 48 53 54 56 58 61 65 69 68 69 76 70 61 56 57 60 61 61 58
30 31 32 33 35 38 35 33 30 27 24 27 23 22 17 21 21 20 23 24 27 33 33 38 44 49 52 53 56 59 61 66 73 74 75 69 63 59 56 62 64 67 62 58
35 36 35 35 32 32 36 33 29 26 23 23 23 23 23 22 21 22 22 26 29 35 34 38 45 48 50 52 55 58 62 68 75 74 70 65 63 56 62 65 72 65 60 56
41 39 38 33 33 33 38 29 26 26 25 26 27 25 26 26 25 25 27 30 29 31 36 40 42 46 50 51 53 58 68 71 70 72 70 72 65 62 70 74 67 62 59 54
41 42 44 41 41 52 22 24 22 23 23 24 26 23 25 26 29 29 31 31 35 34 35 40 44 46 50 55 58 65 66 69 79 71 78 70 67 72 74 69 65 59 55 60
39 41 45 52 34 27 23 21 23 24 24 27 26 25 27 30 28 30 38 33 31 34 38 42 47 52 56 57 63 67 73 72 74 76 76 69 70 76 72 66 58 60 60 57
39 39 39 39 53 57 33 27 25 27 32 30 28 28 28 29 32 36 39 37 35 37 43 48 54 57 59 64 68 70 72 80 80 75 70 77 77 67 63 62 60 61 58 53
52 52 52 47 52 38 31 29 28 32 38 33 29 28 29 32 37 39 38 40 43 46 49 54 59 65 67 69 72 84 87 88 80 74 78 72 67 66 61 59 57 56 53 53
43 48 53 50 58 52 29 29 32 38 31 32 32 34 37 39 43 43 43 46 51 59 62 66 67 68 69 78 89 95 88 79 81 81 74 68 63 59 58 54 53 49 52 55
41 38 43 37 42 39 33 32 32 33 33 36 37 39 42 43 47 54 56 60 63 67 63 65 71 79 87 94 95 87 83 87 75 74 70 63 59 56 52 54 53 54 52 45
37 36 36 34 33 36 35 36 37 38 40 42 44 47 50 55 60 66 65 65 64 62 70 80 87 92 93 90 86 84 84 80 75 66 63 58 57 57 55 53 51 53 44 46
41 38 38 39 37 38 41 46 44 45 48 53 57 62 64 66 67 68 66 66 72 79 84 90 93 93 92 91 90 85 79 72 68 65 60 61 58 52 55 54 53 45 43 48
40 44 46 47 44 44 47 51 51 55 59 62 65 66 64 67 70 74 80 83 88 91 92 92 93 92 89 87 82 77 76 69 62 58 57 53 53 52 52 48 44 44 45 50

GFSCGP_prec_cthk_036.txt.gz
RH
40 41 46 48 52 53 48 45 38 35 30 31 47 44 33 23 33 48 54 55 54 47 47 44 45 48 55 58 62 64 64 66 68 73 74 68 64 60 60 59 55 47 46 50
54 47 60 53 50 51 47 42 45 37 24 24 35 33 31 21 25 34 45 52 52 46 46 46 47 49 53 54 60 61 67 68 74 78 71 62 58 55 52 46 46 51 53 57
65 50 54 52 46 46 39 40 43 41 29 23 38 26 35 24 30 34 37 40 42 45 47 48 49 51 56 59 60 62 71 73 73 75 61 55 51 50 47 50 52 56 58 60
61 55 56 49 45 42 43 49 44 38 42 32 35 46 38 34 34 35 37 36 38 44 49 48 50 52 56 57 60 68 70 70 66 68 58 54 50 49 55 58 58 61 62 61
69 59 53 47 46 50 45 41 35 35 37 41 40 45 41 44 42 36 40 39 42 45 49 47 49 53 54 57 67 67 62 64 73 62 54 54 59 59 62 64 66 69 63 63
51 58 58 56 47 41 41 32 32 32 39 61 53 54 54 49 51 52 50 45 42 43 46 51 54 53 52 55 57 61 73 67 62 55 57 58 57 60 62 63 62 67 67 71
42 48 52 41 42 30 31 41 48 71 67 48 37 37 44 45 50 53 51 47 40 43 45 48 50 53 58 58 60 62 62 59 58 56 54 55 58 61 62 59 63 67 78 74
43 55 43 33 37 57 45 32 50 72 89 55 45 40 35 31 32 32 39 41 42 44 47 50 51 55 55 53 57 58 57 57 56 55 53 55 56 59 59 59 64 80 74 58
55 65 58 48 37 30 41 39 42 52 58 44 24 20 31 38 26 21 31 35 42 44 47 48 47 46 48 51 54 56 54 55 54 54 54 55 59 59 59 66 74 76 65 59
56 75 61 48 37 26 25 33 38 33 38 39 36 33 48 45 32 21 35 34 38 41 44 42 41 42 44 48 49 52 54 57 56 55 56 58 61 64 65 68 72 70 63 53
41 61 63 47 34 26 38 32 27 30 48 53 43 42 35 31 21 19 27 36 33 37 37 37 38 41 44 48 50 52 57 62 59 56 57 60 64 67 72 66 67 70 70 57
33 40 47 40 39 30 36 48 43 51 33 39 42 36 30 24 16 20 21 33 35 33 36 37 38 41 43 48 51 53 59 61 60 61 59 64 71 74 76 64 75 74 62 48
43 36 40 40 47 34 28 24 26 38 39 39 52 31 27 23 22 21 21 25 32 33 36 39 43 43 45 47 51 55 58 59 60 60 63 68 73 74 86 70 78 70 53 55
33 35 30 41 42 52 56 40 30 33 45 34 29 24 32 28 27 25 24 23 28 36 38 41 48 52 52 50 53 57 59 57 59 60 68 70 71 84 77 76 72 54 61 68
27 26 26 30 40 51 48 45 41 36 35 36 27 26 25 25 28 29 27 27 27 26 40 45 50 55 58 54 57 59 57 55 56 62 69 74 75 83 74 71 65 63 74 69
29 32 34 37 35 36 34 35 35 34 32 30 26 28 28 31 28 26 27 27 26 29 34 45 43 46 52 57 57 56 57 56 59 70 74 79 79 73 80 75 60 74 79 78
42 42 44 42 35 33 35 26 26 28 27 29 30 29 29 27 28 29 26 28 31 30 34 40 44 45 49 56 58 59 60 61 63 71 79 76 76 85 78 67 77 80 73 69
51 49 51 51 45 48 25 25 24 24 24 26 30 31 28 29 30 29 29 31 32 37 36 35 40 45 49 57 62 63 63 66 73 77 78 81 87 84 74 79 80 76 73 69
49 49 54 62 44 31 28 25 24 25 26 27 27 26 27 29 30 32 33 35 35 33 34 37 40 47 54 59 61 63 71 73 75 80 88 90 85 80 87 83 81 74 67 68
36 43 51 48 55 55 37 30 27 25 34 32 31 33 31 28 34 38 38 38 39 40 41 43 48 55 62 65 68 72 75 75 80 86 87 87 88 86 82 77 73 71 68 66
53 52 56 53 58 45 37 33 30 37 43 37 37 33 31 33 37 41 41 43 45 46 49 54 62 66 66 66 68 73 78 84 92 92 91 91 85 82 73 72 70 66 62 61
46 54 58 57 64 58 33 32 34 41 37 33 33 32 35 36 36 40 47 48 51 60 62 62 61 63 68 76 81 85 88 91 92 94 86 85 79 72 70 70 69 62 61 58
43 39 46 42 48 38 35 34 35 35 34 35 36 38 40 41 46 51 59 63 65 61 58 61 67 76 83 87 91 95 93 93 91 90 85 75 74 74 73 67 60 57 55 50
39 38 38 38 33 38 38 37 39 38 41 41 43 46 49 53 59 64 65 61 58 63 72 78 83 86 90 90 91 93 93 93 90 83 76 77 72 64 58 54 52 49 50 48
43 40 36 36 36 38 42 47 44 46 46 47 52 53 56 61 62 59 60 67 76 79 83 86 89 92 92 91 90 89 86 78 72 68 61 55 50 48 46 43 43 43 42 47
40 40 43 47 45 44 51 48 48 48 50 52 56 60 61 58 61 66 73 78 83 86 89 89 88 87 84 80 73 66 61 60 54 46 43 40 38 39 40 39 38 41 43 46

GFSCGP_prec_cthk_039.txt.gz
RH
49 45 50 48 48 44 48 51 47 44 41 39 39 40 34 28 37 39 42 39 40 37 37 40 40 39 43 48 53 56 57 59 69 70 77 75 66 56 55 55 55 50 46 43
63 55 55 52 48 50 53 48 48 41 37 31 39 41 33 30 28 33 38 42 42 40 37 37 40 43 42 46 50 54 66 71 73 73 71 70 61 55 53 51 44 42 45 49
56 58 57 58 56 54 49 51 46 43 36 25 35 38 33 29 29 30 37 40 39 39 37 37 39 42 44 47 51 54 63 73 73 69 70 69 56 49 46 42 42 47 51 51
55 58 57 59 52 50 47 46 49 45 46 40 34 47 42 39 31 30 36 39 39 43 42 44 46 46 46 49 55 58 65 68 67 69 71 57 51 44 42 45 48 53 55 56
55 58 57 56 52 47 49 46 46 46 46 45 39 43 42 48 47 47 44 42 42 43 43 42 45 49 50 50 57 57 61 60 64 64 58 57 49 48 48 50 51 53 56 57
46 49 55 54 47 47 41 38 37 42 46 51 42 50 50 42 45 46 49 46 43 45 46 48 52 46 50 52 53 58 57 57 58 61 60 57 54 51 50 53 58 62 64 63
50 51 52 49 43 43 38 42 54 58 64 57 51 56 49 41 36 34 35 39 44 46 50 53 55 52 51 50 50 53 54 57 63 63 62 57 54 54 55 60 63 64 62 60
50 57 56 47 51 58 45 43 64 69 75 62 52 55 45 42 40 38 35 36 37 43 49 51 48 50 46 44 45 51 57 58 57 59 60 59 56 54 58 61 63 66 66 69
52 57 61 49 53 55 46 46 44 56 61 67 44 38 39 35 41 46 33 30 38 42 40 39 41 40 43 48 51 52 55 57 57 57 58 58 58 61 66 67 68 63 77 79
45 54 56 53 52 40 34 41 52 46 46 43 40 43 55 49 50 39 34 35 35 33 35 37 40 42 45 50 55 54 56 57 56 56 59 63 62 65 70 75 77 80 72 86
47 47 57 59 55 40 37 35 31 30 42 53 61 49 44 41 33 32 33 30 31 32 34 35 37 38 37 38 41 48 55 57 59 59 63 64 66 69 78 77 73 73 82 88
44 48 63 54 41 39 33 39 53 52 36 46 50 40 35 35 35 32 26 31 32 35 36 36 36 35 34 36 38 43 52 59 61 64 65 66 67 72 76 72 75 79 84 86
35 39 53 51 51 44 41 33 34 42 45 45 49 41 29 31 29 30 26 26 33 37 38 38 38 37 38 42 49 57 56 59 65 66 66 67 69 72 72 74 83 75 80 72
35 36 38 39 32 41 45 53 39 30 47 40 42 36 30 32 32 31 27 28 31 34 36 40 42 45 52 59 71 79 76 70 72 63 62 64 66 72 73 76 78 85 78 70
37 34 31 28 27 38 42 54 47 42 40 44 38 36 25 37 35 34 33 33 32 34 38 40 45 58 63 67 68 73 78 78 66 61 61 64 70 73 76 82 82 82 81 75
30 33 27 29 25 33 37 47 44 41 38 37 38 38 36 36 35 32 31 30 32 34 33 34 45 53 60 61 63 69 70 67 66 65 66 69 72 81 86 82 90 85 85 87
28 30 37 37 32 31 34 26 26 26 34 34 38 37 36 36 33 31 31 30 29 29 31 34 42 47 49 50 49 58 69 69 72 77 77 79 81 82 84 93 91 89 90 87
44 45 53 52 43 40 25 25 25 29 31 32 32 33 33 33 33 31 32 30 30 32 33 33 34 37 41 46 56 65 70 73 75 79 80 84 88 93 92 92 91 92 89 87
55 65 62 57 53 38 32 28 27 28 31 28 28 30 32 32 32 34 33 34 34 33 36 38 38 40 45 53 59 67 74 78 78 81 87 93 95 94 95 93 91 85 81 83
49 52 56 59 56 51 38 32 29 29 40 33 31 32 33 32 39 39 36 35 38 40 42 42 43 47 55 61 64 66 69 77 84 87 95 97 96 96 92 86 81 79 80 76
52 54 55 59 58 48 37 34 32 39 43 36 34 34 33 32 35 37 40 41 39 43 46 53 60 61 60 63 70 79 83 87 92 97 98 97 94 90 83 79 76 74 68 64
50 60 60 64 64 55 35 33 35 38 35 35 34 34 34 34 36 40 42 44 46 51 58 62 64 68 76 80 83 87 89 93 94 96 92 89 84 76 68 66 64 57 52 49
46 42 46 45 47 36 32 33 35 35 36 38 38 36 36 39 44 46 48 52 56 58 57 63 71 78 83 87 89 92 94 92 87 84 76 63 53 50 53 52 46 42 40 39
39 38 42 40 39 37 38 36 36 34 36 38 39 40 42 45 50 54 58 58 59 64 67 70 74 78 82 85 84 79 77 71 64 57 49 45 41 36 36 34 31 32 36 39
41 40 40 40 43 42 44 43 43 43 41 43 44 45 48 52 57 60 61 65 69 70 72 76 80 79 76 73 70 62 48 37 31 27 26 25 23 25 26 28 32 37 42 46
41 41 40 44 38 38 46 45 45 47 50 49 49 53 57 59 59 61 66 70 73 78 80 76 69 64 59 50 37 28 24 22 21 20 21 21 24 27 30 33 34 42 47 52

GFSCGP_prec_cthk_042.txt.gz
RH
45 42 45 48 48 52 47 46 50 49 46 47 44 43 35 34 42 47 50 49 48 48 44 44 46 50 49 48 44 41 44 47 53 63 63 63 64 58 49 47 45 47 47 48
55 48 48 50 53 48 48 52 52 46 44 43 42 43 46 40 34 41 43 43 46 46 45 45 44 45 44 45 47 45 48 52 60 69 65 64 64 58 52 48 49 49 46 42
53 49 44 49 49 54 52 52 51 47 46 42 40 38 39 39 32 44 44 38 40 40 43 41 41 40 39 42 47 50 59 63 68 67 64 71 66 62 55 50 47 47 45 47
49 47 50 55 57 55 50 47 47 46 47 46 40 43 37 32 28 38 54 43 37 39 42 44 46 45 41 42 45 51 63 64 65 63 67 66 65 61 54 51 47 46 46 50
46 51 49 52 54 50 49 47 51 50 47 46 42 41 36 35 35 39 45 47 41 40 41 42 45 45 46 46 50 58 59 61 61 62 64 67 65 58 54 46 46 48 52 56
48 48 50 52 53 52 51 52 51 52 51 52 49 44 46 38 33 39 40 44 44 42 48 49 46 49 51 52 53 63 62 61 63 64 65 65 61 57 49 48 50 55 58 60
50 52 49 50 54 50 48 47 53 56 61 51 50 49 46 46 41 36 39 42 43 45 47 48 48 50 54 52 59 60 58 60 63 62 62 62 60 55 53 55 58 61 64 67
57 57 49 50 51 50 47 45 55 50 59 53 50 49 47 40 41 37 36 33 35 35 41 46 48 53 55 55 61 57 56 58 60 59 65 60 57 62 67 68 68 76 83 84
55 57 53 51 49 52 49 47 46 61 61 63 53 40 36 39 36 35 41 26 30 32 38 42 46 50 52 48 53 50 50 53 57 65 67 63 71 73 72 77 83 85 88 79
49 54 52 50 49 47 47 44 54 58 54 56 39 39 46 42 43 43 32 26 28 32 36 39 41 40 44 45 47 47 49 55 60 59 61 68 76 79 81 86 88 89 83 82
46 46 49 48 47 51 48 41 34 43 53 50 55 44 42 39 34 36 35 31 23 27 28 28 28 32 36 40 44 46 48 54 61 63 72 73 76 84 86 85 84 82 71 86
48 53 54 47 42 51 47 40 44 58 41 45 52 42 34 40 37 37 37 36 31 30 29 28 29 30 31 35 39 42 46 50 59 68 69 73 73 73 75 69 71 81 91 77
43 51 58 46 52 46 45 40 47 51 61 49 56 42 31 29 32 34 34 32 32 31 34 36 39 38 36 39 48 50 55 68 74 80 86 84 78 75 71 73 75 69 74 78
49 48 42 43 47 47 49 50 52 47 52 45 45 35 33 33 33 33 35 30 30 35 39 41 44 44 43 53 59 62 75 78 81 80 81 81 81 78 71 69 71 74 77 79
54 46 39 34 34 35 36 38 48 52 47 45 34 36 32 30 35 35 34 32 31 35 40 42 46 43 49 60 60 65 71 76 82 79 75 81 83 81 77 78 75 80 85 87
51 46 42 39 35 33 34 31 32 46 50 43 41 40 37 38 35 32 33 34 35 36 37 40 38 41 45 51 60 68 77 82 76 72 80 83 79 77 78 79 85 91 93 91
45 44 42 40 35 31 36 24 30 30 44 41 47 44 41 39 38 37 39 39 39 39 36 33 33 34 39 47 52 62 58 65 74 81 77 78 78 78 86 91 93 92 93 92
43 45 43 45 35 44 27 21 21 24 25 26 30 36 35 38 40 39 39 37 37 36 34 33 31 32 37 41 45 51 60 69 74 74 75 79 83 87 90 91 95 96 95 91
53 58 60 54 53 42 30 26 24 28 35 34 35 37 38 39 39 41 41 40 38 36 35 32 34 37 40 45 52 61 65 67 72 79 85 86 91 98 96 97 96 90 80 74
50 63 62 72 61 54 34 31 30 31 44 36 36 37 36 34 42 44 42 40 36 33 34 36 39 43 50 58 61 62 66 73 80 85 88 92 96 97 89 82 70 62 57 54
54 59 59 68 62 49 33 37 35 38 36 38 39 39 39 39 38 36 35 33 34 35 39 43 49 54 58 60 64 71 79 84 91 96 97 97 89 85 71 58 50 42 34 26
39 56 62 65 62 48 35 36 37 38 40 39 37 37 36 33 33 34 35 38 42 46 50 55 58 59 61 68 72 80 89 94 94 93 85 77 65 52 41 26 22 21 21 24
50 43 48 50 49 40 36 34 34 33 33 35 36 39 35 35 36 38 42 47 51 56 59 60 62 68 73 75 78 85 83 82 76 66 57 44 31 21 16 17 17 19 22 26
40 38 41 40 44 38 36 35 35 35 36 38 39 40 38 39 42 46 50 54 55 57 61 66 69 73 75 79 79 74 65 55 47 36 23 17 14 15 16 19 21 24 28 32
35 37 40 49 48 44 43 39 37 38 40 43 43 43 44 44 48 53 56 58 59 65 69 73 75 76 74 68 59 50 43 32 21 16 16 16 17 19 21 25 29 32 34 39
36 37 40 45 42 42 45 45 46 46 49 49 48 49 49 52 56 57 59 64 69 71 73 73 69 66 59 50 39 29 22 18 17 17 19 20 22 26 28 31 32 37 41 43

GFSCGP_prec_cthk_045.txt.gz
RH
38 38 37 38 44 46 47 49 52 50 47 50 49 49 45 47 43 45 49 51 50 47 47 49 47 49 51 51 47 47 46 47 56 62 71 70 65 65 61 53 50 51 53 48
44 46 39 41 45 42 42 44 47 46 49 47 48 49 47 51 43 39 40 47 50 51 50 48 46 48 47 46 48 45 44 49 60 65 72 65 65 68 63 60 54 52 50 46
47 44 43 45 49 44 42 46 51 53 48 47 39 44 43 42 44 43 40 39 44 46 47 47 45 45 45 46 49 48 49 59 60 65 67 67 71 67 65 61 55 49 45 47
46 43 47 48 51 50 50 50 54 52 48 50 43 47 38 38 38 36 41 43 39 42 48 49 50 52 49 48 50 51 56 57 62 66 67 68 70 75 76 65 58 51 51 47
45 46 48 51 53 55 54 49 50 48 50 49 48 47 38 36 33 31 39 49 49 46 45 46 45 47 49 57 58 55 59 66 65 63 65 68 70 67 64 62 57 52 49 49
44 48 47 48 51 50 49 49 52 55 54 54 50 50 43 42 36 35 41 45 48 47 49 51 56 56 54 57 60 60 64 70 65 63 62 63 67 65 71 60 53 51 54 57
44 51 48 50 52 52 50 52 57 58 62 55 51 49 43 39 40 36 34 36 36 42 47 52 52 52 54 56 59 62 64 66 63 57 60 61 66 65 66 63 59 62 70 75
48 52 49 50 51 53 51 51 57 50 59 50 45 45 38 39 41 36 33 30 30 35 41 45 50 45 49 56 63 63 67 69 67 56 56 62 66 74 66 70 75 85 93 86
48 51 49 52 55 51 47 49 44 55 60 63 50 42 36 37 41 40 36 32 27 31 37 37 42 46 49 52 59 60 63 58 57 57 60 61 68 73 73 81 86 95 91 89
42 52 50 52 52 50 50 47 47 53 50 54 47 41 44 42 37 34 32 36 26 27 31 34 38 41 44 50 55 52 52 54 55 55 60 60 66 70 82 88 94 91 87 96
39 46 50 49 51 46 49 50 45 44 54 59 59 41 34 36 29 31 36 30 26 23 25 28 28 30 33 35 38 40 44 44 49 53 57 64 68 78 85 85 79 75 80 74
34 39 54 48 47 47 46 53 50 56 42 48 56 39 27 38 38 36 33 37 35 31 22 24 26 30 31 31 33 35 44 50 57 67 71 74 82 85 85 85 86 88 87 85
38 42 46 45 48 50 50 54 56 51 47 50 64 43 29 29 26 30 33 31 35 39 37 34 35 38 39 39 41 55 63 66 68 76 77 82 84 85 83 86 85 92 84 86
38 43 41 45 44 48 51 46 47 47 60 48 48 40 34 29 28 30 30 29 28 30 34 35 40 45 48 47 54 56 64 72 80 75 81 86 86 81 84 90 89 84 83 83
42 45 44 46 42 39 48 54 54 50 50 52 42 42 35 33 32 27 29 31 30 30 33 38 42 44 45 48 51 61 68 75 65 69 85 86 80 84 88 87 87 89 79 85
47 54 50 53 46 41 37 41 45 42 38 43 45 43 38 33 35 33 31 33 33 34 38 40 43 45 45 45 46 52 58 56 62 77 78 81 84 86 82 79 80 84 89 95
53 58 55 53 50 46 48 37 35 33 30 31 43 41 40 37 37 36 37 37 38 40 39 38 37 36 36 38 42 46 49 51 59 66 72 74 78 79 80 83 88 90 91 96
49 52 52 56 51 53 29 28 26 26 23 22 26 33 35 36 41 42 41 39 39 39 39 39 39 38 37 37 39 42 47 52 60 68 75 75 75 78 83 87 91 97 98 92
43 45 50 53 58 44 34 31 29 27 26 24 25 29 33 34 36 39 39 39 39 39 39 38 37 36 36 40 45 50 58 63 65 66 69 74 80 87 88 90 96 96 86 72
48 44 53 60 63 65 46 44 37 33 40 31 32 34 36 38 43 42 40 40 40 39 37 35 34 35 38 42 49 55 60 63 67 73 78 84 93 98 98 90 79 62 46 28
59 58 58 68 59 51 41 39 37 39 33 34 37 39 41 41 41 41 42 39 36 33 34 37 40 43 47 52 56 58 64 69 74 81 90 94 93 91 79 63 46 28 18 17
59 68 62 59 51 49 36 38 36 33 38 41 43 44 46 46 43 39 37 35 36 38 41 44 47 51 52 55 60 65 70 79 86 89 86 80 70 56 41 27 17 16 16 16
52 49 48 40 42 41 40 36 35 37 40 43 42 41 39 38 37 36 37 39 42 45 49 52 54 54 60 65 69 75 78 80 78 73 62 49 39 27 19 15 14 15 17 19
52 45 37 39 42 43 41 39 36 35 35 37 36 36 36 36 39 41 43 46 50 53 56 56 58 63 68 72 73 72 71 67 57 48 41 31 20 15 15 17 19 21 24 26
55 38 37 41 38 37 36 35 35 35 35 36 39 40 42 43 47 48 49 53 56 58 59 62 66 71 73 70 66 63 59 50 39 30 22 19 17 16 16 17 20 24 25 32
48 32 36 39 30 34 37 39 37 37 38 41 43 47 49 50 51 53 56 60 62 62 65 70 74 69 65 62 59 52 39 30 26 22 18 16 16 17 19 19 17 21 24 26

GFSCGP_prec_cthk_048.txt.gz
RH
36 36 38 34 37 41 44 48 48 51 49 51 51 49 50 56 54 56 59 43 41 44 46 52 50 49 49 49 48 45 44 45 47 49 57 65 65 73 77 66 62 54 51 51
42 43 42 40 38 41 44 47 49 49 50 49 48 49 48 52 52 47 49 51 46 46 47 50 50 48 45 45 45 43 45 49 55 61 64 67 69 69 75 69 66 59 55 54
45 43 44 45 39 41 47 47 48 48 46 46 45 46 44 43 46 46 47 42 46 44 44 42 43 45 45 47 46 46 45 52 58 59 65 62 64 75 74 74 73 72 61 56
43 43 46 45 42 43 49 47 46 50 52 53 44 44 36 39 41 40 40 44 38 41 45 48 49 53 53 53 51 50 52 55 58 60 60 58 64 71 73 80 75 63 62 56
38 42 46 47 50 50 49 48 48 49 53 50 48 46 42 39 36 33 35 46 51 44 47 47 48 51 55 57 56 59 58 59 63 63 60 59 66 78 79 82 75 76 69 63
34 40 45 46 48 51 49 51 51 54 53 53 46 45 46 43 39 36 32 39 49 49 46 46 49 53 59 61 58 63 66 63 68 70 56 56 64 71 75 82 81 76 69 67
35 40 45 47 46 49 50 52 59 61 65 58 51 51 44 41 41 38 36 38 41 41 42 46 50 57 60 57 62 65 66 66 65 68 64 57 67 73 78 79 82 75 71 72
41 43 46 47 48 50 51 52 62 55 64 53 50 46 32 38 41 43 39 35 32 31 34 40 49 51 53 56 63 71 68 65 73 73 69 71 67 78 82 82 87 79 81 83
44 44 48 50 51 51 53 55 53 63 62 64 48 39 31 36 39 42 40 36 30 26 26 30 39 45 47 49 52 61 68 65 61 57 61 62 71 76 81 84 89 85 85 85
39 46 51 52 52 55 54 52 53 56 54 50 46 42 38 36 39 39 36 34 31 26 25 28 31 32 38 40 41 44 46 52 51 53 57 63 66 73 76 78 78 85 89 83
39 39 50 52 51 55 57 53 55 57 59 60 60 46 34 35 37 35 36 32 29 28 25 25 26 27 27 30 35 38 39 42 47 59 65 68 71 74 77 85 87 88 87 88
37 41 46 45 47 48 46 48 50 61 55 61 61 43 28 28 37 35 32 36 38 35 27 23 22 24 25 29 33 37 43 55 68 71 72 78 84 88 88 86 85 88 92 91
38 40 42 45 47 47 47 48 48 52 58 61 65 42 40 33 30 33 33 33 33 37 40 39 37 37 38 39 45 49 59 62 69 75 80 83 83 85 86 83 85 87 90 90
42 46 40 38 33 42 49 45 50 53 63 55 49 36 35 39 38 33 30 27 28 28 30 33 36 39 42 48 53 63 60 61 68 74 81 81 76 87 85 85 84 87 84 92
45 47 45 38 40 44 46 42 45 47 50 54 46 48 44 39 38 37 32 26 27 32 34 35 36 43 48 49 49 50 52 54 56 55 58 62 75 87 81 78 76 83 79 85
47 51 45 46 45 45 45 40 46 53 52 47 40 38 36 37 40 42 37 37 37 39 40 41 42 44 45 45 44 46 47 50 53 56 55 58 66 70 72 74 77 79 77 87
50 56 51 54 57 57 53 39 37 35 33 34 37 31 30 34 38 39 39 39 42 42 42 40 39 38 37 35 36 38 40 42 44 45 50 62 68 73 74 74 72 80 88 94
58 61 58 66 64 57 37 32 30 30 28 27 28 28 28 27 33 38 39 42 44 44 41 40 39 38 37 37 36 36 38 42 47 57 66 69 71 71 74 81 88 93 97 98
54 58 65 66 62 46 33 27 35 33 27 26 26 27 27 28 28 33 37 39 42 42 40 40 39 37 36 36 37 41 45 51 60 65 67 68 72 76 83 89 95 97 96 86
56 54 62 66 58 51 34 35 38 39 35 33 33 33 33 35 37 41 42 42 42 42 40 38 35 33 34 38 43 48 53 58 60 64 68 71 78 85 89 91 87 82 72 57
65 64 63 66 60 50 40 38 34 35 31 31 32 36 37 40 39 40 42 42 41 39 37 35 35 38 42 46 50 52 54 57 63 68 73 77 82 86 84 75 65 53 35 20
62 68 69 67 66 58 40 34 30 28 30 31 34 37 39 39 41 43 44 41 38 35 35 37 40 44 48 49 51 53 60 66 71 75 76 77 75 71 62 49 37 25 16 14
62 55 59 54 54 50 41 25 27 31 32 34 36 39 41 42 44 42 39 37 35 37 40 43 47 50 52 54 58 64 67 71 71 69 66 62 56 46 35 27 22 18 17 18
58 54 54 57 52 48 35 30 34 34 34 36 38 38 38 38 38 37 37 39 41 43 46 50 53 56 58 60 66 70 67 64 61 57 53 45 35 28 26 23 19 17 17 17
59 58 59 58 56 40 31 30 29 29 31 32 34 35 35 35 37 40 43 45 48 50 55 59 61 62 64 66 68 65 61 56 51 44 39 35 29 25 21 16 12 11 12 15
64 61 64 56 48 27 26 26 29 29 30 32 33 35 37 40 44 46 49 52 55 59 64 66 68 67 69 69 62 56 52 47 44 39 34 29 26 22 17 13 12 15 16 16

GFSCGP_prec_cthk_051.txt.gz
RH
32 33 34 31 32 38 43 42 47 51 53 50 50 51 50 57 60 59 49 43 45 47 48 48 52 55 53 55 55 53 52 50 51 49 51 54 55 59 68 84 79 67 58 54
36 41 37 40 39 38 45 43 47 50 50 49 48 47 44 48 52 53 54 49 43 45 49 48 49 50 50 49 48 49 51 54 53 55 55 59 61 64 73 89 74 79 70 62
40 40 43 43 44 40 43 42 43 49 49 51 47 43 41 44 47 47 48 50 47 46 45 45 46 47 48 47 46 47 47 50 58 61 61 63 65 67 75 77 83 82 77 70
37 39 43 46 42 41 41 40 42 50 51 47 47 46 44 41 42 41 45 43 42 41 41 41 41 43 45 45 48 48 47 48 57 62 61 64 64 65 72 79 85 90 84 73
35 38 42 47 44 47 43 44 42 44 49 50 49 44 38 41 38 38 36 46 50 43 43 45 47 48 49 50 51 51 54 57 58 62 66 66 63 63 72 87 90 84 85 82
34 35 37 44 45 49 50 48 47 50 51 53 48 45 41 41 38 37 31 41 49 53 51 47 50 54 55 55 55 57 56 64 67 68 72 74 62 57 64 73 84 87 87 86
34 33 36 43 46 48 51 53 55 55 56 53 51 51 44 40 40 37 36 35 38 45 53 52 53 53 57 61 63 62 63 66 68 70 78 76 71 65 65 73 91 91 90 90
35 36 35 45 45 47 51 53 59 56 55 48 50 48 35 32 37 42 39 39 37 40 46 48 49 54 57 64 65 61 68 72 68 69 77 77 74 67 67 78 95 95 94 94
41 38 39 48 48 47 52 55 53 60 65 61 47 40 36 35 38 38 38 41 40 34 28 35 41 44 51 57 56 62 63 67 70 67 62 59 56 63 75 83 94 92 95 96
36 39 43 47 52 54 52 55 60 61 60 57 45 42 37 36 35 34 35 34 37 37 29 24 26 33 40 47 49 49 51 53 54 51 50 51 62 74 77 87 93 92 95 97
35 37 43 50 52 56 59 58 61 58 56 52 53 44 38 36 35 35 38 39 33 28 26 22 24 27 28 31 33 36 39 41 41 45 54 71 76 78 81 89 90 93 97 95
34 41 46 45 52 52 51 53 56 62 55 57 55 45 37 35 34 37 36 36 35 33 35 32 26 22 25 25 29 31 34 39 46 59 68 71 77 83 86 90 91 93 94 95
36 39 43 41 47 52 51 52 52 52 51 53 59 46 42 33 40 35 35 34 34 33 35 36 36 38 38 38 39 41 46 51 59 63 67 74 81 86 86 87 91 91 90 88
36 39 38 37 34 42 53 50 50 48 56 50 47 44 43 35 38 40 40 31 28 29 30 33 38 44 48 49 50 51 52 54 54 53 56 61 67 72 79 78 86 90 85 81
42 43 41 38 40 43 40 39 46 47 43 48 43 42 43 44 40 40 37 38 33 30 32 35 40 44 46 49 50 50 52 52 54 54 53 53 61 62 65 66 67 69 77 77
46 46 44 44 45 45 41 41 47 45 39 43 45 44 43 38 34 31 37 40 41 39 38 40 43 47 50 50 51 50 50 49 50 51 53 58 58 54 56 61 69 78 68 76
51 52 48 48 50 51 49 44 41 42 38 35 36 32 31 29 29 29 33 38 42 40 40 43 44 44 44 43 43 42 40 40 40 42 45 49 54 59 64 66 68 74 74 83
54 52 52 61 61 59 40 45 43 39 31 30 28 28 29 28 31 31 32 32 37 41 42 43 41 42 42 42 41 39 38 38 41 47 53 56 58 61 64 66 76 80 83 89
60 56 59 65 65 51 38 39 38 37 25 33 34 31 32 33 32 32 31 30 31 34 38 41 43 43 43 40 38 35 36 40 47 52 56 58 62 64 64 72 81 83 84 81
65 60 62 65 67 60 38 38 36 31 30 30 31 33 33 34 35 33 36 38 40 42 44 44 43 40 38 35 36 39 44 48 50 52 56 59 64 69 71 76 78 76 70 67
71 69 64 63 62 49 37 36 36 42 31 23 26 29 31 34 35 37 39 40 42 44 44 43 41 37 37 40 43 45 48 50 53 57 62 66 69 70 72 67 63 54 45 34
70 70 68 64 64 53 36 42 43 41 31 24 29 31 34 35 38 40 43 45 46 46 43 39 37 38 42 46 48 49 52 58 63 66 68 66 61 56 52 47 41 35 32 29
76 63 60 57 53 48 41 41 41 43 28 27 31 33 34 37 39 42 45 46 44 40 38 38 41 44 47 51 53 55 59 63 64 61 56 52 49 45 41 38 35 31 27 23
78 70 64 60 54 52 43 40 47 41 25 32 31 34 36 37 39 41 42 41 39 39 41 43 46 49 53 56 58 62 62 62 58 53 46 44 43 40 36 32 30 26 22 19
74 70 63 61 56 48 46 49 45 33 27 30 32 34 35 34 37 38 38 39 41 45 48 50 52 56 57 60 62 63 63 58 50 44 44 43 39 36 35 33 28 22 21 21
58 62 62 62 57 56 51 53 38 28 26 29 31 33 35 37 38 39 42 45 49 51 55 57 60 62 64 66 66 63 57 51 46 46 44 43 41 38 34 28 24 24 21 17

GFSCGP_prec_cthk_057.txt.gz
RH
30 28 31 37 40 33 31 41 41 48 57 49 47 41 50 65 49 52 56 58 61 65 61 59 56 59 58 57 55 52 53 54 59 61 64 64 61 60 63 64 68 74 81 82
37 31 32 39 33 26 27 38 39 40 39 39 43 48 52 53 46 52 51 45 48 56 49 46 51 55 58 58 56 58 56 55 58 63 59 61 59 59 61 65 70 73 78 80
35 37 36 34 34 36 36 40 42 43 51 38 38 40 49 46 45 45 44 56 44 41 45 48 53 56 55 55 56 54 57 58 60 64 64 66 67 66 70 70 70 65 83 84
34 34 32 33 37 42 45 44 42 45 44 43 52 48 51 49 46 49 50 44 47 44 44 41 44 47 48 48 50 51 53 58 61 64 68 71 71 69 71 71 69 68 70 83
34 31 35 34 35 43 43 48 41 41 46 44 49 39 47 40 39 47 48 49 46 41 42 44 39 40 44 46 46 48 51 56 59 62 64 68 70 71 74 76 77 70 70 80
34 35 34 37 40 38 43 43 39 43 44 50 43 46 49 53 39 45 43 41 45 48 41 42 46 48 44 46 51 53 55 56 60 64 68 68 75 72 74 77 79 71 68 68
34 36 34 35 35 37 42 47 54 63 52 50 48 43 41 50 41 37 43 47 43 45 48 53 52 53 53 49 52 55 57 60 66 72 70 75 78 80 79 86 87 81 84 81
36 38 34 34 31 43 47 48 56 63 62 53 54 36 38 41 35 33 34 42 42 43 42 47 53 56 59 62 63 62 68 70 73 75 84 90 91 88 83 78 79 82 80 78
38 36 39 38 34 31 45 54 49 57 58 55 46 38 41 38 32 29 33 40 44 39 42 50 54 53 55 64 68 69 72 77 78 78 81 79 80 87 77 71 72 74 79 84
38 42 41 39 35 36 40 56 55 51 64 61 43 41 40 41 34 29 32 36 43 44 46 47 50 53 53 57 63 68 74 79 83 79 79 77 78 76 75 68 65 72 79 83
38 37 49 44 38 42 41 47 51 53 53 63 55 41 43 41 34 32 30 33 35 40 44 48 49 56 61 59 63 62 66 72 74 75 71 68 67 63 63 60 67 76 77 79
36 41 55 46 38 37 58 51 46 58 58 59 55 54 49 44 40 38 34 33 35 36 41 43 37 34 42 50 60 63 63 66 70 71 70 63 63 59 63 67 65 65 66 69
38 43 47 52 47 44 37 54 55 55 57 69 77 55 50 40 37 37 37 38 31 31 36 40 43 45 43 45 51 55 57 56 60 62 57 56 58 63 59 59 61 60 60 62
41 43 43 44 45 48 41 46 50 53 60 55 52 48 48 47 49 47 48 38 34 38 34 32 32 35 42 46 49 52 53 55 57 54 56 60 59 57 58 59 59 56 57 62
47 48 45 41 45 45 43 46 47 49 50 52 49 48 47 48 47 47 52 45 34 36 41 42 42 41 39 43 46 43 44 46 49 54 58 58 60 63 62 58 57 63 62 66
49 54 47 45 48 45 41 40 39 41 42 43 44 44 46 40 39 44 44 42 40 36 35 44 51 55 48 47 48 50 51 56 62 64 67 66 67 62 58 56 53 55 57 58
58 57 53 54 51 47 50 37 41 40 42 42 41 42 45 48 44 41 39 41 41 39 38 39 46 50 52 51 55 61 64 62 65 63 63 57 52 48 45 44 48 52 55 56
71 60 54 63 58 66 40 40 36 36 37 39 37 38 46 44 37 35 33 33 33 35 35 37 42 47 50 50 52 56 57 59 58 54 52 50 47 44 45 49 51 50 51 55
70 70 65 66 56 46 38 38 37 37 37 43 40 42 39 37 32 33 30 34 37 38 42 43 44 45 45 46 48 48 48 52 53 51 46 43 40 43 46 48 50 53 55 57
74 72 78 69 60 58 36 39 35 39 41 38 40 40 32 28 30 22 30 37 35 36 38 39 41 40 39 39 41 45 49 50 48 43 39 39 42 45 49 51 54 55 55 50
88 81 81 74 64 46 38 38 42 50 29 49 45 34 28 31 30 25 26 31 33 35 37 38 38 38 40 44 49 51 50 46 42 39 42 45 47 50 52 53 52 47 42 40
82 82 81 72 74 69 44 43 42 36 36 44 38 34 33 34 34 25 27 30 35 38 40 43 44 46 49 52 52 50 46 41 42 45 46 48 50 51 50 48 44 38 38 39
66 63 76 67 66 57 54 48 47 50 52 52 45 39 35 36 38 30 28 32 36 40 43 46 47 50 52 51 50 44 42 45 47 48 49 50 50 48 45 42 39 40 42 44
53 54 60 69 64 65 60 54 54 52 55 58 51 47 39 38 39 33 30 35 37 41 45 47 47 47 48 48 45 44 47 49 51 51 52 53 49 46 44 42 42 45 47 44
38 45 44 44 44 46 62 59 61 63 61 58 51 48 44 39 33 31 32 36 40 43 45 45 46 48 48 45 46 50 52 53 54 56 55 52 49 48 47 46 46 45 45 41
32 40 47 48 38 40 43 55 62 65 66 62 56 53 52 43 34 32 32 35 39 40 40 44 47 49 48 50 53 57 59 60 61 59 58 54 50 48 50 50 52 50 45 41

GFSCGP_prec_cthk_060.txt.gz
RH
37 32 27 27 33 44 37 32 39 48 46 40 35 40 47 54 72 56 50 43 52 63 60 60 56 51 49 50 48 48 52 55 56 58 58 61 70 58 55 60 61 64 75 81
42 37 27 32 34 36 32 23 29 38 47 41 33 38 44 50 68 52 47 43 44 54 53 46 49 54 49 45 48 48 47 48 56 57 53 58 54 51 50 54 61 66 69 79
41 34 42 30 33 30 30 35 35 43 52 48 35 33 40 43 52 44 46 41 43 48 45 44 46 47 46 46 46 46 43 42 45 52 53 54 56 56 56 58 60 61 67 80
40 40 44 39 30 31 44 46 37 40 48 41 46 46 45 44 50 50 46 46 41 41 46 39 42 46 45 44 44 42 42 44 46 53 56 53 56 61 63 63 64 60 58 61
45 43 36 37 28 35 37 46 44 45 37 39 43 52 56 44 47 54 56 58 52 40 38 42 40 41 44 44 43 43 45 48 52 50 59 64 67 67 65 66 67 68 66 62
48 47 37 37 33 29 37 43 40 36 32 45 38 49 41 49 49 45 47 51 53 48 40 37 41 44 47 48 45 46 49 51 54 58 65 72 78 76 74 74 75 80 82 74
48 45 44 38 36 39 33 43 49 61 59 49 41 42 44 51 47 46 47 46 51 56 45 42 46 46 49 51 51 52 51 53 54 63 73 80 77 77 81 83 83 91 79 75
52 50 41 37 34 35 34 40 49 60 81 68 56 49 38 42 44 43 34 32 47 49 52 49 49 51 51 50 53 56 57 57 60 64 74 79 77 72 85 87 83 76 77 77
52 49 41 38 36 29 42 53 42 53 65 71 59 47 36 39 39 36 31 32 37 45 49 50 54 57 57 54 50 51 57 59 63 67 75 76 78 63 70 73 83 82 78 72
50 52 43 44 42 35 30 41 59 49 68 67 46 36 51 46 40 33 29 33 39 37 42 46 55 60 58 55 52 52 56 60 67 68 70 74 75 81 66 71 91 82 70 72
48 51 50 45 42 38 36 36 49 55 53 58 58 58 53 50 41 35 35 33 31 37 38 42 49 58 63 66 65 55 56 65 67 69 72 72 74 77 89 78 64 66 73 68
48 51 51 53 45 41 36 44 39 53 55 57 58 56 48 49 45 41 39 34 36 36 35 36 36 47 62 65 64 62 58 62 63 76 74 83 84 80 75 69 66 72 65 62
52 51 58 52 53 48 37 51 55 49 46 56 78 52 49 43 43 42 37 35 34 35 35 33 34 36 40 55 67 84 77 62 69 73 80 77 72 70 67 62 66 63 62 61
55 52 50 53 61 48 46 44 53 59 68 54 55 57 50 48 43 43 42 45 42 40 38 38 37 33 36 41 56 63 66 63 62 63 62 65 64 59 59 62 64 66 66 66
55 56 52 48 46 49 48 46 33 46 60 61 60 44 41 45 46 48 48 51 48 49 43 41 42 44 42 41 37 38 42 43 47 51 51 56 59 62 64 67 68 69 64 62
55 58 54 54 46 46 56 53 47 42 41 46 45 46 42 44 49 43 48 47 43 42 40 43 51 48 44 44 46 45 46 49 50 50 60 63 69 72 71 71 66 59 53 49
58 57 56 58 51 51 52 49 45 45 46 44 48 44 39 41 45 45 42 45 40 40 40 41 52 61 58 56 50 48 47 50 56 62 67 68 67 66 65 57 50 46 43 45
61 61 59 73 68 66 45 42 42 40 42 40 39 38 41 41 43 46 49 45 38 35 33 31 39 48 50 54 53 53 55 59 63 64 64 61 63 60 55 51 46 43 44 45
69 75 81 74 70 56 50 51 50 45 39 40 34 34 42 44 50 45 36 34 33 34 33 37 41 45 46 49 55 59 60 57 57 59 57 56 58 56 50 45 43 45 46 48
78 78 83 85 74 71 58 47 42 44 46 36 39 42 43 48 48 37 32 25 27 26 32 38 39 41 45 47 50 52 51 50 49 49 50 54 52 46 40 42 44 46 48 48
85 94 92 84 86 64 50 47 51 53 40 40 49 45 42 50 41 33 27 28 29 27 29 32 35 38 41 43 43 43 42 42 44 50 53 50 44 41 43 45 47 46 46 45
74 84 95 85 89 85 61 56 53 39 35 50 46 50 53 45 38 31 31 32 30 28 29 33 37 38 40 40 40 40 44 48 52 51 49 41 42 44 46 48 47 45 45 42
68 63 65 81 74 69 63 62 56 55 56 56 58 65 51 43 38 36 33 33 33 31 32 36 39 41 43 44 44 47 50 52 49 44 41 43 44 46 48 48 45 44 44 43
62 59 66 70 65 68 78 71 63 60 60 56 59 58 55 51 46 43 37 36 31 33 37 39 42 44 46 47 48 48 49 49 46 43 45 47 47 48 47 46 47 47 46 44
55 66 71 72 64 61 65 68 71 65 65 61 62 62 64 56 51 48 44 38 34 35 39 43 46 48 49 50 49 50 50 49 47 48 50 51 52 53 50 52 51 48 45 44
48 48 60 58 43 45 45 43 45 46 47 50 60 60 65 60 57 54 52 49 40 38 41 45 49 51 50 48 50 52 52 51 51 53 56 60 58 56 55 56 53 51 51 51

GFSCGP_prec_cthk_063.txt.gz
RH
41 35 37 31 22 25 32 35 35 37 42 47 46 48 63 57 53 52 50 52 55 54 62 57 47 45 43 43 45 46 51 59 61 65 68 64 61 63 66 69 69 68 68 70
41 40 37 28 30 32 40 39 31 36 41 47 47 40 52 58 51 54 45 50 45 49 49 43 45 40 39 37 41 42 43 42 44 45 47 49 50 51 53 54 55 61 66 72
41 43 36 33 36 32 41 33 26 32 44 45 47 44 57 55 57 57 51 54 49 42 43 40 42 38 37 36 34 32 35 38 41 44 47 52 58 56 54 52 55 55 58 60
44 47 39 43 45 36 38 36 40 38 48 46 45 48 51 55 54 54 55 61 52 41 45 40 35 37 34 32 32 32 34 36 42 45 45 47 49 52 50 49 52 56 56 57
41 45 42 49 44 40 32 41 43 46 46 40 41 46 43 51 51 53 60 68 63 49 43 37 33 38 37 33 32 34 36 37 38 40 44 48 47 45 44 50 56 61 62 59
43 44 42 45 40 36 33 40 41 41 42 48 31 45 43 51 50 50 59 54 48 46 44 38 35 37 39 41 39 38 38 40 40 44 50 57 62 63 66 69 67 68 76 79
43 45 46 44 42 39 41 41 52 58 54 51 43 50 40 44 45 44 45 44 44 40 48 43 40 38 40 43 44 46 45 44 48 52 52 55 61 67 72 78 75 72 70 76
49 52 45 43 43 40 39 44 52 54 69 68 50 52 48 49 40 35 42 41 38 44 47 43 41 41 37 40 44 46 46 45 46 50 54 56 67 71 74 73 76 73 73 74
46 48 45 46 44 41 45 44 42 50 57 73 64 52 51 49 47 41 40 40 41 42 44 42 40 45 49 49 41 39 41 43 47 50 54 58 66 68 72 64 68 78 79 86
43 52 48 49 43 40 42 40 52 58 72 78 58 58 57 56 49 41 40 39 37 44 45 43 41 43 44 44 45 44 41 41 45 51 55 58 59 61 66 74 77 94 96 87
45 52 54 50 47 41 44 41 43 49 59 76 64 60 52 50 48 44 40 39 36 35 39 44 43 43 46 43 45 49 56 48 50 56 51 55 63 73 82 78 94 84 80 73
46 53 56 51 47 44 43 45 35 52 53 70 72 60 49 50 50 43 41 40 35 32 31 32 44 47 44 41 48 48 54 61 64 65 65 66 81 91 91 97 93 91 76 72
51 51 60 57 51 50 47 47 43 39 44 61 72 63 54 51 50 48 42 44 42 37 33 28 28 34 40 41 52 60 68 74 72 88 89 81 68 69 83 81 73 64 64 57
54 55 48 52 55 54 52 48 46 42 61 55 59 48 55 56 55 51 49 48 44 41 38 32 26 26 31 41 50 64 87 63 55 74 76 67 73 70 65 62 58 57 60 63
62 54 50 53 52 56 59 55 45 43 48 61 55 58 48 50 51 52 51 50 49 45 44 39 39 34 26 29 38 46 44 49 58 58 49 48 54 54 55 53 52 61 63 65
62 62 56 57 55 56 59 57 55 49 45 52 56 63 49 40 44 48 49 49 43 47 48 44 40 36 32 31 33 34 38 44 46 42 45 47 50 54 56 61 62 64 65 61
79 66 67 61 58 57 60 52 53 54 50 45 53 46 48 48 47 48 43 47 43 43 37 42 44 41 40 33 34 39 42 45 45 41 44 45 51 56 66 63 58 61 55 51
91 71 70 76 67 71 47 47 50 55 52 46 50 46 46 45 47 43 45 46 50 44 42 37 36 35 34 36 37 43 43 45 47 50 49 54 56 60 59 56 54 53 53 45
91 80 83 77 72 56 47 44 46 52 51 48 46 45 44 44 45 45 43 46 43 42 40 35 33 33 34 37 40 39 38 44 49 52 57 60 59 55 53 53 52 54 47 39
96 86 81 92 84 69 54 48 47 54 53 47 43 41 42 42 50 45 46 46 50 47 39 32 29 30 33 37 38 40 45 46 51 57 61 60 56 54 52 51 54 50 40 42
97 94 94 91 93 74 60 47 54 62 51 48 44 40 46 47 46 50 50 51 48 42 31 27 30 30 32 33 35 40 43 47 48 48 48 48 47 48 52 52 48 41 43 45
77 82 83 93 96 91 67 62 57 52 52 52 46 44 46 45 46 48 45 49 46 37 30 30 30 33 35 35 36 38 41 40 40 40 43 46 50 51 50 45 42 44 46 47
72 59 64 66 75 72 67 70 65 65 64 62 57 48 49 56 49 51 56 52 43 35 33 33 31 33 37 39 39 40 40 42 44 47 50 52 51 50 46 44 45 47 48 46
46 49 55 54 61 59 61 69 70 72 74 68 69 58 60 59 62 64 55 48 45 42 39 35 35 36 40 44 46 47 47 49 51 53 54 53 51 49 47 48 51 51 47 45
32 35 44 56 61 70 70 64 70 71 74 69 65 62 60 53 58 63 65 58 54 51 49 44 40 41 43 46 49 52 53 55 56 57 57 57 56 53 52 54 55 58 58 56
38 30 49 56 72 79 71 70 70 65 68 65 63 52 56 60 60 56 55 62 60 61 61 60 59 55 52 51 53 55 57 59 60 60 62 64 65 59 59 62 67 68 65 62

GFSCGP_prec_cthk_066.txt.gz
RH
39 37 36 41 33 26 32 36 34 29 39 43 48 56 50 47 56 60 55 41 42 44 58 54 44 43 43 48 54 61 73 78 78 74 75 79 77 80 83 82 77 75 73 72
42 35 39 35 32 30 29 33 32 29 34 43 47 50 47 44 51 61 62 46 39 42 47 50 42 39 38 40 43 46 51 57 58 57 60 68 68 70 71 69 67 72 73 73
43 40 38 36 34 32 38 37 32 35 30 39 41 47 55 46 48 61 62 59 42 39 40 39 40 38 33 34 35 38 40 41 43 46 48 52 54 56 52 54 56 61 62 65
45 42 39 42 38 42 44 35 35 35 40 46 44 47 53 50 50 57 55 58 55 39 44 40 33 32 31 28 28 32 35 37 39 40 42 44 44 47 49 51 58 55 56 59
42 42 42 45 41 45 43 34 38 37 45 46 43 44 40 45 50 53 52 56 61 57 45 38 36 34 31 29 29 31 36 37 37 37 39 42 43 41 44 49 51 53 55 55
39 40 42 42 41 45 42 43 36 36 43 48 40 46 39 41 43 49 47 54 58 53 54 39 36 39 36 36 33 32 34 35 36 36 40 45 48 49 50 50 53 55 58 63
39 41 42 44 42 45 44 51 48 48 49 48 39 43 37 34 38 40 43 50 51 49 54 44 41 40 38 38 40 39 39 38 39 41 45 48 53 57 58 63 66 66 67 71
40 45 41 40 41 46 46 50 57 49 54 46 50 50 38 39 41 36 41 44 46 46 48 46 40 40 37 38 40 42 42 42 42 43 48 55 59 70 74 78 80 83 83 78
43 42 39 42 45 46 48 54 40 51 56 57 51 50 41 41 45 39 41 44 45 42 43 45 44 42 47 48 45 43 43 42 41 44 50 52 61 67 81 83 81 77 80 84
38 45 41 45 49 47 47 48 54 60 61 65 51 56 55 48 44 42 41 40 40 39 40 40 42 44 46 50 51 52 49 41 42 45 44 50 62 70 71 80 81 90 91 93
39 44 43 47 47 49 48 53 51 54 60 66 68 56 49 50 47 46 42 42 43 41 34 38 40 42 46 52 58 53 54 59 60 54 52 64 66 68 72 78 91 97 98 94
44 48 50 44 47 49 48 50 48 56 54 56 61 51 49 46 47 47 46 39 40 37 36 32 33 37 44 49 54 51 57 69 75 81 88 78 78 80 78 90 94 96 78 77
58 55 59 52 51 51 55 51 48 51 50 48 60 53 53 51 46 44 43 41 39 39 37 37 35 31 37 41 42 45 60 69 77 76 80 79 88 93 93 88 85 82 74 65
74 64 51 48 47 52 54 51 49 48 61 49 49 39 40 50 47 44 47 46 45 42 36 38 37 29 28 33 37 41 44 47 65 75 57 56 75 84 85 79 74 68 66 63
85 70 55 49 51 52 56 57 51 51 50 56 47 46 44 47 45 50 51 47 50 48 44 39 45 43 35 34 35 36 37 44 51 52 46 49 57 58 66 69 63 67 65 72
88 82 66 58 57 55 55 59 58 55 53 53 49 44 53 52 50 52 51 52 52 50 46 41 44 42 38 37 36 39 39 41 42 54 53 49 49 55 66 60 66 70 72 73
90 97 94 72 66 61 66 52 60 58 59 57 55 48 42 47 49 46 49 48 48 45 44 46 46 38 35 32 28 33 39 43 50 52 51 53 56 59 58 61 66 70 73 68
71 94 97 85 78 81 43 50 55 58 56 52 50 51 44 46 46 50 48 50 48 44 43 43 42 40 38 30 29 29 32 37 46 49 49 53 56 61 58 61 64 67 66 67
64 75 96 96 80 61 55 52 53 56 52 53 54 54 51 47 46 43 39 42 46 47 43 40 40 38 36 33 31 35 37 40 44 46 46 52 59 61 64 67 69 69 63 57
69 65 76 95 97 78 50 54 57 57 60 51 54 58 57 53 51 49 43 37 42 46 46 44 44 42 43 37 34 36 39 42 42 42 49 50 55 61 64 67 64 59 56 50
76 73 86 91 97 87 69 65 59 67 52 57 59 54 56 54 50 48 46 40 43 47 45 47 52 46 40 34 35 38 41 40 43 49 53 52 55 58 60 56 53 51 49 50
80 80 81 95 97 94 72 69 70 67 61 60 56 56 57 56 55 51 47 44 41 47 44 47 44 44 43 37 36 39 42 43 45 48 50 54 55 51 50 49 50 52 51 51
65 60 83 75 72 61 59 71 66 69 69 67 63 63 61 61 58 53 47 49 44 45 47 47 47 47 40 36 35 37 39 41 44 48 51 48 48 50 53 57 55 55 54 51
43 55 68 69 55 52 51 51 55 70 78 75 71 63 65 64 61 58 51 53 55 56 55 55 51 44 42 39 36 38 40 44 51 54 52 54 56 57 58 59 61 62 60 57
41 45 45 53 48 50 51 47 52 67 72 72 79 73 70 67 64 69 63 61 61 61 64 62 58 56 53 51 49 46 45 48 52 55 57 58 60 63 65 67 68 69 69 71
66 67 69 64 53 43 45 43 51 66 69 70 66 76 77 72 70 69 63 64 63 64 64 68 65 65 64 63 62 60 61 63 67 68 68 69 71 73 74 75 76 77 76 72

GFSCGP_prec_cthk_069.txt.gz
RH
39 41 36 40 43 36 31 34 36 32 35 36 37 37 37 44 47 50 50 44 35 37 46 50 42 39 45 48 52 68 87 90 93 93 94 97 93 93 91 90 90 86 86 85
42 39 38 41 38 36 35 35 35 31 35 37 38 42 37 43 46 46 48 45 36 36 39 43 42 37 43 43 44 50 66 74 77 80 85 86 88 92 91 89 87 84 82 80
42 41 39 39 38 35 34 38 33 36 34 37 41 38 38 41 41 47 46 48 44 33 36 33 38 32 34 36 36 41 47 54 56 59 65 72 80 85 86 82 78 78 76 77
43 41 42 42 40 37 37 35 40 40 40 41 38 42 35 44 45 52 48 45 49 36 32 32 29 32 28 29 32 36 42 48 49 52 54 58 63 69 68 71 73 74 74 78
42 43 44 46 41 40 38 39 45 45 43 39 40 43 33 43 44 44 49 44 47 50 47 32 30 31 27 26 26 32 38 41 44 45 47 52 58 61 63 67 63 61 64 69
40 42 45 43 44 43 41 46 48 48 45 47 39 44 38 34 33 37 44 45 47 47 47 43 37 35 34 30 27 30 36 40 40 42 44 48 50 52 55 56 56 57 60 62
40 40 41 42 43 45 46 49 60 60 53 45 35 42 32 28 26 30 37 40 47 47 44 46 33 37 39 37 35 34 36 38 40 40 40 43 48 54 54 58 60 62 61 64
41 44 38 40 41 44 47 51 63 60 60 48 40 46 32 32 33 32 37 37 39 41 40 40 36 36 35 36 36 36 36 39 42 42 43 44 47 53 56 60 64 64 65 64
40 38 33 35 41 45 46 52 49 56 61 64 49 38 27 29 32 31 37 37 35 39 39 39 41 41 42 43 41 40 40 39 40 40 44 46 48 52 57 63 68 73 75 82
36 43 39 40 42 44 47 51 58 62 66 67 54 49 38 34 38 38 41 39 37 36 37 40 42 43 48 49 51 52 49 48 45 44 48 51 54 57 60 64 77 82 91 92
33 40 41 43 47 49 48 50 51 54 61 64 65 54 36 37 43 44 40 41 43 42 39 38 39 40 44 51 54 60 63 56 55 55 56 58 59 62 66 66 67 77 91 93
43 44 45 39 42 48 51 54 55 64 62 66 63 50 35 39 43 47 44 42 44 43 39 34 35 37 41 45 51 55 64 69 69 73 74 75 72 71 66 74 75 74 85 87
61 53 50 43 45 48 51 54 54 57 59 57 61 51 38 38 43 43 46 44 44 44 43 41 40 38 37 36 40 46 48 57 65 76 78 79 80 64 70 75 89 89 89 88
69 67 70 61 50 49 52 51 54 54 59 54 48 45 40 34 36 42 46 44 43 42 42 45 41 36 38 33 30 34 36 41 49 61 64 76 70 57 67 78 95 88 86 87
84 76 77 68 62 59 53 54 55 53 50 55 47 47 42 39 33 31 42 47 48 47 42 45 45 44 42 43 41 38 38 41 44 49 61 63 65 62 62 66 71 68 72 75
79 85 85 81 72 63 60 53 53 55 54 52 52 51 47 43 42 42 38 44 49 53 48 46 46 44 43 48 44 37 35 38 42 43 46 54 64 61 60 60 63 64 65 67
78 85 93 95 83 82 73 45 53 55 57 56 57 54 49 49 46 44 46 44 44 52 52 50 45 43 41 47 47 41 34 33 36 40 47 58 60 59 56 59 59 57 60 65
86 84 85 89 81 97 63 65 53 55 50 55 57 56 54 51 45 44 41 42 45 43 49 48 43 43 43 44 44 42 37 35 35 37 42 51 57 58 57 56 59 59 62 70
61 74 75 75 77 67 63 69 65 62 51 52 52 54 51 50 46 42 42 39 41 44 40 46 46 45 40 40 42 43 38 36 38 41 46 54 59 58 55 56 58 66 75 79
61 61 69 77 82 78 46 58 62 71 60 51 53 58 55 56 52 50 45 41 40 41 40 45 47 46 43 41 43 44 40 40 36 41 44 47 48 52 59 63 65 71 80 85
75 76 69 76 87 68 50 46 58 87 58 64 58 54 54 58 54 53 53 49 44 42 43 43 45 46 43 44 46 44 44 43 38 43 50 48 49 54 60 63 68 71 80 82
66 71 74 79 81 66 53 56 74 86 72 70 65 59 60 61 53 55 55 55 51 47 47 46 51 48 45 44 46 46 49 47 46 48 50 50 53 55 58 63 69 73 66 63
63 63 69 70 63 49 45 47 58 81 87 77 68 65 61 58 60 61 59 56 58 55 53 51 48 49 46 49 52 50 49 50 53 53 51 53 54 57 63 68 65 63 66 68
51 48 51 58 43 56 47 42 51 63 56 57 72 72 71 71 65 63 65 61 61 62 60 56 56 56 55 58 60 62 56 56 54 54 55 56 59 63 67 67 67 69 70 70
57 55 51 49 39 42 54 49 47 57 56 60 54 65 77 75 71 66 69 68 67 69 71 70 66 65 68 70 68 67 66 63 62 66 67 67 68 69 68 70 71 72 76 81
65 68 75 73 67 59 47 49 56 60 61 60 64 70 69 74 76 75 73 69 71 70 71 73 76 74 72 74 76 77 77 75 74 75 79 79 78 83 86 85 83 84 86 88

GFSCGP_prec_cthk_072.txt.gz
RH
41 44 42 41 42 44 40 36 33 33 31 33 36 35 28 34 38 40 43 49 44 40 45 51 51 44 43 41 46 70 87 92 94 95 89 96 96 97 96 97 93 92 92 91
42 42 40 42 43 46 40 39 37 34 33 38 38 34 27 31 36 36 41 44 44 40 42 46 45 41 43 39 39 56 76 87 93 95 94 93 94 99 97 97 95 92 93 92
42 41 41 43 46 46 41 38 41 37 34 38 41 39 28 27 35 35 36 42 45 40 36 39 39 40 35 35 36 42 52 64 72 78 85 91 96 97 96 95 93 92 92 92
43 39 42 43 43 43 43 40 40 38 42 45 42 47 32 27 28 37 37 40 44 45 37 36 33 34 34 29 33 34 41 45 49 53 62 73 81 89 91 93 91 91 90 89
48 46 44 46 45 47 44 43 41 38 47 47 44 48 34 31 29 31 34 37 40 45 49 46 35 31 31 26 26 32 36 39 42 45 52 60 63 68 74 77 80 81 82 80
46 47 47 45 45 48 47 45 43 49 53 57 46 47 40 29 28 23 29 35 36 41 47 50 45 35 34 29 26 30 34 36 39 42 44 48 51 57 62 63 66 69 70 74
46 46 45 48 50 50 49 50 59 62 62 56 45 49 36 26 21 25 28 32 34 37 44 46 45 34 32 37 34 32 35 39 41 42 44 46 52 57 57 57 60 61 61 59
42 49 47 45 46 49 52 52 63 63 66 56 52 53 41 29 26 28 27 31 34 38 42 40 42 32 34 39 36 36 36 39 44 48 48 49 50 55 60 60 61 63 64 63
42 40 33 40 44 46 52 56 51 57 63 67 52 46 40 34 22 27 27 28 33 34 35 34 37 35 34 35 37 36 37 39 43 47 48 50 52 55 58 61 64 68 71 72
34 44 40 40 42 44 46 49 58 65 64 65 56 53 45 37 29 31 32 36 35 37 36 32 34 38 39 42 47 50 49 46 44 46 48 48 49 51 55 56 61 63 68 71
34 40 39 41 45 45 46 48 52 56 62 62 60 53 42 36 34 34 38 37 37 35 39 34 35 40 43 46 50 53 57 65 61 54 51 52 54 58 60 62 61 58 65 71
42 39 41 36 39 45 49 51 51 60 60 66 60 46 41 41 40 39 40 41 38 37 40 40 36 35 40 42 45 50 56 57 67 67 62 58 57 60 62 61 66 66 71 75
57 56 53 45 41 42 44 47 52 57 57 50 62 51 44 44 42 39 43 41 42 39 40 40 39 38 40 38 37 38 45 51 56 61 64 64 66 65 71 57 66 69 73 82
65 68 64 68 60 64 60 51 49 52 57 55 46 47 46 46 44 39 36 41 47 45 43 41 38 40 40 39 40 32 32 36 41 47 53 51 54 59 69 54 58 65 76 85
60 76 77 75 72 62 60 58 53 53 52 56 48 49 51 48 47 44 36 34 40 53 46 44 41 41 41 39 42 41 39 37 39 44 49 46 48 61 63 61 59 62 71 78
70 65 72 74 70 73 63 58 60 56 54 53 54 50 51 49 49 48 42 37 35 40 48 45 44 46 44 43 44 45 40 37 38 41 42 47 50 56 63 67 62 62 65 73
74 79 82 76 78 78 68 63 63 63 57 55 55 50 52 52 51 50 46 43 41 40 46 51 45 49 46 44 45 48 45 42 40 38 35 39 45 47 63 71 66 67 67 69
58 79 87 84 84 88 52 62 60 70 62 56 54 53 53 53 51 50 50 48 44 42 46 47 51 48 48 44 45 45 52 48 43 41 38 36 36 36 48 59 66 67 65 66
61 81 87 88 87 63 53 48 50 61 60 54 54 52 50 52 52 49 52 53 49 43 37 40 47 48 51 47 44 49 52 50 49 42 38 38 38 40 46 54 59 61 71 70
62 70 80 80 86 76 43 44 47 48 43 52 61 60 55 55 52 50 54 54 51 44 41 42 48 47 48 48 47 49 54 54 54 47 46 46 42 45 51 51 53 58 60 60
78 82 77 82 81 61 42 44 47 61 45 55 60 68 64 58 55 52 55 56 55 51 47 45 45 48 49 50 51 49 52 58 56 54 56 59 56 53 52 50 52 56 59 62
78 80 81 84 80 69 45 53 58 62 63 62 58 72 72 67 66 61 55 53 55 54 54 53 51 51 49 53 57 54 52 52 54 62 62 62 61 59 53 48 53 54 58 66
63 56 58 58 50 43 44 49 52 49 50 54 57 63 82 77 71 65 61 58 59 59 59 57 56 59 59 60 61 61 58 58 60 62 62 60 59 53 54 58 58 60 66 69
62 64 68 63 41 44 39 44 48 50 50 51 54 65 73 74 75 73 67 66 65 63 60 63 62 64 64 71 68 65 69 72 68 67 69 66 65 68 67 65 67 71 74 79
66 66 60 48 45 43 37 40 51 60 53 52 67 62 67 71 72 73 75 74 70 72 69 69 67 68 69 74 75 72 76 80 80 81 77 77 75 76 79 80 84 88 89 88
70 66 70 61 63 61 54 58 57 56 63 61 72 73 66 71 71 59 69 78 74 77 78 74 77 80 78 83 84 84 81 85 83 85 83 81 84 85 87 90 91 92 93 95

GFSCGP_prec_cthk_075.txt.gz
RH
48 45 45 42 41 41 40 37 33 33 33 31 29 31 34 31 33 33 39 45 53 52 44 45 49 47 42 41 44 62 81 86 95 94 93 95 99 98 95 92 84 87 91 93
53 48 44 43 43 42 42 39 35 35 36 33 31 29 33 33 29 30 35 41 48 51 45 40 41 43 42 39 41 58 80 90 91 94 92 94 95 98 97 96 90 87 90 92
49 48 46 44 45 45 45 43 39 38 39 33 30 29 33 31 28 28 35 37 44 50 44 36 35 37 41 33 36 46 59 73 79 85 91 92 91 94 97 96 89 88 93 93
51 47 47 43 42 45 46 44 42 41 42 34 34 32 34 32 28 25 29 35 44 49 49 41 35 31 32 29 29 37 45 50 56 62 72 80 88 87 90 95 92 95 95 93
54 51 49 47 44 44 44 44 44 42 42 38 32 41 34 35 29 24 26 33 37 44 50 50 45 31 30 27 25 31 39 42 46 51 58 64 80 89 94 97 96 95 96 94
52 51 52 49 47 45 47 49 49 49 49 50 38 45 33 35 30 22 22 28 32 39 46 49 49 44 31 29 26 29 34 38 41 45 49 57 63 73 81 83 84 82 82 82
55 42 50 54 55 53 51 52 54 59 58 47 43 48 37 36 32 23 24 27 31 36 41 44 47 45 33 31 31 32 33 37 39 43 45 47 51 56 61 65 66 69 73 75
51 61 45 52 55 54 53 54 58 56 60 52 50 49 38 36 36 32 26 26 32 36 41 43 45 43 34 30 34 32 35 40 42 43 43 45 50 51 54 57 60 61 65 65
41 46 45 52 53 54 61 62 55 58 62 62 51 46 40 36 36 34 24 28 34 34 38 42 42 40 34 30 36 33 33 36 40 42 42 45 49 51 52 54 56 60 61 62
37 43 41 39 45 53 54 54 60 64 62 58 52 52 43 39 42 35 29 29 29 35 35 37 39 32 35 34 37 40 37 35 39 42 43 44 44 47 52 55 57 61 65 65
39 43 43 50 47 45 54 57 56 54 56 53 53 50 43 41 40 39 33 36 34 38 39 38 38 35 35 42 45 47 49 49 50 50 50 50 48 49 53 58 62 63 64 63
49 45 42 40 45 53 56 54 51 57 58 63 58 49 45 42 45 45 39 38 41 44 44 43 40 38 39 41 43 47 50 51 55 62 63 60 58 54 55 57 59 61 62 64
54 56 50 47 42 47 53 56 54 55 55 52 60 50 51 46 45 48 44 39 41 45 46 46 48 44 37 37 41 39 43 46 52 55 56 55 57 60 58 62 62 64 58 65
58 68 71 58 59 61 63 61 62 58 58 52 49 50 49 46 46 47 49 43 38 39 45 47 47 47 43 39 39 39 37 38 41 47 50 46 51 52 52 56 62 59 55 63
51 58 60 68 56 55 56 61 58 59 56 53 49 47 49 48 46 46 49 49 42 36 37 42 47 47 44 43 43 43 41 36 34 37 41 44 49 51 49 50 59 60 59 61
56 65 66 69 59 54 56 53 50 54 54 49 50 49 50 50 49 49 49 51 50 42 36 37 42 43 43 46 46 46 44 43 41 39 39 41 47 50 47 51 54 59 62 62
53 69 73 68 69 68 58 50 54 51 53 50 52 49 49 48 49 52 53 54 52 50 40 36 37 38 43 48 52 49 48 50 44 42 41 39 39 41 40 44 49 57 69 68
52 67 81 75 77 76 43 49 59 56 48 45 45 52 48 46 48 50 53 53 55 53 50 44 45 44 40 40 48 52 51 52 51 47 43 43 43 40 39 39 37 47 63 65
53 61 70 77 77 55 42 40 51 60 50 54 49 52 57 49 48 49 56 56 58 58 55 50 48 46 43 42 50 53 50 51 50 50 44 48 49 44 44 42 43 49 58 63
60 58 70 85 84 66 38 48 58 52 50 54 55 58 60 55 59 57 55 54 54 57 59 54 52 47 45 47 48 52 50 49 50 52 54 55 59 53 53 52 50 49 53 56
70 74 78 70 74 55 42 48 51 54 49 53 57 58 65 67 65 65 62 58 58 59 61 58 56 51 46 49 49 48 52 54 57 57 61 60 62 62 62 63 59 57 56 53
72 73 70 74 76 69 55 63 67 66 54 53 50 52 53 60 71 67 68 64 61 60 62 61 57 58 53 50 49 49 55 58 63 68 65 64 65 66 69 72 63 62 60 55
67 70 73 63 60 56 62 61 52 46 44 44 42 43 53 56 65 70 73 74 67 65 62 65 62 63 61 59 58 54 57 63 66 69 71 71 70 72 73 68 65 63 60 63
63 57 55 53 46 44 43 52 58 57 50 46 46 45 50 58 65 69 74 77 74 69 66 66 68 69 67 64 61 62 63 65 67 73 74 71 75 73 74 74 74 76 80 82
63 61 60 58 53 50 46 51 50 48 45 44 46 54 56 69 70 70 68 67 69 76 72 72 72 75 74 72 71 73 75 74 76 84 83 81 77 77 79 79 81 84 85 88
65 62 64 59 65 63 59 60 57 56 56 52 52 55 68 73 82 78 77 71 65 72 76 79 80 83 89 82 82 82 80 78 78 83 84 84 86 88 87 88 91 90 93 94

GFSCGP_prec_cthk_078.txt.gz
RH
53 50 46 43 41 40 40 39 35 34 38 34 30 28 28 30 32 32 33 32 37 42 50 42 39 43 43 38 38 41 63 76 82 87 79 84 85 89 92 94 92 92 88 88
60 51 46 48 45 43 44 41 37 36 39 40 32 28 28 29 34 32 30 32 35 40 48 45 37 38 38 37 33 42 63 81 85 89 89 92 92 96 96 91 85 83 81 82
55 52 51 51 49 44 43 43 40 40 41 41 35 30 28 28 32 29 28 30 33 39 47 44 36 32 36 33 32 40 50 68 81 87 89 93 96 95 94 88 84 84 85 91
58 50 53 53 49 45 44 43 41 43 44 42 39 33 27 31 33 32 28 27 31 36 45 42 38 34 32 31 27 33 42 50 56 63 71 80 91 94 89 90 87 90 91 92
60 54 49 50 49 46 44 43 42 43 44 44 39 38 29 32 34 32 28 28 28 35 41 43 43 42 34 31 22 29 36 43 48 53 58 64 77 89 87 86 88 88 91 93
72 60 55 51 52 49 47 46 45 46 46 49 40 38 32 30 33 33 28 27 27 34 38 43 44 44 40 32 26 32 35 39 44 47 51 58 66 76 89 92 87 89 88 90
61 66 61 58 55 53 48 49 53 55 55 48 40 42 35 34 36 35 28 26 28 29 36 41 42 45 44 33 29 31 36 37 40 44 47 52 58 62 75 83 85 82 80 79
61 64 65 58 57 57 54 54 52 53 53 51 49 47 41 35 37 36 35 28 29 28 33 40 42 46 47 32 28 27 35 38 40 43 45 48 51 55 60 64 66 65 65 67
45 45 52 62 54 57 66 63 56 55 56 55 50 50 43 37 39 37 36 30 29 30 37 38 39 46 49 37 26 26 29 36 39 42 44 46 50 51 54 56 58 57 58 59
51 48 39 47 60 54 58 60 64 62 68 65 51 50 47 39 38 40 39 35 33 33 38 40 42 42 46 38 35 29 28 29 36 39 43 46 49 50 52 53 52 53 56 59
44 47 55 50 55 54 59 61 57 56 59 59 57 50 48 41 41 41 39 36 37 36 39 39 41 43 45 39 37 37 34 30 33 38 43 48 51 53 55 58 60 64 67 67
53 51 56 55 52 51 49 52 55 60 61 59 57 54 53 45 47 49 48 40 40 42 42 44 45 44 42 41 41 43 45 45 43 42 48 49 51 56 55 57 57 60 65 67
58 51 50 44 45 50 54 57 58 58 57 58 67 59 51 46 44 45 47 45 45 45 48 50 51 51 50 49 47 48 47 49 50 50 51 52 47 48 48 56 58 58 65 67
57 68 61 52 53 55 60 62 61 61 62 59 57 56 53 47 46 44 48 48 47 44 50 52 54 52 52 50 47 46 47 49 50 50 51 51 47 42 44 50 53 54 59 62
57 63 64 56 55 51 53 52 53 56 61 68 58 57 53 49 45 45 44 47 49 47 45 45 50 53 54 52 49 49 46 45 45 45 45 43 47 49 50 46 48 49 54 62
55 57 59 59 55 45 43 43 44 45 46 51 55 53 51 48 46 43 45 48 50 52 49 44 40 45 48 50 50 49 48 46 46 42 38 45 48 47 50 53 55 53 53 59
55 59 63 61 62 56 53 43 40 41 49 52 54 48 45 43 42 44 43 44 46 51 54 51 45 42 48 51 51 50 48 52 48 47 44 44 47 47 49 53 57 57 58 60
53 56 62 64 66 60 42 41 44 51 48 53 49 44 47 45 46 43 43 41 45 49 52 54 50 47 43 41 46 53 56 54 54 50 47 46 48 46 45 41 43 44 46 50
52 56 64 63 58 44 42 42 42 44 47 53 57 54 52 50 43 53 48 48 47 48 55 53 54 51 47 46 49 52 58 58 58 55 51 49 50 47 47 45 45 46 43 45
59 60 62 68 56 52 44 49 43 38 49 53 51 57 55 57 62 56 57 60 53 53 54 54 54 54 52 52 52 52 53 55 57 57 58 58 55 57 53 51 54 54 55 56
74 70 70 63 66 57 57 58 55 57 65 57 50 54 54 55 58 61 58 58 65 58 55 53 53 57 57 56 54 51 50 53 60 60 57 58 58 62 67 61 56 59 59 62
75 74 74 68 68 69 51 56 54 58 58 56 57 59 58 56 54 58 63 62 61 65 62 58 58 60 61 59 59 59 56 59 59 61 60 60 64 66 70 73 69 69 71 73
80 67 72 65 63 68 83 71 61 63 63 60 58 52 48 47 48 57 62 70 68 66 70 68 64 64 66 66 63 67 62 64 66 65 66 68 71 71 75 84 87 84 78 80
64 63 72 78 66 62 64 60 58 54 53 55 53 46 48 47 50 59 63 64 66 72 69 78 76 73 72 71 70 71 69 69 69 71 72 74 75 82 81 84 84 82 83 80
69 66 59 56 53 53 54 57 55 53 52 49 46 44 45 45 49 55 69 80 75 72 69 77 82 82 79 79 74 73 75 78 80 82 81 84 83 81 79 82 84 83 85 82
67 65 65 61 65 61 58 57 58 55 53 51 50 52 56 58 53 59 70 77 81 83 76 73 78 83 87 87 88 85 82 80 79 81 82 84 85 85 87 90 92 88 91 90

GFSCGP_prec_cthk_081.txt.gz
RH
50 47 42 44 45 44 46 43 42 40 39 36 33 30 29 32 29 32 37 36 40 37 41 46 45 39 38 38 37 37 43 61 74 81 78 81 83 82 89 89 92 94 94 92
56 58 49 45 47 50 47 46 43 42 41 38 36 32 29 27 26 28 33 35 40 39 41 43 46 42 32 33 36 32 44 63 80 82 82 79 86 83 81 87 92 94 93 93
58 52 60 53 53 52 52 49 44 45 45 44 39 36 32 30 27 28 29 30 32 36 39 42 45 38 32 29 32 30 39 54 70 82 83 86 89 91 91 90 93 92 89 89
66 63 65 65 59 56 57 51 45 47 46 49 43 38 32 29 26 27 32 32 31 30 35 39 44 36 33 28 27 27 34 45 50 57 69 74 81 86 90 91 93 91 92 92
76 65 63 58 59 58 56 53 49 47 47 51 44 42 33 33 31 33 31 30 30 32 30 36 41 40 39 34 27 23 28 39 46 51 55 60 67 73 84 86 92 89 90 90
69 74 68 64 56 58 59 53 53 50 49 52 45 44 38 34 34 37 36 33 31 30 31 35 41 43 41 40 29 26 29 34 40 45 49 53 60 67 73 86 84 82 78 84
75 65 70 67 61 58 56 55 58 57 55 55 45 44 41 35 35 37 36 33 32 30 29 35 40 44 44 41 31 27 30 33 35 41 46 51 55 62 67 77 84 81 80 83
84 78 63 68 66 62 59 55 54 59 60 54 47 45 40 38 39 37 35 33 33 30 30 28 38 44 45 41 33 25 29 34 35 39 43 49 53 55 62 64 66 66 66 72
79 69 64 68 68 70 67 57 53 66 63 61 57 50 49 43 40 42 40 38 35 37 29 29 35 42 44 44 36 26 25 31 35 37 41 44 49 52 53 55 58 56 57 61
64 71 58 59 66 70 68 67 68 66 69 67 54 50 50 48 42 46 44 45 41 37 32 32 37 41 42 44 40 29 25 28 31 33 36 39 44 50 53 53 55 55 57 58
63 64 79 51 57 64 68 67 74 71 65 68 68 58 53 52 47 49 52 49 41 39 37 36 40 43 45 45 42 33 28 27 32 33 34 36 41 47 55 59 59 62 68 67
61 63 63 62 54 56 62 60 64 73 71 65 64 65 53 52 51 52 58 48 45 41 40 38 41 44 48 47 47 36 33 29 31 35 36 38 41 46 47 48 55 62 64 63
65 61 64 82 66 59 56 57 60 61 63 74 85 61 55 58 52 52 53 53 55 51 48 45 44 44 47 48 49 42 37 39 38 38 41 42 42 43 45 45 48 55 61 62
62 70 65 66 65 67 60 61 58 60 67 61 63 61 60 58 55 54 52 52 54 53 55 50 51 51 49 51 52 54 51 50 49 47 48 46 46 48 47 47 47 51 53 55
73 63 67 69 77 66 69 65 64 63 64 69 65 66 60 59 54 51 49 50 50 52 51 52 52 55 57 54 55 55 57 54 51 51 51 50 54 55 53 49 49 49 49 51
61 62 68 55 50 58 56 53 56 56 56 54 52 50 50 51 56 47 46 45 46 50 51 53 51 51 55 60 58 58 55 54 56 52 49 50 49 51 51 53 54 52 50 53
68 67 59 67 63 62 58 44 40 40 43 46 52 56 51 52 48 44 38 34 39 46 51 53 55 54 50 49 54 58 56 56 54 54 54 54 50 48 49 55 56 55 56 57
53 55 62 69 66 68 52 54 49 49 43 58 63 58 53 48 44 40 46 39 39 39 41 48 51 54 57 52 49 53 60 59 58 56 54 55 55 53 53 53 53 54 56 56
53 52 58 61 51 43 44 46 45 40 48 64 56 56 58 61 52 63 58 53 48 46 44 47 50 51 54 60 57 54 54 60 59 55 60 58 59 60 60 56 52 52 50 47
55 56 58 62 58 47 38 49 48 44 48 57 55 56 54 48 49 66 70 64 53 58 57 50 51 54 57 61 62 58 55 57 58 63 65 67 65 63 58 61 59 59 54 55
66 65 63 60 59 50 60 61 50 52 62 65 64 59 55 54 52 46 46 49 58 59 61 64 61 57 56 64 66 64 61 58 60 65 65 69 71 70 66 67 65 63 59 63
73 78 74 69 74 68 54 58 56 72 79 71 67 63 54 51 54 52 50 56 58 59 61 61 66 68 63 61 64 67 70 66 63 63 65 66 72 75 78 73 67 66 64 67
87 66 69 61 60 68 75 63 76 72 64 63 61 57 56 56 54 53 50 56 59 62 60 61 67 66 71 72 70 73 73 73 72 70 70 69 73 77 83 82 82 80 79 80
72 80 80 87 77 83 78 89 80 71 67 64 59 53 51 50 48 47 47 48 49 56 58 59 59 66 72 77 79 81 81 80 76 78 78 77 79 80 79 86 88 90 90 91
72 79 67 72 77 74 80 81 81 67 59 52 47 46 45 46 46 45 48 47 52 55 60 70 70 66 72 78 84 89 88 88 88 86 87 85 84 87 87 90 90 96 99 98
75 79 75 77 81 80 79 71 65 59 56 53 53 51 50 49 48 52 55 57 56 58 61 64 74 77 77 77 82 89 94 96 93 90 87 90 93 93 94 94 95 99 98 99

GFSCGP_prec_cthk_084.txt.gz
RH
55 57 54 55 57 52 52 49 47 40 38 40 40 33 30 35 35 34 33 32 36 40 46 42 43 42 44 37 36 33 32 35 49 67 66 67 72 73 74 75 81 90 95 98
67 54 53 56 50 55 57 58 52 45 45 46 42 35 32 32 29 30 30 31 32 37 43 47 41 42 44 37 32 32 29 36 46 68 71 73 73 75 79 81 91 93 93 92
76 69 69 61 56 54 51 59 52 50 45 46 45 39 34 32 31 31 29 27 29 35 43 45 39 41 44 34 29 28 28 34 43 52 64 75 79 82 85 86 95 94 94 95
84 83 80 80 74 66 59 55 55 55 54 55 50 44 36 35 34 34 31 29 28 31 37 39 37 39 43 39 32 28 26 33 40 44 49 54 63 73 82 87 92 93 92 89
75 85 83 83 75 75 67 61 67 66 62 54 49 49 34 33 33 35 30 29 31 31 32 35 35 37 43 42 39 29 27 33 37 39 42 46 53 57 69 78 84 89 89 87
67 78 87 84 78 74 78 76 73 68 64 59 48 49 39 34 34 37 35 35 33 32 32 33 33 36 42 42 40 30 27 33 37 38 39 44 47 52 56 71 80 84 86 86
69 75 79 75 84 73 68 75 88 85 71 60 47 47 39 33 34 38 39 38 35 34 35 37 33 33 40 43 41 35 26 30 37 38 40 45 48 50 53 63 76 79 81 81
81 81 75 73 71 77 70 66 81 80 74 61 49 46 39 34 34 36 38 38 37 35 33 38 35 33 40 43 41 38 26 28 34 38 40 46 47 50 51 54 64 74 77 77
75 81 69 72 73 81 76 69 61 73 74 88 67 48 48 40 37 37 38 39 38 37 36 39 39 34 38 42 41 39 30 26 30 35 39 44 48 48 50 53 53 54 57 58
61 74 68 69 70 74 77 74 81 83 84 94 65 56 50 47 43 42 44 47 48 41 39 39 37 32 38 40 42 42 36 27 26 31 34 38 42 50 54 57 57 58 58 55
56 66 68 77 76 81 75 86 89 85 76 98 89 70 66 57 52 49 53 52 51 46 42 42 38 36 39 42 41 42 40 32 27 27 31 33 37 43 50 57 60 61 63 62
64 70 68 69 73 64 74 72 79 95 91 79 90 81 67 61 58 56 55 52 53 48 42 43 44 42 41 44 44 45 45 35 30 29 30 32 36 40 45 49 52 54 55 62
60 61 68 69 69 65 66 76 77 81 85 97 98 75 68 63 63 58 57 55 52 51 56 51 48 47 48 46 48 47 47 40 33 33 35 36 37 41 42 45 50 52 53 56
61 62 72 91 88 92 70 65 69 76 83 87 87 86 78 72 66 60 56 57 55 56 52 53 55 51 53 52 51 50 49 49 47 43 45 43 43 46 48 51 52 54 54 54
65 67 62 66 85 87 86 83 80 69 75 77 70 69 75 75 66 59 56 54 53 54 54 57 57 56 62 55 54 54 54 55 55 54 52 49 49 52 55 57 56 56 55 54
66 67 61 60 66 67 70 75 69 82 82 71 67 67 64 60 58 60 54 50 52 54 54 55 61 56 56 59 60 57 58 58 59 61 58 58 57 56 55 55 54 55 55 52
75 74 64 64 62 62 60 56 53 47 48 51 54 49 52 54 53 49 46 51 50 51 52 53 52 54 57 57 59 64 61 61 60 58 59 58 57 56 54 54 53 51 54 62
55 69 71 68 61 77 55 55 59 61 53 45 52 70 71 66 66 57 55 44 42 40 41 46 51 52 52 54 57 59 60 64 62 61 59 58 58 58 58 57 56 56 57 59
43 53 69 71 65 59 55 56 56 55 53 57 62 62 68 65 68 66 57 51 50 52 50 46 46 47 49 52 50 55 56 59 66 61 64 63 68 67 64 62 59 63 63 63
46 49 57 65 64 59 42 41 47 45 48 62 66 81 73 66 65 61 55 51 67 65 66 60 53 49 49 48 52 56 60 62 64 68 74 68 70 69 68 67 69 74 70 68
66 62 61 57 61 50 40 53 46 51 67 68 68 66 62 57 49 48 53 50 52 61 62 62 60 56 59 55 55 60 62 62 64 64 65 69 68 68 72 71 77 77 80 71
76 77 74 65 68 67 59 61 61 75 78 79 75 69 63 57 58 56 51 55 62 73 57 56 58 56 55 59 63 64 66 71 75 76 74 73 73 75 79 77 74 75 75 74
80 70 67 58 54 56 63 63 82 82 82 80 75 72 71 63 59 52 54 53 48 45 43 46 52 56 56 54 58 67 71 71 76 78 77 80 81 82 80 81 83 82 83 85
89 79 85 77 82 84 95 89 71 73 68 70 72 67 63 61 60 60 57 51 49 45 43 45 51 54 57 56 56 56 62 70 78 83 84 83 87 89 91 90 93 95 93 94
86 91 82 84 91 93 97 97 95 87 79 75 69 64 61 53 47 46 45 45 46 47 53 51 50 51 54 57 65 64 63 62 64 82 91 94 94 92 93 91 98 98 99 98
90 93 92 98 94 97 97 94 89 81 77 66 58 55 53 50 50 50 49 51 51 52 54 56 57 55 54 54 56 66 74 71 71 71 90 95 96 95 95 97 97 96 99 98

GFSCGP_prec_cthk_087.txt.gz
RH
34 36 36 45 54 58 60 63 57 48 41 48 46 44 36 35 36 32 33 33 30 30 31 35 38 36 34 37 38 34 31 32 29 42 61 63 62 65 62 61 64 63 68 80
31 34 42 47 47 61 62 70 66 52 43 56 49 48 41 41 37 34 35 33 31 30 32 33 39 37 34 36 38 29 29 29 31 38 56 66 63 64 66 66 72 79 80 92
41 40 47 53 57 64 63 62 66 58 52 60 58 50 44 38 33 32 33 32 32 30 32 32 38 37 35 35 35 29 26 25 31 38 44 58 66 72 70 68 74 83 91 93
49 49 53 59 57 63 67 66 65 69 74 82 65 64 51 41 36 35 36 34 30 28 30 32 38 39 35 35 38 34 26 22 29 37 41 44 46 57 69 75 79 87 95 94
47 55 66 74 71 77 75 73 78 84 79 77 66 69 45 40 36 36 36 32 32 30 30 33 37 35 33 34 37 34 30 23 29 36 39 41 45 51 58 70 81 88 94 95
46 50 60 74 81 82 85 88 87 84 87 90 65 73 51 36 33 35 38 38 32 31 32 31 35 33 32 35 36 36 32 24 30 35 38 41 44 47 53 62 75 88 92 94
43 51 62 68 85 85 95 96 98 98 97 80 56 64 52 35 33 36 39 38 35 33 33 36 36 35 33 32 35 37 36 25 29 33 37 40 44 46 51 59 70 83 87 91
47 68 66 72 79 87 88 95 95 88 89 77 55 60 45 36 35 37 42 40 37 37 36 38 37 38 32 31 36 37 37 27 28 32 36 39 44 46 49 55 65 74 80 81
51 68 75 77 87 80 90 92 80 94 84 93 73 60 45 43 42 41 41 42 39 40 41 42 39 40 37 31 34 37 37 34 26 30 34 39 41 44 47 51 55 58 62 66
47 58 60 73 79 81 88 92 90 96 93 95 71 66 60 53 47 44 43 44 43 44 43 43 42 40 35 31 35 38 39 36 28 27 31 32 37 41 50 54 55 55 59 57
55 54 59 68 78 84 88 97 96 90 86 97 97 87 78 63 58 55 52 52 50 48 49 49 48 45 38 37 36 38 38 38 37 27 28 31 32 36 43 50 57 57 56 58
63 58 60 64 69 78 88 93 93 98 89 88 98 94 86 79 68 61 57 56 55 53 55 58 57 49 40 41 40 41 43 42 40 35 27 31 34 36 38 42 49 53 52 53
58 68 77 66 71 73 78 88 90 89 94 96 96 89 89 84 75 68 62 60 58 58 57 51 58 56 50 48 46 47 49 48 45 40 33 32 36 38 39 43 44 47 50 52
60 62 68 82 93 98 94 88 87 97 97 87 94 87 86 87 80 68 67 65 61 58 62 57 55 65 62 52 49 46 48 50 50 47 43 39 41 44 46 46 47 49 53 53
51 61 70 63 69 87 90 97 94 95 88 96 83 88 82 86 86 76 73 67 65 61 63 63 62 57 62 78 70 56 52 51 52 54 51 50 51 52 52 51 53 56 56 56
46 55 79 67 65 70 88 83 89 88 95 91 91 89 88 74 80 76 75 67 65 65 64 63 63 66 63 59 61 70 69 62 58 60 60 59 57 57 57 59 60 61 60 57
56 52 67 68 68 63 72 68 71 76 76 74 82 79 69 78 79 78 74 67 68 63 57 56 58 60 62 64 65 65 68 70 68 65 65 66 64 59 59 61 63 61 60 61
57 57 64 75 67 75 65 65 66 65 72 68 70 67 73 79 78 72 65 62 59 56 52 53 53 55 57 56 61 66 64 66 72 77 73 71 71 68 68 67 61 62 66 65
40 49 60 76 75 58 55 58 52 65 74 73 70 66 72 74 82 80 77 68 61 56 51 55 55 49 46 45 53 57 63 65 64 68 73 75 76 71 70 69 65 66 69 68
38 44 56 60 76 70 48 59 60 54 82 78 75 69 65 78 85 83 76 69 62 52 48 55 58 47 45 43 45 48 54 59 62 64 70 73 72 72 76 76 78 74 76 73
74 61 63 63 71 61 50 56 59 64 79 70 59 61 72 77 85 89 81 71 61 56 49 48 59 59 50 47 42 43 50 53 61 63 65 66 65 66 71 73 82 82 80 82
84 85 82 73 73 69 53 55 59 71 67 65 60 58 58 67 77 76 71 62 55 48 46 45 44 44 47 45 50 50 47 49 55 60 64 64 65 68 68 73 80 87 87 87
95 77 83 75 66 74 77 72 82 75 74 80 78 74 69 68 65 60 59 55 52 48 47 45 43 42 44 45 46 48 50 52 51 51 55 61 69 68 70 78 83 84 89 92
97 90 81 78 88 86 88 94 88 87 93 85 85 81 75 69 66 60 58 52 49 53 52 46 43 44 45 44 47 51 51 52 53 52 51 50 58 72 76 82 88 93 94 95
97 94 94 96 95 92 99 97 97 91 80 71 68 65 62 65 63 59 58 51 48 46 45 44 43 43 44 44 44 43 46 48 50 56 56 54 55 56 69 82 89 95 97 98
86 97 99 98 98 98 99 96 94 90 85 81 79 71 70 62 59 56 53 50 48 48 47 47 47 46 47 48 48 50 50 49 51 52 51 54 58 60 63 71 80 88 94 95

GFSCGP_prec_cthk_090.txt.gz
RH
25 29 28 33 40 44 45 46 44 44 46 49 54 49 36 33 36 35 34 30 30 28 28 29 32 36 36 38 34 37 33 27 28 28 36 56 62 62 60 60 52 51 73 75
26 27 28 30 33 38 43 47 47 46 49 61 58 47 41 38 37 37 32 30 29 30 29 31 32 37 36 36 38 36 30 25 25 27 35 49 63 63 66 62 62 62 63 71
32 33 31 32 35 38 37 45 47 52 55 65 62 56 48 40 42 37 33 30 31 32 31 31 33 36 36 37 40 36 32 25 23 24 35 41 55 65 68 67 68 67 73 78
44 45 47 49 46 44 45 45 48 56 74 77 74 69 55 47 46 38 33 32 32 33 32 31 34 36 35 36 40 37 37 29 23 23 34 39 43 46 60 70 74 77 86 94
46 47 47 51 53 53 49 49 52 62 78 84 74 89 53 54 47 37 32 31 32 34 33 33 34 34 35 37 38 38 39 31 22 23 32 37 41 44 48 57 67 82 87 92
42 43 45 45 50 55 62 67 75 79 90 88 67 82 62 54 46 40 34 33 33 35 34 32 34 36 37 38 39 38 38 32 23 22 32 36 41 43 49 52 63 77 86 94
40 42 44 52 60 60 72 87 95 98 96 72 60 71 63 49 48 43 41 39 35 34 34 35 37 38 40 38 38 38 39 36 24 22 31 35 40 43 48 54 62 75 86 94
40 39 45 54 60 65 73 93 96 90 90 78 64 64 55 48 51 49 46 41 36 33 34 35 37 37 37 35 39 37 39 37 29 20 29 35 39 42 46 53 61 71 84 88
44 46 47 52 61 70 82 96 92 98 92 91 72 64 54 57 58 52 46 47 40 36 36 39 41 41 41 44 42 37 40 38 35 19 26 33 37 39 44 49 57 64 70 78
46 47 44 51 63 74 79 96 98 99 96 95 74 70 80 68 69 58 52 50 44 41 40 40 42 45 45 46 45 39 41 41 36 25 24 30 33 37 44 48 50 56 61 63
54 56 54 49 60 74 90 96 97 96 92 96 94 94 88 76 77 66 59 59 53 50 48 46 46 49 49 49 43 40 45 45 41 34 24 27 30 33 39 45 49 52 57 60
61 64 58 49 60 67 79 96 97 99 92 90 96 83 95 85 80 73 67 61 61 52 48 50 51 53 54 50 45 46 48 47 45 39 32 25 29 31 35 40 47 50 50 52
54 64 72 56 64 78 94 90 94 95 98 95 94 84 89 92 88 85 79 68 68 61 56 56 58 63 64 57 53 52 51 49 50 48 40 29 29 33 36 38 42 47 49 51
45 51 66 81 81 89 97 92 96 95 99 89 90 82 85 93 95 94 84 76 72 67 62 61 66 71 74 68 62 64 62 58 56 55 50 42 32 34 41 43 45 46 49 52
47 50 59 67 71 81 87 91 93 98 96 97 87 84 85 90 93 95 90 81 74 70 65 66 68 68 66 70 74 68 67 66 61 59 58 56 54 48 44 44 49 52 53 56
50 48 46 51 65 83 72 85 87 90 97 94 93 87 87 88 95 95 92 86 80 76 75 71 68 68 69 65 68 73 72 75 77 72 57 62 62 62 63 61 56 55 56 58
55 58 59 54 62 75 74 73 81 76 89 82 95 86 86 88 92 93 91 84 79 80 80 75 73 71 69 68 69 65 65 68 73 77 77 76 71 74 75 77 75 69 68 68
51 55 57 62 55 66 60 67 67 88 86 82 82 87 88 91 92 89 89 85 83 79 76 75 73 67 62 64 64 66 64 63 66 74 79 82 85 81 79 78 75 73 71 71
44 49 53 55 58 52 58 65 74 76 86 81 87 90 85 81 89 88 91 89 87 83 79 72 66 60 55 51 53 57 62 61 60 64 72 77 81 82 84 80 76 79 81 78
52 51 56 55 62 62 52 64 66 74 84 81 86 90 85 78 86 91 90 91 88 83 76 71 64 55 48 48 47 45 48 55 59 62 63 63 65 69 76 82 81 81 82 82
77 82 62 55 64 56 45 65 67 77 83 80 85 84 84 84 82 84 87 90 85 78 73 70 62 47 39 36 45 42 42 44 48 54 54 55 61 63 64 68 77 81 79 80
78 94 92 78 70 69 46 61 77 84 81 77 81 80 76 73 73 77 83 84 76 71 67 62 55 48 44 39 42 49 50 48 48 46 45 46 48 52 59 64 63 66 73 79
90 89 92 82 73 76 69 64 70 78 81 84 85 78 72 71 67 64 62 66 67 69 66 59 55 52 50 42 40 41 48 50 53 50 46 46 45 45 45 47 55 69 74 78
98 94 94 91 96 85 89 97 87 86 94 93 85 86 82 78 77 71 67 60 57 56 54 55 53 49 42 38 38 38 39 40 43 48 47 46 44 46 44 46 49 49 51 66
97 98 99 98 98 98 97 98 99 96 94 88 91 87 81 77 74 70 64 58 58 54 48 44 42 40 38 38 38 39 39 41 43 43 44 45 44 42 41 42 43 44 47 54
97 97 97 98 96 99 98 98 98 97 95 89 84 78 73 69 63 62 61 58 55 48 44 45 44 43 43 43 44 43 44 46 48 48 48 48 47 49 47 44 44 46 49 51

GFSCGP_prec_cthk_093.txt.gz
RH
24 28 28 27 32 36 41 43 45 44 45 46 44 38 32 31 29 33 29 28 28 28 30 32 32 30 34 39 43 41 36 38 32 26 24 28 36 57 61 60 61 67 64 73
26 24 22 26 28 32 37 42 44 45 47 47 47 42 34 31 30 34 34 30 30 30 30 31 31 31 34 37 40 42 40 37 31 25 23 27 33 53 60 60 59 58 63 82
27 26 24 24 27 30 32 36 39 43 46 47 50 42 36 30 35 41 39 35 34 32 32 34 32 31 36 37 38 40 40 39 34 26 23 28 33 42 51 63 60 57 56 56
29 29 32 38 39 40 46 39 43 44 49 50 53 46 30 33 36 41 39 39 38 36 33 35 32 31 37 36 38 41 42 40 37 27 23 26 31 34 38 50 60 65 64 63
40 43 45 47 49 50 50 46 48 47 56 65 62 72 27 35 37 39 40 42 40 38 35 34 32 34 37 37 38 42 42 41 39 29 23 25 30 34 37 42 49 57 67 74
37 43 42 41 42 46 51 54 55 59 65 68 52 69 39 39 38 41 42 43 45 43 38 34 34 37 37 40 41 42 42 40 39 30 22 25 30 32 36 41 48 56 64 77
40 42 42 43 52 59 64 67 73 79 80 70 57 72 51 42 39 40 42 47 47 46 40 37 37 38 38 40 40 43 41 39 40 32 22 26 31 33 35 39 50 58 66 77
45 35 38 46 52 62 71 68 77 78 84 79 62 61 51 43 42 45 47 47 50 46 42 39 37 39 37 40 43 43 41 38 39 36 23 27 33 34 35 40 48 56 69 79
42 41 40 46 50 58 74 77 82 91 96 95 74 61 55 55 54 54 51 51 47 45 40 38 39 39 40 41 39 41 42 42 40 38 25 26 34 35 36 39 48 53 63 73
39 44 44 52 55 63 75 83 91 96 97 96 75 70 71 78 73 64 60 54 49 46 42 40 42 42 42 48 51 51 54 46 43 40 29 24 30 34 36 41 44 51 57 63
49 53 56 60 62 67 76 84 92 98 99 97 92 86 92 91 84 75 70 62 52 46 46 47 48 47 48 53 55 55 54 48 45 44 39 24 27 30 33 38 44 47 52 58
61 66 68 60 53 63 76 81 92 99 98 95 91 80 92 93 87 82 75 70 60 52 52 51 55 54 53 58 61 63 58 50 51 50 45 37 25 29 30 33 40 46 50 51
61 71 74 69 65 73 86 93 96 95 97 95 98 81 83 86 92 86 81 77 67 67 62 61 61 62 63 66 68 66 63 58 59 57 54 48 37 30 31 34 38 43 48 50
60 63 65 74 74 70 87 87 90 95 99 92 90 83 85 85 88 94 92 88 82 78 78 73 72 72 74 76 79 79 71 70 67 60 60 58 52 36 34 36 38 42 45 47
62 61 54 54 55 59 71 80 85 88 94 96 86 86 88 83 85 92 93 97 92 87 83 83 82 79 80 82 83 81 77 74 73 68 65 69 65 55 49 48 48 49 50 53
55 55 52 49 50 55 54 60 68 75 87 92 91 87 85 85 89 91 96 97 97 91 86 85 83 78 77 80 77 83 79 75 75 75 75 75 75 69 64 65 64 63 61 59
54 54 54 55 44 39 36 63 64 75 84 91 95 84 80 84 92 93 97 97 98 93 91 88 84 77 71 74 76 74 75 72 70 76 77 79 81 80 81 81 81 82 82 82
46 46 52 59 44 45 28 52 73 78 87 91 88 89 92 94 96 98 98 98 97 97 94 91 86 81 73 68 69 70 69 69 71 72 75 78 82 83 83 85 86 87 87 87
42 50 56 61 54 35 25 48 64 73 79 87 94 94 93 93 94 99 99 99 99 97 96 90 83 78 70 63 62 60 61 62 64 69 69 69 72 77 81 85 85 85 87 86
54 53 59 61 62 53 35 46 62 74 85 80 90 94 96 93 94 96 99 99 98 97 93 88 85 77 66 57 53 52 52 48 49 52 55 60 60 62 65 69 74 79 85 85
62 64 66 70 69 53 26 40 59 83 82 80 87 89 97 97 97 97 94 92 90 91 90 83 78 73 67 60 54 49 46 45 48 46 46 47 47 52 54 56 59 62 64 72
67 76 77 78 80 72 43 35 53 83 93 89 89 92 91 94 95 96 93 89 87 79 77 75 73 72 67 64 62 53 47 44 42 45 50 49 45 42 39 39 40 44 49 55
75 80 88 82 74 79 62 61 61 69 84 90 89 90 93 94 91 87 84 84 78 72 71 70 68 64 64 61 57 53 47 44 43 42 43 47 49 46 43 40 41 43 43 44
81 92 99 96 89 87 82 76 74 77 77 81 90 82 84 86 84 76 75 77 74 70 63 60 59 57 55 56 55 50 46 45 44 40 41 42 44 45 44 40 35 36 37 37
91 92 98 98 93 96 97 95 97 96 90 85 96 94 96 93 87 86 84 80 76 72 65 59 53 47 46 46 45 44 43 42 41 42 43 43 42 42 42 41 40 38 37 38
94 97 98 98 98 97 98 99 98 98 98 96 89 91 90 91 85 80 79 75 72 67 61 60 56 54 51 48 46 44 44 45 45 45 45 45 44 44 44 44 43 43 44 46

GFSCGP_prec_cthk_096.txt.gz
RH
29 31 32 28 31 33 37 40 42 41 41 41 38 34 35 34 30 31 29 27 26 25 27 27 28 27 31 34 35 35 42 41 38 35 30 26 26 31 37 59 62 61 64 67
34 33 29 29 29 31 34 37 38 38 38 40 40 32 32 33 31 30 28 27 28 28 27 30 30 29 32 35 35 36 42 41 40 36 32 25 25 30 37 50 60 61 69 64
43 37 28 26 25 27 29 31 31 33 35 36 39 28 24 27 27 27 27 27 29 30 30 31 33 33 34 36 34 35 42 40 42 39 35 25 26 30 35 39 45 64 59 71
38 30 31 30 30 29 35 34 36 37 41 47 44 42 25 24 21 25 26 29 30 35 33 34 36 35 36 37 36 37 41 42 44 41 38 25 25 28 32 36 40 51 59 59
36 38 36 36 37 41 46 45 45 46 47 57 55 56 28 27 27 25 24 29 31 38 36 36 36 39 42 40 39 39 42 44 44 42 39 26 26 29 33 37 41 45 50 54
36 43 43 41 46 47 46 44 43 50 57 63 47 53 36 33 33 34 33 33 32 36 38 38 39 43 42 39 42 41 43 45 44 42 39 27 25 29 33 36 39 44 48 54
41 42 45 49 49 47 49 52 63 63 68 57 49 60 44 41 43 48 44 40 38 40 42 41 41 42 41 38 40 42 43 45 44 41 40 27 25 30 32 35 39 47 53 59
46 42 45 46 45 51 59 55 64 73 73 72 65 65 56 59 62 60 53 50 46 45 43 41 41 40 39 39 41 42 42 45 43 42 41 28 25 31 33 35 39 48 54 62
47 40 43 49 47 48 63 67 63 77 70 84 71 61 58 66 67 65 61 58 54 48 44 43 42 40 40 43 42 41 42 45 45 43 41 31 25 30 32 36 40 48 54 60
44 49 51 53 50 55 58 66 82 85 86 84 71 71 71 79 79 74 66 62 59 51 47 45 41 41 44 47 45 44 43 43 47 47 42 35 27 30 33 37 40 46 52 58
44 45 55 55 58 61 65 71 80 84 89 94 89 78 88 92 88 80 73 70 66 58 51 46 46 50 51 50 51 50 49 54 61 58 48 41 28 30 33 36 40 46 49 53
52 59 63 63 58 58 65 75 79 90 89 94 93 79 79 82 88 82 77 74 77 72 64 59 58 58 61 57 56 60 61 62 66 60 52 45 35 30 32 35 38 45 50 52
67 68 73 79 73 66 75 83 90 98 92 88 96 77 77 80 79 75 86 82 82 84 76 71 67 66 64 63 63 65 70 70 70 68 59 55 51 37 32 33 36 41 48 52
66 70 66 76 74 69 71 77 89 96 97 93 92 82 74 79 77 76 79 92 89 92 84 79 74 72 71 71 70 73 75 78 82 78 66 66 62 56 40 35 35 37 43 48
69 71 67 59 54 57 57 61 75 85 90 92 81 85 77 81 86 83 83 94 97 95 91 86 83 81 80 80 80 81 84 85 86 84 81 78 73 69 62 47 43 42 41 44
67 67 64 58 47 49 46 45 47 63 71 72 83 83 80 78 89 88 92 98 97 93 89 85 86 86 89 85 92 89 87 85 84 85 85 84 79 76 73 74 62 60 59 57
52 54 58 51 42 42 35 33 48 62 74 81 88 79 80 82 90 92 95 99 96 98 92 88 86 88 88 91 94 94 87 87 82 83 85 84 82 80 82 81 76 73 74 75
41 43 50 56 45 47 24 33 41 60 76 84 87 85 91 93 93 97 97 99 99 97 97 96 96 92 87 87 88 87 85 84 80 79 82 83 83 83 83 83 83 83 81 82
48 48 51 56 54 40 32 42 49 62 70 81 92 96 98 97 96 98 99 99 99 99 98 96 96 92 86 82 79 74 76 78 78 75 75 78 79 80 82 84 85 83 82 82
57 58 60 62 66 61 31 50 43 39 65 76 88 90 93 97 98 98 98 99 98 97 97 96 93 90 86 78 73 69 67 63 59 57 57 59 64 66 66 70 71 74 78 80
59 64 67 68 69 64 51 47 41 49 66 79 89 94 96 98 99 99 98 97 97 97 92 89 88 86 84 79 76 71 65 59 57 55 52 49 49 50 52 54 56 58 61 64
62 73 78 75 81 74 68 56 51 53 58 74 90 93 97 97 96 97 98 98 93 93 89 83 76 76 74 73 71 70 70 68 59 54 52 51 48 44 44 46 47 48 49 49
75 83 82 83 77 79 83 78 74 63 61 67 85 92 99 93 98 98 97 88 85 85 82 74 71 66 63 61 62 61 61 61 58 54 52 50 46 45 43 41 42 43 43 43
77 78 84 95 97 91 90 87 82 81 72 72 73 87 94 92 97 92 87 87 88 84 78 77 74 68 64 58 56 55 56 56 55 52 51 51 48 43 39 37 35 35 34 35
80 79 93 97 95 96 96 95 92 90 87 82 76 81 94 97 97 97 96 91 86 82 79 73 71 67 60 58 55 52 51 52 52 52 52 51 46 44 43 42 40 39 39 39
85 88 95 92 98 98 94 97 98 95 98 97 94 94 91 93 94 94 87 83 78 75 74 70 67 64 59 57 56 54 51 48 47 47 47 48 49 47 47 47 46 45 43 41

GFSCGP_prec_cthk_099.txt.gz
RH
36 38 37 33 29 31 34 38 39 39 37 37 35 32 32 34 32 31 30 30 29 27 26 22 22 24 25 26 27 33 38 39 43 41 36 31 30 27 28 32 44 62 72 70
40 39 35 29 29 32 34 35 35 34 34 35 32 27 28 31 29 26 26 26 26 27 26 24 22 23 24 26 28 33 37 41 43 43 38 34 31 24 28 33 40 49 64 70
40 43 36 35 34 36 34 31 31 31 29 31 31 24 21 21 20 20 20 21 20 21 24 25 25 24 25 26 29 33 37 40 43 46 41 37 34 24 27 32 38 43 59 73
61 50 42 39 39 33 31 27 26 30 36 37 38 35 22 20 19 19 19 20 21 20 21 24 27 25 25 29 32 36 40 40 42 46 41 38 36 21 25 30 36 41 48 57
53 57 60 50 42 36 39 38 38 42 45 47 43 39 24 20 18 24 26 27 26 23 21 23 27 26 28 32 36 40 42 41 41 46 44 42 39 23 27 31 36 40 45 50
56 60 53 46 47 44 44 46 46 49 51 52 39 35 26 28 33 32 34 37 34 27 25 25 29 29 33 35 40 43 42 41 42 48 45 42 39 23 27 31 35 39 46 50
59 57 58 55 52 50 47 45 53 57 64 43 41 47 33 37 46 54 50 48 44 37 32 30 34 35 37 37 40 45 41 41 43 48 46 43 41 24 29 32 35 37 46 52
68 66 53 52 50 51 53 49 48 45 56 56 54 50 41 55 59 60 58 56 51 44 39 37 37 37 39 40 45 46 42 42 44 49 47 46 44 26 30 33 35 39 48 53
53 51 51 49 50 53 62 56 55 61 58 61 46 43 47 58 63 67 66 62 58 54 46 42 37 37 40 44 47 46 43 45 46 51 48 48 45 28 30 34 36 41 49 57
42 57 60 59 57 61 59 58 67 67 70 68 53 54 54 65 76 79 73 69 67 64 57 51 47 44 44 49 51 49 48 50 49 51 51 50 45 31 32 36 37 41 48 54
48 49 70 63 62 63 64 62 65 63 72 76 68 65 78 80 84 81 82 81 76 76 71 63 54 51 52 52 56 55 55 52 52 55 53 53 46 33 32 37 38 41 46 51
59 60 65 66 62 59 58 62 63 67 79 75 81 59 69 74 77 82 78 82 83 84 80 75 67 64 63 62 59 60 54 55 56 53 62 65 50 36 32 37 38 40 44 48
67 71 82 85 75 66 67 67 68 80 80 76 75 58 63 62 71 74 77 81 85 91 90 83 78 74 70 67 65 64 61 60 62 67 71 69 58 46 35 36 38 38 41 45
76 75 68 69 68 66 65 64 68 75 81 72 76 64 66 67 76 78 84 84 90 97 96 91 84 79 75 74 72 68 70 70 74 76 77 73 66 58 49 40 38 39 39 42
76 78 70 65 58 59 61 58 53 53 61 74 66 67 64 72 80 87 90 89 91 98 96 96 90 86 83 81 77 74 74 77 79 82 86 85 83 73 69 54 44 41 39 40
64 74 67 63 53 52 46 38 33 41 51 61 63 63 66 75 83 91 91 89 92 96 94 98 97 95 89 86 83 82 81 85 88 88 93 92 92 87 83 77 68 60 54 48
57 58 55 52 52 45 36 31 31 41 49 58 69 68 78 84 91 94 93 94 95 98 98 96 97 95 95 91 91 91 88 90 90 92 93 91 90 89 87 85 84 83 80 75
49 47 44 48 47 41 32 33 37 38 42 63 74 89 92 95 99 99 96 96 98 99 99 98 94 94 93 93 94 92 93 97 94 95 96 96 92 90 90 87 86 86 86 86
49 48 49 46 45 35 42 51 48 43 42 71 91 94 92 97 99 99 99 99 98 98 99 98 98 95 93 88 88 91 90 97 95 93 97 94 90 89 89 89 88 88 89 89
51 50 50 58 55 49 44 51 48 47 46 67 80 93 94 91 98 98 98 98 98 98 98 98 96 96 91 90 86 84 80 74 73 76 77 80 79 81 81 82 82 84 85 87
61 61 63 67 64 57 62 58 48 40 51 63 71 84 93 98 97 98 98 98 98 98 99 97 92 89 88 86 88 84 79 74 72 68 64 65 62 60 59 62 63 63 65 65
65 67 73 72 73 72 73 66 70 70 60 58 64 81 90 97 98 98 98 98 98 98 94 90 83 79 79 79 79 78 79 80 78 74 67 61 54 52 52 52 48 46 49 52
82 83 77 77 82 85 84 80 79 75 71 66 61 68 81 95 97 97 98 96 93 91 90 83 74 73 70 65 63 64 66 69 68 69 70 69 66 62 57 56 53 52 50 46
78 76 75 77 85 91 93 89 85 78 76 77 73 71 75 88 97 98 97 96 94 95 94 87 78 75 73 71 68 62 59 60 63 65 64 63 59 55 53 52 49 46 43 39
77 76 79 88 91 93 97 95 92 88 86 87 85 81 76 77 87 93 96 96 95 87 81 78 76 72 67 64 61 58 58 57 56 56 56 55 55 54 52 51 48 43 39 38
82 80 78 88 95 95 96 96 94 95 96 92 96 90 85 82 87 92 91 91 87 83 78 75 72 69 66 63 57 55 53 53 53 51 49 47 45 44 43 42 43 43 43 42

GFSCGP_prec_cthk_105.txt.gz
RH
16 24 25 24 43 53 56 53 50 46 46 46 45 40 35 33 31 30 27 27 27 28 28 29 29 25 25 27 32 34 33 30 33 31 37 41 44 44 42 34 28 28 33 35
22 22 17 36 44 55 58 58 51 46 43 45 45 39 33 30 29 28 28 28 29 29 28 29 31 32 30 28 28 32 32 34 33 30 35 42 44 47 47 38 33 24 29 34
22 17 28 34 46 56 60 57 52 44 44 42 38 32 26 23 24 23 23 25 26 27 27 30 32 31 33 33 30 31 33 34 33 35 37 43 44 49 50 41 36 24 29 37
35 32 44 41 48 54 61 56 50 46 46 42 34 31 30 31 29 25 23 24 26 26 26 25 27 28 30 32 33 30 31 33 36 36 36 41 41 50 51 44 37 29 30 35
49 41 47 45 49 52 55 53 50 51 47 42 36 39 28 29 28 32 33 40 39 37 35 35 34 31 26 28 31 30 32 31 35 33 36 42 44 50 56 48 41 28 31 35
59 53 56 51 53 57 56 57 58 54 45 50 41 38 34 36 39 38 42 43 44 45 46 44 42 35 27 26 26 31 33 32 34 32 35 44 45 51 58 51 43 28 30 35
59 73 61 58 61 60 60 63 71 72 65 53 39 39 32 48 51 44 46 47 48 51 52 49 48 47 37 28 25 28 33 33 34 32 37 46 47 55 60 53 44 30 31 34
66 92 75 73 66 63 66 68 62 65 57 46 47 37 40 49 43 45 51 55 51 55 52 51 52 54 48 37 29 29 33 37 36 36 44 52 55 59 62 54 44 30 34 34
69 89 80 76 70 76 81 72 56 78 70 67 58 48 63 54 56 51 55 55 58 53 51 52 54 53 50 48 32 31 39 44 44 43 52 55 59 62 63 56 43 29 37 34
71 75 79 76 70 75 76 68 74 67 65 55 34 41 70 79 62 57 53 54 55 52 54 55 56 57 52 45 44 46 48 48 49 49 54 58 62 65 64 61 42 32 33 34
73 69 78 76 73 70 73 76 71 63 62 68 49 64 75 62 54 55 61 62 60 59 58 58 62 64 57 53 56 52 54 55 51 56 59 63 65 68 66 66 43 35 34 36
65 73 82 81 67 66 62 63 60 61 63 48 59 70 68 53 45 50 56 57 63 62 62 65 68 73 64 61 65 58 60 58 59 60 66 68 72 71 69 68 47 37 38 39
61 67 83 93 73 70 73 67 65 70 68 58 56 70 62 53 49 64 63 61 60 65 68 67 71 78 74 66 64 66 66 66 66 67 71 70 74 76 75 71 52 39 39 41
69 76 77 75 65 65 69 71 60 59 58 64 51 60 68 61 70 69 67 69 67 68 70 74 74 84 81 74 70 70 71 72 74 75 76 74 77 79 80 76 53 50 46 42
79 85 85 80 74 68 70 69 63 67 59 58 68 59 70 71 71 72 73 71 75 77 74 76 80 87 90 83 80 79 79 80 81 80 78 78 84 85 85 78 57 57 57 48
77 69 67 69 69 70 67 59 53 50 51 57 57 82 70 68 71 74 77 80 79 81 81 85 87 86 97 92 88 86 85 84 83 79 82 84 86 87 87 79 66 64 63 55
85 71 70 72 62 60 61 62 62 60 73 67 74 79 69 70 71 76 81 84 85 87 88 87 98 92 98 99 96 91 91 90 90 88 91 88 87 89 89 85 80 74 69 65
69 71 64 63 56 61 69 66 62 69 64 58 62 67 80 84 81 82 83 88 90 92 91 91 98 97 97 99 99 96 95 96 95 94 94 95 93 94 94 94 92 89 85 84
56 54 49 47 51 57 69 67 61 62 75 58 62 75 89 92 87 90 88 93 94 93 94 96 96 97 98 97 99 98 98 98 98 99 98 98 98 98 98 96 97 97 96 92
51 51 51 51 42 70 87 63 57 50 73 65 58 73 85 92 95 96 95 94 96 96 95 96 98 97 97 97 97 98 98 99 96 95 98 99 99 98 99 99 99 98 98 99
53 53 59 53 55 67 67 60 52 70 88 75 67 64 78 90 94 95 96 96 98 98 96 93 92 92 92 95 97 97 97 98 97 98 98 98 99 96 98 98 98 98 99 98
66 76 65 62 61 80 73 62 69 77 72 69 66 63 64 69 75 80 84 91 97 96 97 93 88 85 85 85 87 90 93 94 97 97 97 98 98 96 96 94 95 96 96 96
78 72 74 71 77 82 85 85 84 81 80 78 76 73 69 66 69 75 77 82 94 95 94 94 91 82 81 85 86 83 85 87 83 88 95 98 96 94 89 86 89 85 82 78
68 66 72 73 78 77 83 88 89 88 83 81 82 81 76 74 70 69 70 74 76 82 86 88 84 84 77 77 76 76 78 80 79 80 83 85 85 88 92 92 93 87 82 79
68 69 75 77 76 79 79 85 90 89 87 84 81 80 78 76 74 74 68 62 64 67 72 78 80 79 75 71 70 70 69 70 68 67 67 67 71 75 76 83 87 83 78 76
74 75 75 78 74 75 84 86 91 95 92 89 85 80 77 75 75 73 71 69 65 64 68 70 72 72 71 70 67 63 66 67 68 65 61 60 58 59 61 60 60 62 64 67

GFSCGP_prec_cthk_108.txt.gz
RH
33 30 18 13 16 28 38 48 49 44 46 48 46 41 42 44 37 33 34 33 32 30 28 27 25 23 22 21 24 30 36 35 30 30 31 34 33 36 39 39 40 36 28 23
44 44 15 14 21 26 37 55 55 58 55 52 55 53 50 46 40 37 35 34 33 31 28 28 29 31 29 25 27 35 38 40 34 33 32 35 37 34 38 39 41 39 34 26
52 30 32 20 22 29 38 52 64 61 59 52 49 51 50 46 40 35 32 33 33 33 29 31 31 32 36 37 31 30 36 42 39 34 36 39 41 35 39 38 40 42 38 29
49 42 48 29 22 31 41 50 59 60 62 52 46 45 40 35 32 30 28 27 28 30 31 31 33 35 36 37 37 36 33 36 44 38 35 36 34 33 35 37 41 47 40 28
34 57 56 40 34 31 38 50 63 62 60 53 48 45 36 38 38 37 38 38 39 38 37 36 36 34 33 33 34 38 40 38 41 34 34 35 40 36 36 38 42 50 44 30
33 60 67 34 49 40 45 57 65 62 60 62 48 45 38 39 37 42 51 51 48 51 52 52 50 48 41 35 33 32 35 38 37 39 33 37 39 38 37 40 42 51 49 33
35 70 68 41 47 49 55 61 79 84 87 59 45 47 39 50 51 58 61 59 57 55 53 49 46 46 48 48 43 31 30 38 38 36 34 37 39 42 40 41 42 52 49 34
50 84 75 55 53 46 50 59 80 68 67 57 50 57 46 56 64 63 65 69 62 59 57 50 46 48 47 48 44 38 29 31 41 38 38 40 44 42 44 44 45 54 48 32
95 91 73 72 52 58 59 67 64 81 74 74 60 71 77 63 70 72 70 66 74 64 57 47 48 50 52 49 46 43 36 31 41 41 44 46 48 45 48 50 51 57 50 36
82 97 87 78 72 69 67 66 85 88 95 96 72 79 79 87 77 74 69 66 67 56 53 49 52 52 57 53 49 44 40 32 39 45 47 49 52 50 56 55 57 62 51 37
86 93 82 77 86 82 89 87 80 74 75 89 65 98 93 88 80 87 78 70 62 57 53 53 54 58 64 62 58 55 51 42 47 50 52 55 56 58 64 61 67 64 56 36
82 91 80 72 71 73 88 90 83 82 66 73 95 99 95 88 89 81 65 57 56 57 60 62 62 61 69 67 67 68 65 59 53 51 60 64 62 68 71 68 73 66 61 39
77 87 91 93 80 75 76 68 71 82 83 74 77 97 92 88 81 75 62 62 62 65 63 67 64 63 65 75 70 71 75 72 63 69 72 71 71 75 76 74 73 72 64 48
67 76 75 96 86 70 79 73 76 66 80 66 81 97 88 87 81 71 67 70 69 71 71 67 64 63 68 78 78 79 77 70 71 69 71 71 79 80 79 78 74 77 70 56
79 84 97 96 77 68 81 75 72 72 68 69 85 86 86 84 74 73 72 73 77 78 78 75 71 68 69 75 86 82 78 74 72 75 79 78 84 85 86 81 78 81 75 64
84 90 83 97 86 78 91 65 58 72 76 84 97 98 87 82 77 76 73 74 81 81 79 79 75 73 73 77 88 89 85 84 80 78 82 87 87 91 89 84 79 83 83 75
86 77 78 71 65 67 69 70 81 74 76 79 89 89 83 81 76 73 72 80 83 86 84 84 80 79 84 84 90 97 93 91 91 90 90 89 91 91 94 89 87 90 87 81
84 77 71 70 65 89 86 83 80 83 83 79 77 72 74 84 86 83 82 86 87 87 89 89 87 85 90 93 94 98 99 97 96 96 97 95 96 97 94 95 93 91 91 87
74 75 72 70 70 81 77 79 82 86 88 75 61 66 78 88 91 92 89 92 93 92 92 91 90 90 94 96 98 97 98 99 98 99 98 97 96 99 97 97 98 95 95 92
63 68 62 66 62 87 91 77 60 67 79 75 63 63 70 83 90 95 97 96 95 95 93 91 90 89 91 92 95 97 98 96 97 99 99 98 99 98 97 95 99 97 94 96
69 66 72 67 81 80 74 60 53 67 88 86 77 69 73 82 88 94 96 95 95 93 95 92 88 84 82 87 93 93 96 97 97 97 98 96 98 98 99 96 98 99 97 99
64 94 71 73 81 88 74 62 68 80 81 77 72 72 68 68 72 77 79 80 82 86 93 93 89 79 77 76 82 88 90 95 96 96 96 97 98 98 96 96 97 98 98 98
73 68 72 66 77 81 82 84 84 81 81 80 77 74 72 69 67 67 71 73 72 75 79 87 87 86 81 72 72 76 81 85 88 91 92 95 97 98 98 95 97 97 95 97
67 63 68 70 76 78 79 82 87 88 87 82 81 80 77 73 71 69 67 67 68 71 73 75 74 74 75 74 74 72 70 71 72 77 80 82 85 88 91 94 96 96 96 97
64 62 69 69 72 76 78 79 81 85 87 85 83 79 77 76 74 72 72 69 65 61 61 63 65 68 69 71 68 67 65 65 65 67 67 68 70 72 76 78 85 87 92 96
65 66 70 73 74 73 76 79 84 83 84 88 87 85 81 77 74 73 73 71 69 69 68 67 66 63 64 64 66 66 65 66 66 66 66 67 68 66 65 65 67 69 70 72

GFSCGP_prec_cthk_111.txt.gz
RH
25 50 35 23 16 14 24 41 40 34 32 44 43 38 49 48 46 43 39 36 34 33 32 31 30 27 25 24 20 21 29 34 38 41 43 38 34 31 31 31 34 35 35 34
26 35 42 32 27 18 18 29 36 36 40 56 58 59 53 49 45 40 40 39 37 36 34 34 32 31 28 26 25 22 24 29 37 41 42 39 36 35 34 33 35 37 38 37
36 19 44 47 37 29 22 22 26 38 42 58 76 70 58 53 53 47 44 45 43 40 37 34 34 34 32 30 28 25 25 31 42 47 44 46 44 40 41 35 36 38 39 39
58 24 38 58 63 42 25 23 26 39 54 78 79 72 53 60 56 47 45 45 47 45 42 39 36 34 35 37 36 35 30 33 41 45 42 41 39 38 35 37 40 42 42 40
81 37 38 55 67 54 21 25 34 49 80 81 77 69 43 42 44 44 42 45 51 50 45 42 41 38 37 36 36 38 47 50 39 37 35 32 35 37 35 39 44 45 43 43
65 46 52 55 68 63 40 44 65 63 76 91 56 57 44 44 43 47 51 50 48 46 46 45 44 41 39 39 40 40 39 46 55 51 39 30 33 35 34 38 44 45 44 45
56 38 55 64 65 61 51 57 82 85 96 69 47 57 45 58 60 61 62 60 57 52 50 49 46 42 40 40 42 42 41 35 42 52 45 29 31 35 33 38 42 44 43 44
54 46 49 61 62 60 60 53 77 80 79 59 49 51 39 51 65 73 72 68 62 60 61 54 47 43 39 40 39 39 42 35 33 39 42 35 34 39 36 37 40 42 44 46
58 41 65 67 66 60 53 55 53 74 71 76 50 58 57 68 64 78 80 73 71 73 65 57 52 46 46 49 48 46 39 34 32 34 37 40 37 42 44 43 39 43 47 51
73 79 88 69 65 63 51 49 64 79 89 93 68 81 91 93 97 91 83 87 85 81 74 67 58 52 57 57 55 53 52 43 38 34 37 41 39 47 55 57 49 47 50 56
76 87 97 86 80 70 69 71 77 87 93 97 93 99 98 98 97 97 96 91 87 77 66 59 56 53 52 56 58 56 54 52 47 45 45 46 44 51 59 65 55 54 54 60
81 97 98 95 87 83 86 81 77 97 97 93 98 98 97 98 96 93 87 86 83 74 66 60 58 55 53 56 64 65 66 69 66 67 60 63 64 62 66 73 62 56 62 66
90 97 93 87 97 94 93 85 82 91 97 97 97 98 97 94 91 88 80 70 69 67 66 61 57 57 61 63 67 70 72 78 74 71 78 74 71 73 80 80 62 59 69 71
79 87 95 98 98 89 89 88 86 92 97 97 98 98 96 92 85 76 76 75 72 71 71 69 65 62 63 61 67 71 74 73 72 71 74 76 75 77 88 79 73 73 75 77
73 85 86 94 91 96 98 98 98 94 82 98 98 97 97 91 87 76 73 76 75 76 79 77 73 68 66 65 67 73 79 84 81 86 72 75 74 80 84 81 75 85 80 84
89 96 95 98 93 85 96 86 85 91 97 98 97 96 97 93 89 86 76 74 75 77 79 77 75 73 72 72 72 74 80 84 84 79 77 77 74 75 78 78 89 86 84 86
84 90 92 95 88 81 90 91 89 91 92 91 92 95 94 92 89 84 80 77 76 79 82 83 82 80 80 80 81 80 84 87 89 88 84 82 81 85 90 90 87 95 91 89
83 83 77 84 79 95 97 90 87 86 87 84 87 89 90 85 84 88 87 83 82 81 85 86 87 87 87 86 89 87 90 95 97 96 93 91 91 89 92 94 97 94 95 94
79 82 83 88 96 95 86 83 89 91 94 91 89 81 84 80 83 87 91 88 88 92 91 86 87 87 87 86 86 89 91 95 97 98 99 99 95 98 97 94 95 95 95 97
68 80 84 83 86 97 90 82 78 76 86 84 80 72 69 71 80 93 97 97 96 93 90 86 85 84 81 81 87 89 93 94 95 97 98 99 98 98 96 98 98 95 96 95
70 80 86 89 93 88 86 70 64 68 82 86 87 84 72 71 74 80 87 94 93 83 84 87 88 83 79 77 78 82 87 92 95 97 97 98 97 98 98 98 94 92 98 93
79 89 79 79 86 85 79 65 70 81 82 83 80 76 72 69 67 68 72 74 73 73 75 76 82 86 85 79 75 74 75 80 83 88 96 96 95 95 96 97 98 97 97 99
74 71 78 68 79 81 80 82 84 83 83 82 81 79 76 74 70 67 64 63 67 70 70 74 74 74 74 75 74 73 73 72 71 74 77 81 86 91 96 97 97 97 97 98
71 61 66 69 73 76 76 78 82 84 85 84 81 80 80 76 74 71 70 69 68 67 64 65 67 68 70 68 67 67 68 67 64 61 65 68 74 77 81 86 92 94 96 96
71 63 62 68 70 70 74 77 80 79 80 81 81 82 80 78 79 78 75 74 72 71 68 66 64 62 61 61 62 63 64 65 63 64 63 63 65 71 74 74 76 80 83 89
68 68 69 70 71 70 72 74 76 79 81 81 80 79 78 78 78 77 73 72 70 69 67 65 66 66 66 65 65 64 63 63 63 63 64 63 63 63 64 64 67 71 72 74

GFSCGP_prec_cthk_114.txt.gz
RH
30 29 31 36 35 33 26 25 24 23 20 31 38 40 28 39 41 45 48 47 44 41 38 39 36 35 33 29 26 24 23 23 29 34 43 43 41 42 42 35 33 33 33 33
45 44 32 25 36 52 43 38 27 17 17 34 38 49 45 50 43 42 50 49 48 44 44 41 38 36 34 33 29 28 26 23 24 30 37 47 48 48 44 41 35 35 36 36
75 53 63 50 27 45 52 43 29 20 13 24 57 48 50 41 40 37 45 48 48 46 46 46 41 38 37 34 32 29 28 24 23 26 39 49 55 66 61 46 38 35 38 40
77 69 72 71 39 46 79 47 39 21 25 31 79 78 62 57 42 41 45 47 50 52 54 52 47 43 41 39 36 33 34 35 32 28 33 40 45 46 43 42 42 37 39 42
47 41 59 87 31 48 68 74 50 32 33 55 59 92 51 54 48 50 61 64 61 62 55 54 53 48 45 42 40 38 40 41 47 48 48 36 47 49 45 42 39 42 41 43
48 43 56 53 37 46 64 60 58 63 61 74 62 82 49 62 52 59 70 74 69 66 63 57 55 51 48 44 42 42 41 43 48 51 60 78 78 65 47 42 41 39 43 42
58 57 51 44 39 52 65 75 83 80 91 74 68 79 67 68 84 70 75 75 71 68 63 59 55 52 48 45 43 42 42 43 47 49 50 66 69 66 62 45 41 40 41 43
68 48 31 33 44 64 67 69 73 77 85 71 63 67 62 88 95 89 78 77 73 66 62 59 59 56 51 48 46 44 44 47 49 46 47 49 46 47 58 54 39 41 42 43
66 44 47 62 71 75 68 71 53 67 80 76 61 75 81 90 94 94 94 84 78 75 70 66 60 57 50 47 46 46 45 42 48 49 45 42 40 42 54 50 44 44 43 46
63 60 63 74 74 71 76 59 70 80 87 90 72 87 89 88 86 90 88 87 88 80 74 67 62 58 51 47 45 45 46 47 44 43 46 46 42 39 47 56 50 44 47 49
81 81 75 81 77 78 68 64 70 69 79 90 95 97 92 95 95 96 97 90 93 91 85 72 69 66 58 51 47 50 52 56 55 47 49 51 47 42 44 54 53 47 57 56
86 96 94 95 89 80 77 68 65 73 78 85 97 97 99 98 98 97 98 97 93 96 88 78 75 68 62 56 52 56 56 61 66 59 52 51 58 57 60 63 61 58 62 67
86 97 92 96 93 88 88 81 75 86 93 98 97 97 97 98 96 97 97 97 96 95 88 81 75 68 62 57 56 57 59 63 66 63 65 66 70 72 79 83 74 71 73 81
75 84 90 91 91 95 98 88 88 95 97 96 96 97 97 97 96 97 96 95 90 84 75 68 66 64 59 56 56 59 63 66 71 74 76 77 81 83 82 83 84 85 89 87
73 88 92 93 98 96 94 96 98 98 97 95 97 96 97 97 90 86 83 84 76 69 68 67 67 68 66 63 62 61 64 70 71 75 73 80 74 80 85 85 85 88 95 87
77 93 98 98 98 96 97 97 98 98 98 97 96 96 96 94 91 89 80 74 72 73 71 75 74 71 71 71 70 68 68 71 75 77 84 73 86 79 83 76 86 95 97 94
80 79 94 97 97 92 87 98 96 96 96 96 94 92 90 90 88 85 83 83 80 77 79 78 77 75 74 72 73 73 73 74 79 81 81 83 78 83 73 85 86 88 90 94
81 78 82 97 90 91 98 98 94 93 95 95 93 92 92 89 84 85 87 89 84 82 77 74 71 75 81 84 86 86 84 83 84 82 84 85 85 84 80 82 80 81 81 90
78 83 86 97 92 97 91 95 95 93 95 95 89 85 89 90 85 92 88 86 85 85 83 81 79 78 76 74 79 85 86 88 88 91 96 98 96 92 92 97 97 94 99 95
81 84 88 94 91 96 95 89 82 73 82 86 86 82 75 77 79 76 82 82 81 88 85 83 82 81 77 74 74 75 79 86 93 92 96 97 98 98 98 98 97 99 97 96
84 88 94 93 90 92 88 81 75 69 83 86 85 83 76 70 67 68 69 70 75 78 78 67 72 77 80 80 76 72 72 73 75 85 93 96 98 96 97 98 98 97 93 98
87 86 86 87 86 87 82 71 74 79 79 79 80 77 73 70 69 63 60 58 56 59 62 61 60 62 70 73 73 72 70 70 68 66 69 75 88 95 98 97 97 97 98 97
79 77 80 77 80 81 81 79 79 81 82 79 77 76 76 73 71 67 64 64 63 62 59 58 60 61 64 64 62 63 64 65 64 63 62 62 65 72 78 85 87 91 95 98
74 67 68 70 73 72 72 73 74 76 75 75 77 78 79 77 76 74 73 72 70 68 68 66 63 60 57 56 56 55 54 55 57 58 57 56 57 61 65 70 74 79 86 87
72 68 66 70 70 70 70 70 68 68 69 69 72 75 78 77 76 75 74 72 70 67 65 64 62 61 61 60 59 59 60 59 59 58 57 55 56 57 57 59 61 65 70 77
71 70 71 71 68 67 68 68 65 64 64 68 71 73 75 74 74 73 73 75 72 69 66 64 62 61 61 59 58 56 54 54 55 56 57 58 59 58 59 60 61 61 61 62

GFSCGP_prec_cthk_117.txt.gz
RH
20 24 29 23 28 36 42 47 46 32 20 18 20 27 20 16 33 25 19 27 46 53 45 47 43 39 39 37 32 29 28 28 27 31 33 38 37 48 48 44 46 45 38 36
31 35 29 36 36 40 38 49 48 43 25 32 28 15 16 23 27 30 26 25 39 52 52 52 49 47 45 40 35 32 31 31 28 26 26 30 32 39 50 50 50 52 44 37
36 24 35 55 50 57 54 39 34 57 42 46 30 21 12 13 24 28 28 26 32 47 57 60 59 55 46 42 40 36 36 34 32 29 29 31 35 40 56 65 62 58 55 43
38 33 49 58 47 56 60 40 45 60 69 49 37 45 30 27 26 35 30 40 42 51 58 65 65 58 53 52 46 40 37 37 36 37 38 39 31 34 45 61 64 68 59 53
41 38 50 46 40 58 54 42 60 82 84 54 31 54 34 48 53 65 54 51 52 56 66 67 66 62 54 53 47 44 43 41 40 42 42 42 46 51 50 46 55 55 57 52
47 46 50 45 52 57 51 44 75 76 67 65 33 48 63 86 86 86 75 68 66 67 65 66 65 62 57 55 50 47 46 46 45 46 48 47 47 50 63 74 74 60 58 53
55 49 44 45 58 63 51 66 86 78 79 77 45 64 63 97 95 91 85 81 76 72 68 65 66 63 61 58 53 50 49 48 48 50 50 53 53 57 56 70 68 94 62 54
73 58 44 40 46 44 44 66 83 80 77 72 67 92 99 93 92 93 87 90 91 88 81 75 74 70 66 63 58 54 51 49 47 47 50 52 55 55 56 66 73 74 70 64
76 62 52 59 62 60 68 68 60 77 76 92 82 99 91 94 98 98 98 91 94 92 91 85 78 74 72 68 64 61 58 55 52 49 47 46 49 52 50 54 59 58 58 57
80 93 67 74 71 67 71 76 82 84 78 87 94 92 97 97 97 98 98 98 94 96 96 89 82 79 75 71 65 61 57 54 52 52 49 46 46 44 46 50 53 57 62 61
93 90 78 85 73 74 80 76 78 75 79 97 97 97 97 93 97 98 98 94 96 97 95 88 80 76 72 68 62 59 55 53 51 51 49 48 46 44 41 39 46 50 60 65
81 90 94 88 85 89 88 73 66 73 74 88 90 97 98 97 97 93 95 96 98 96 92 92 86 83 76 73 69 63 54 51 57 59 57 56 54 53 55 49 52 54 57 66
72 89 87 81 85 84 92 81 71 70 80 90 97 97 98 97 97 98 98 98 97 97 98 89 87 83 79 75 70 62 57 59 60 64 66 67 66 64 62 58 55 59 64 71
82 98 95 96 97 95 94 86 86 80 92 96 97 97 96 98 98 98 98 99 98 98 92 93 93 85 81 78 73 68 64 61 64 67 68 68 72 72 66 66 72 71 75 82
87 98 98 97 93 91 94 96 98 93 96 95 97 96 97 96 96 95 94 97 96 94 91 84 84 82 77 69 66 63 60 60 67 66 63 69 72 76 78 85 86 86 95 90
83 97 99 97 93 92 93 98 98 96 94 94 92 94 96 96 97 96 95 94 96 92 82 81 77 73 71 71 72 70 69 66 64 64 66 71 73 76 76 83 86 91 89 89
80 87 95 97 91 85 86 97 97 96 97 95 89 92 93 95 95 95 97 98 92 85 79 73 70 72 75 79 79 78 77 74 73 72 70 71 74 78 80 78 83 83 86 84
85 85 86 97 92 91 98 97 97 96 97 97 94 95 94 89 92 96 97 98 93 88 81 74 72 70 70 73 75 80 82 80 80 80 79 76 75 78 83 78 79 86 81 85
82 88 97 94 93 97 94 95 96 94 93 91 89 88 90 92 91 98 96 93 92 85 82 82 83 79 78 72 71 70 69 73 80 81 82 83 81 80 83 82 87 79 83 90
79 89 94 95 88 95 96 92 85 81 88 89 89 90 84 78 77 82 83 85 83 81 81 77 71 77 79 75 70 66 62 62 62 67 77 84 88 88 93 95 94 90 90 96
83 88 96 92 91 92 92 86 81 78 86 87 84 79 76 76 75 67 62 62 63 62 64 67 66 61 68 70 69 65 62 62 62 61 61 64 73 89 95 93 95 96 96 98
88 87 92 90 88 90 87 83 81 85 85 84 83 81 82 80 73 70 65 62 60 59 57 53 51 50 52 54 56 55 58 62 61 59 58 56 59 63 69 80 94 97 97 98
80 83 83 87 86 87 86 85 84 83 82 83 84 81 79 78 76 75 73 71 68 65 61 59 57 55 54 53 52 50 49 49 49 50 51 54 53 54 56 60 64 73 86 94
78 70 74 78 78 74 74 73 74 72 72 76 77 77 74 73 72 70 68 66 63 60 59 58 57 55 53 51 49 49 49 51 51 51 51 52 51 51 51 51 54 56 62 72
72 68 64 67 68 69 69 67 66 65 66 67 66 66 66 66 65 64 63 62 61 60 58 57 55 54 53 52 51 49 48 47 47 48 48 49 50 51 52 52 54 56 58 60
75 72 68 67 63 65 69 67 67 67 65 65 64 63 63 63 62 60 59 59 58 56 53 51 49 48 46 46 45 44 42 41 42 43 44 45 47 48 49 51 54 56 57 59

GFSCGP_prec_cthk_120.txt.gz
RH
19 23 24 22 25 26 29 32 34 27 21 25 35 43 37 20 13 12 15 17 19 16 15 40 50 48 44 40 42 46 47 41 41 43 44 42 41 44 49 44 44 42 42 45
30 29 22 23 28 35 32 37 40 36 31 34 34 46 45 31 16 14 12 13 18 19 20 42 52 54 51 47 43 41 39 37 36 36 35 36 35 38 41 47 50 49 49 52
36 26 28 30 36 46 40 44 42 48 37 31 43 49 43 22 20 14 10 17 31 32 31 36 59 58 57 50 47 42 38 37 37 38 39 39 39 39 39 41 47 48 57 57
36 34 36 39 43 50 51 42 45 52 44 54 64 78 40 25 22 43 45 40 43 44 42 40 60 69 65 57 49 46 42 40 40 41 41 43 42 40 37 38 42 53 64 60
42 42 43 45 41 48 44 49 55 49 53 73 65 82 33 30 57 70 68 48 49 52 50 46 55 68 62 58 57 51 50 46 48 50 50 44 44 44 41 41 42 53 60 69
46 40 40 37 36 44 48 54 57 45 64 79 52 59 49 94 95 84 77 65 59 54 56 55 56 63 62 73 68 62 60 56 59 56 53 52 51 50 47 44 48 54 58 61
42 40 39 42 47 43 50 59 61 70 86 76 66 55 80 91 97 95 95 87 75 62 63 64 61 62 63 65 68 70 69 67 67 63 58 56 55 54 49 49 50 51 67 79
69 61 50 57 59 53 47 51 63 78 84 93 81 86 97 98 97 97 98 98 93 76 71 72 70 66 66 69 75 74 74 70 67 65 63 59 57 55 54 52 54 61 64 68
75 69 57 67 73 72 61 67 59 65 76 84 91 98 95 92 97 95 94 96 98 93 81 81 80 76 74 76 76 77 75 72 70 69 68 65 61 56 52 53 58 60 62 61
76 75 63 75 80 68 68 72 89 84 93 88 96 97 96 95 97 97 97 98 93 96 97 91 89 85 80 82 82 78 74 72 71 70 68 66 61 53 50 50 52 53 55 63
77 78 66 77 82 75 78 80 81 86 88 97 96 96 96 97 97 97 98 98 98 95 97 97 99 94 90 87 83 80 78 77 76 75 70 62 54 51 48 46 45 49 55 60
73 80 85 73 82 76 87 79 77 85 74 90 96 97 98 98 98 97 97 97 98 98 90 96 97 96 94 91 86 82 79 75 70 67 62 56 54 53 52 50 50 48 50 52
84 88 86 76 84 87 86 85 82 73 77 92 95 97 97 97 97 97 98 96 95 91 96 98 96 98 93 90 85 81 76 69 67 69 65 59 59 63 62 61 58 57 56 52
90 89 91 91 92 92 92 86 88 80 90 97 97 96 97 97 97 97 97 98 96 95 95 96 95 98 92 89 84 82 79 76 72 71 64 66 68 70 69 69 67 69 70 65
91 98 96 91 92 94 96 93 93 93 97 94 97 96 97 97 97 97 97 97 97 97 97 97 95 93 93 90 86 82 83 74 72 71 69 68 72 77 75 76 76 76 76 74
95 98 98 92 95 95 97 95 97 96 96 96 95 96 96 97 97 97 98 97 97 91 90 90 90 84 84 87 87 79 73 75 72 67 66 66 70 76 79 78 75 74 79 84
95 98 97 94 86 79 87 97 97 96 95 94 92 96 97 97 97 97 97 97 97 95 90 86 79 73 72 72 71 70 74 76 76 77 77 74 72 72 79 76 76 78 79 85
93 99 96 97 95 90 96 98 97 95 97 96 97 95 94 96 97 97 97 98 96 91 89 87 83 77 74 70 68 69 65 65 70 76 79 81 83 81 78 77 78 82 83 84
86 98 97 92 93 96 95 94 96 94 93 92 88 90 93 93 96 96 95 95 92 84 81 79 79 77 75 69 67 65 62 62 60 61 67 73 81 85 84 83 82 84 87 86
81 98 98 92 87 94 94 92 89 92 89 87 85 86 81 76 74 78 80 79 76 72 71 72 73 70 65 68 69 68 66 64 61 62 63 61 61 65 77 84 86 85 87 87
83 92 97 94 92 92 92 87 83 81 87 82 80 78 76 75 74 69 62 58 56 55 56 56 54 53 53 50 54 59 62 61 62 62 61 58 57 59 61 64 74 86 90 94
88 91 96 96 89 91 88 84 76 79 78 77 75 74 71 69 68 66 66 63 62 60 57 56 54 52 50 49 48 48 47 48 48 49 47 47 48 48 49 51 55 58 68 83
81 85 87 94 95 95 95 91 84 80 79 79 76 74 73 71 69 66 63 62 60 58 57 56 53 51 49 48 46 46 46 46 45 45 44 43 44 45 45 45 45 47 50 54
84 76 81 88 88 85 84 84 78 75 74 75 74 71 68 65 62 61 59 58 55 52 51 50 48 45 43 41 41 40 38 37 37 37 37 38 39 41 44 44 46 47 48 50
78 76 74 75 78 79 73 71 68 67 67 68 65 64 62 61 60 58 57 55 52 48 45 42 40 39 39 38 36 35 33 33 34 34 34 34 35 36 37 40 43 47 49 51
73 75 75 69 64 66 67 67 67 67 67 67 64 63 62 59 56 54 51 47 42 38 36 35 34 33 32 31 30 29 28 28 29 29 31 33 34 35 37 38 40 42 45 48

GFSCGP_prec_cthk_123.txt.gz
RH
23 20 20 20 20 18 21 25 26 19 17 29 26 29 23 16 17 16 18 20 14 9 9 11 12 14 32 33 37 45 53 63 66 53 50 49 51 52 49 48 50 48 46 43
25 23 20 21 21 23 26 34 28 22 20 29 27 29 20 16 18 30 32 21 18 14 13 20 17 15 29 38 39 51 52 65 60 55 54 56 58 55 54 53 50 47 48 48
25 23 26 29 27 28 28 37 34 36 26 26 36 28 37 32 39 42 43 39 31 26 23 25 27 25 25 46 44 49 51 63 59 58 58 57 51 49 47 49 48 49 50 51
31 31 34 33 32 33 37 38 38 36 43 43 38 46 48 48 48 56 52 54 46 38 36 39 42 37 33 53 50 51 43 42 45 49 47 44 40 40 40 41 45 48 51 54
33 35 36 38 35 38 39 41 39 39 48 48 43 63 45 54 57 84 73 65 64 57 46 57 57 54 50 58 68 58 52 44 41 42 48 48 49 46 48 46 46 45 49 56
35 37 39 41 45 41 43 45 41 44 50 63 62 83 65 75 89 94 97 98 90 70 56 64 59 59 65 71 77 68 52 47 45 46 47 53 57 58 59 56 51 45 45 49
39 41 43 48 53 52 53 51 42 49 72 65 65 70 89 94 97 97 93 93 87 73 71 76 66 61 60 71 76 73 62 56 56 56 56 58 63 65 64 64 57 53 50 46
52 52 45 49 58 58 62 50 49 54 52 52 58 94 96 98 97 97 97 96 98 97 84 78 76 69 62 58 63 75 72 73 73 67 66 67 70 71 70 66 63 60 58 54
61 60 50 53 60 67 68 56 52 60 59 72 81 97 98 95 97 97 97 97 97 98 90 83 83 81 74 68 66 68 77 82 83 79 80 70 79 79 72 70 67 61 57 58
65 68 53 58 64 71 68 57 69 72 81 91 91 96 95 94 96 97 97 97 96 98 92 84 88 86 83 80 76 73 74 78 81 75 72 83 77 76 74 74 69 63 60 59
65 74 60 65 71 73 75 69 71 73 79 87 87 96 97 97 97 97 97 97 97 97 97 98 91 89 88 87 84 84 83 89 83 81 85 86 81 79 75 72 66 59 57 58
70 78 74 70 69 76 77 77 74 80 73 80 90 95 97 97 97 97 97 97 97 97 97 97 96 98 95 95 92 87 91 91 93 91 89 86 81 75 71 62 56 51 49 51
79 81 73 61 70 71 88 87 92 82 81 89 94 95 97 96 97 97 97 98 97 97 97 98 96 96 95 98 98 96 94 90 89 87 83 81 78 77 70 63 60 57 55 56
84 82 77 78 83 85 89 86 82 89 90 93 96 95 96 97 97 97 97 97 98 97 97 96 98 98 98 98 98 98 95 90 85 81 78 76 76 75 72 69 67 66 66 66
84 91 92 85 87 91 93 92 90 92 98 95 96 95 96 96 97 97 97 97 94 95 96 95 95 97 97 98 98 96 90 85 82 79 77 74 75 77 75 72 72 72 73 74
85 93 98 93 89 94 96 97 97 94 92 94 95 95 96 97 97 97 97 97 97 95 94 92 88 87 87 87 87 88 88 87 82 77 75 75 72 71 72 72 74 75 80 79
88 94 94 95 95 90 89 97 97 93 93 94 93 96 96 96 96 97 97 97 97 96 95 92 90 87 84 81 75 71 70 70 66 69 72 73 76 77 76 74 73 73 76 78
81 89 94 92 97 93 97 97 97 95 96 95 95 96 96 96 97 97 97 95 92 90 89 88 86 83 79 76 73 70 64 60 58 57 57 60 69 75 78 79 79 77 75 75
81 88 94 92 91 95 96 94 96 96 96 95 96 92 93 97 97 94 92 89 85 81 80 78 76 74 71 72 70 66 60 57 57 58 57 57 56 57 62 73 82 85 84 82
74 85 96 86 88 91 95 95 95 93 90 87 82 81 77 73 70 70 72 69 69 67 63 57 56 54 54 55 53 58 60 58 56 55 54 53 52 53 53 54 57 63 80 86
70 84 95 93 91 92 94 90 88 91 91 86 83 78 75 70 69 69 66 61 58 56 54 52 50 49 46 44 43 40 40 41 42 41 39 39 40 40 42 43 44 47 51 58
74 82 90 96 94 94 94 91 82 83 82 79 78 75 73 72 71 68 64 61 58 57 56 54 51 47 43 39 37 35 35 37 35 33 32 31 33 34 37 38 41 44 45 45
75 75 82 90 94 96 96 93 86 84 83 81 77 75 73 71 68 64 60 56 54 51 49 45 39 37 34 32 31 30 32 31 30 29 29 30 30 30 31 32 33 34 38 40
78 76 75 84 90 92 94 93 89 87 84 82 75 70 66 63 60 56 54 51 46 40 36 33 31 30 30 29 27 25 23 23 23 22 23 22 24 25 25 26 28 30 32 34
74 74 73 75 84 84 84 82 80 79 77 72 68 63 60 58 56 55 50 43 37 34 30 28 26 25 24 22 20 19 18 17 18 20 20 20 21 22 23 24 25 27 29 31
64 69 72 71 66 70 71 67 66 66 65 64 62 60 58 55 52 46 39 33 30 28 26 24 21 20 19 18 18 17 16 16 16 17 17 19 20 21 21 22 25 25 26 27

GFSCGP_prec_cthk_126.txt.gz
RH
24 21 19 18 19 18 17 15 14 16 21 18 20 16 13 17 19 22 25 25 28 28 23 18 13 14 20 13 15 28 41 49 52 55 49 44 44 40 38 39 40 41 41 41
25 22 20 20 20 18 17 18 16 18 24 25 21 19 15 18 37 44 39 36 37 34 28 24 24 29 26 19 15 23 37 51 58 61 52 48 46 47 48 51 52 51 50 48
24 22 23 23 21 23 21 22 21 21 24 24 30 23 24 28 51 54 50 49 51 48 42 39 31 27 23 25 21 22 35 54 62 68 65 59 54 55 52 52 55 52 53 54
26 24 24 22 25 26 26 25 26 26 27 24 35 33 40 46 47 50 62 68 69 61 52 51 44 33 28 31 30 29 36 48 66 72 78 79 60 57 55 60 57 55 54 55
30 26 26 28 32 31 30 33 33 30 33 30 34 39 50 52 59 69 73 77 78 76 66 61 57 46 41 45 44 40 40 48 62 80 76 91 88 71 62 59 52 49 47 54
29 28 32 32 34 38 36 39 36 39 38 44 41 55 62 76 80 78 83 88 82 79 76 80 66 57 56 69 60 54 53 51 56 74 75 70 89 72 62 57 49 48 49 50
32 31 35 38 42 42 47 49 46 47 60 48 45 57 86 85 84 87 90 90 89 82 73 73 68 68 74 75 71 66 71 68 64 67 72 70 73 62 56 54 52 55 55 54
36 42 36 39 45 44 54 54 45 50 42 41 45 72 90 96 91 94 94 93 92 88 79 79 80 87 81 82 81 83 88 86 76 72 66 63 61 60 59 55 55 58 60 60
47 43 40 43 48 51 64 62 50 49 49 58 61 87 92 86 92 96 96 97 97 96 96 81 89 92 84 80 81 82 85 87 78 64 65 61 59 60 57 59 64 63 62 68
48 55 44 51 52 55 64 70 70 63 64 64 67 82 84 87 93 96 96 97 97 97 97 83 85 94 91 86 76 69 77 88 84 82 75 75 71 68 66 68 65 60 64 71
51 57 52 51 61 69 82 76 66 62 61 67 67 89 87 93 96 96 96 97 97 97 97 96 87 89 97 86 81 74 70 73 86 82 77 78 71 70 71 68 63 65 70 71
54 64 62 57 57 69 73 79 69 73 70 66 80 89 88 94 95 95 96 97 97 97 97 97 98 95 98 98 86 83 76 72 71 75 79 69 73 80 79 77 79 80 78 79
63 64 55 53 61 59 68 84 88 84 77 82 90 92 93 93 95 96 97 97 97 97 97 97 97 98 97 92 89 89 89 88 90 87 84 90 89 94 88 86 83 84 82 78
65 62 67 69 72 70 78 77 71 77 93 94 90 95 94 93 95 96 96 97 97 97 97 97 98 97 97 98 98 96 97 94 96 96 94 96 91 94 90 87 86 84 80 81
66 74 74 73 76 76 93 92 88 88 92 91 95 92 94 95 96 96 97 97 97 96 96 94 94 96 97 97 97 96 98 98 97 97 94 92 91 88 84 83 81 85 83 79
69 76 84 89 89 87 94 95 95 90 90 88 88 94 95 96 96 96 96 96 97 96 94 93 90 85 83 85 87 88 93 95 96 95 91 89 85 81 81 78 81 83 80 83
68 75 80 92 97 92 92 96 97 92 92 89 88 93 95 96 96 96 97 96 95 94 94 91 87 85 85 83 82 78 76 73 70 69 69 69 71 74 75 76 77 75 73 77
61 70 79 87 94 94 97 96 95 93 94 92 94 95 95 96 97 95 92 90 87 85 84 83 82 82 82 81 79 77 74 72 68 64 62 61 59 56 55 59 66 71 75 75
58 69 79 87 86 93 96 91 94 96 95 94 94 95 96 97 92 87 83 80 77 74 69 66 64 63 63 63 66 70 68 64 59 57 54 52 50 49 49 49 49 49 54 62
61 64 79 82 85 86 86 90 93 91 92 89 87 88 84 79 76 75 71 69 67 63 58 53 51 49 46 43 42 39 35 36 37 37 37 38 37 37 38 38 39 39 40 43
58 64 81 82 85 83 84 93 95 95 95 89 85 82 75 73 73 68 64 62 57 56 52 49 43 39 38 36 35 34 33 31 31 29 27 26 26 27 28 29 29 29 30 32
57 66 78 85 89 91 91 95 89 86 88 84 78 75 74 71 69 66 63 60 58 55 47 42 38 36 34 32 31 31 30 29 28 24 25 23 21 21 21 21 22 23 24 26
62 64 70 84 89 89 93 95 90 83 79 77 75 74 72 70 68 66 61 55 45 38 34 32 30 28 25 22 22 21 20 19 19 17 16 18 14 15 15 13 13 15 16 19
60 63 72 78 91 92 94 94 92 89 85 80 76 74 72 68 64 58 50 40 35 31 28 26 24 22 21 19 17 16 18 18 17 16 17 17 17 17 18 18 17 16 15 16
55 62 72 76 82 89 91 93 92 91 88 83 78 71 67 61 56 49 38 33 30 27 24 22 20 19 19 18 15 14 17 17 16 16 17 18 19 19 19 21 20 21 21 22
51 58 66 76 74 81 84 82 81 80 80 77 72 65 59 53 45 38 33 29 26 24 21 18 17 16 16 16 14 13 16 18 19 19 20 20 21 21 21 22 23 23 21 22